[[{"header":{"parameterUnit":"m.s-1","parameterCategory":1,"la1":30.6,"la2":29.2853,"lo1":-89.7004,"lo2":-87.6739,"dy":0.0162,"dx":0.0183,"nx":112,"ny":82,"refTime":"2023-02-23T18:00:00:Z","depth":0,"parameterNumber":2,"parameterNumberName":"U-component_of_WINDS"},"data":[0.0,0.0,0.0,0.0,0.0,0.0,0.0,0.0,0.0,0.0,0.0,0.0,0.0,0.0,0.0,0.0,0.0,0.0,0.0,0.0,0.0,0.0,0.0,0.0,0.0,0.0,0.0,0.0,0.0,0.0,0.0,0.0,0.0,0.0,0.0,0.0,0.0,0.0,0.0,0.0,0.0,0.0,0.0,0.0,0.0,0.0,0.0,0.0,0.0,0.0,0.0,0.0,0.0,0.0,0.0,0.0,0.0,0.0,0.0,0.0,0.0,0.0,0.0,0.0,0.0,0.0,0.0,0.0,0.0,0.0,0.0,0.0,0.0,0.0,0.0,0.0,0.0,0.0,0.0,0.0,0.0,0.0,0.0,0.0,0.0,0.0,0.0,0.0,0.0,0.0,0.0,-1.3822,-1.3955,-1.4412,-1.5151,-1.5526,-1.5974,-1.6453,0.0,0.0,0.0,0.0,0.0,0.0,0.0,0.0,0.0,0.0,0.0,0.0,0.0,0.0,0.0,0.0,0.0,0.0,0.0,0.0,0.0,0.0,0.0,0.0,0.0,0.0,0.0,0.0,0.0,0.0,0.0,0.0,0.0,0.0,0.0,0.0,0.0,0.0,0.0,0.0,0.0,0.0,0.0,0.0,0.0,0.0,0.0,0.0,0.0,0.0,0.0,0.0,0.0,0.0,0.0,0.0,0.0,0.0,0.0,0.0,0.0,0.0,0.0,0.0,0.0,0.0,0.0,0.0,0.0,0.0,0.0,0.0,0.0,0.0,0.0,0.0,0.0,0.0,0.0,0.0,0.0,0.0,0.0,0.0,0.0,0.0,0.0,0.0,0.0,0.0,0.0,0.0,0.0,0.0,0.0,0.0,0.0,0.0,0.0,0.0,0.0,0.0,0.0,0.0,-1.3779,-1.3997,-1.4088,-1.413,-1.4292,-1.5311,-1.5835,-1.5594,0.0,0.0,0.0,0.0,0.0,0.0,0.0,0.0,0.0,0.0,0.0,0.0,0.0,0.0,0.0,0.0,0.0,0.0,0.0,0.0,0.0,0.0,0.0,0.0,0.0,0.0,0.0,0.0,0.0,0.0,0.0,0.0,0.0,0.0,0.0,0.0,0.0,0.0,0.0,0.0,0.0,0.0,0.0,0.0,0.0,0.0,0.0,0.0,0.0,0.0,0.0,0.0,0.0,0.0,0.0,0.0,0.0,0.0,0.0,0.0,0.0,0.0,0.0,0.0,0.0,0.0,0.0,0.0,0.0,0.0,0.0,0.0,0.0,0.0,0.0,0.0,0.0,0.0,0.0,0.0,0.0,0.0,0.0,0.0,0.0,0.0,0.0,0.0,0.0,0.0,0.0,0.0,0.0,0.0,0.0,0.0,0.0,0.0,0.0,0.0,0.0,0.0,0.0,-1.373,-1.3695,-1.4046,-1.4088,-1.4334,-1.4908,-1.5484,-1.5966,-1.6255,-1.7561,0.0,0.0,0.0,0.0,0.0,0.0,0.0,0.0,0.0,0.0,0.0,0.0,0.0,0.0,0.0,0.0,0.0,0.0,0.0,0.0,0.0,0.0,0.0,0.0,0.0,0.0,0.0,0.0,0.0,0.0,0.0,0.0,0.0,0.0,0.0,0.0,0.0,0.0,0.0,0.0,0.0,0.0,0.0,0.0,0.0,0.0,0.0,0.0,0.0,0.0,0.0,0.0,0.0,0.0,0.0,0.0,0.0,0.0,0.0,0.0,0.0,0.0,0.0,0.0,0.0,0.0,0.0,0.0,0.0,0.0,0.0,0.0,0.0,0.0,0.0,0.0,0.0,0.0,0.0,0.0,0.0,0.0,0.0,0.0,0.0,0.0,0.0,0.0,0.0,0.0,0.0,0.0,0.0,0.0,0.0,0.0,0.0,0.0,0.0,0.0,0.0,0.0,-1.3737,-1.387,-1.4088,-1.4124,-1.4496,-1.5242,-1.545,-1.5858,-1.6591,-1.7359,0.0,0.0,0.0,0.0,0.0,0.0,0.0,0.0,0.0,0.0,0.0,0.0,0.0,0.0,0.0,0.0,0.0,0.0,0.0,0.0,0.0,0.0,0.0,0.0,0.0,0.0,0.0,0.0,0.0,0.0,0.0,0.0,0.0,0.0,0.0,0.0,0.0,0.0,0.0,0.0,0.0,0.0,0.0,0.0,0.0,0.0,0.0,0.0,0.0,0.0,0.0,0.0,0.0,0.0,0.0,0.0,0.0,0.0,0.0,0.0,0.0,0.0,0.0,0.0,0.0,0.0,0.0,0.0,0.0,0.0,0.0,0.0,0.0,0.0,0.0,0.0,0.0,0.0,0.0,0.0,0.0,0.0,0.0,0.0,0.0,0.0,0.0,0.0,0.0,0.0,0.0,0.0,0.0,0.0,0.0,0.0,0.0,0.0,0.0,0.0,0.0,0.0,-1.3786,-1.4088,-1.4088,-1.4286,-1.4321,-1.4208,-1.4797,-1.5242,-1.5519,-1.5974,0.0,0.0,0.0,0.0,0.0,0.0,0.0,0.0,0.0,0.0,0.0,0.0,0.0,0.0,0.0,0.0,0.0,0.0,0.0,0.0,0.0,0.0,0.0,0.0,0.0,0.0,0.0,0.0,0.0,0.0,0.0,0.0,0.0,0.0,0.0,0.0,0.0,0.0,0.0,0.0,0.0,0.0,0.0,0.0,0.0,0.0,0.0,0.0,0.0,0.0,0.0,0.0,0.0,0.0,0.0,0.0,0.0,0.0,0.0,0.0,0.0,0.0,0.0,0.0,0.0,0.0,0.0,0.0,0.0,0.0,0.0,0.0,0.0,0.0,0.0,0.0,0.0,0.0,0.0,0.0,0.0,0.0,0.0,0.0,0.0,0.0,0.0,0.0,0.0,0.0,0.0,0.0,0.0,0.0,0.0,0.0,0.0,0.0,0.0,0.0,0.0,0.0,-1.3737,-1.3913,0.0,-1.4279,-1.4643,-1.5228,-1.565,-1.5858,-1.5794,0.0,0.0,0.0,0.0,0.0,0.0,0.0,0.0,0.0,0.0,0.0,0.0,0.0,0.0,0.0,0.0,0.0,0.0,0.0,0.0,0.0,0.0,0.0,0.0,0.0,0.0,0.0,0.0,0.0,0.0,0.0,0.0,0.0,0.0,0.0,0.0,0.0,0.0,0.0,0.0,0.0,0.0,0.0,0.0,0.0,0.0,0.0,0.0,0.0,0.0,0.0,0.0,0.0,0.0,0.0,0.0,0.0,0.0,0.0,0.0,0.0,0.0,0.0,0.0,0.0,0.0,0.0,0.0,0.0,0.0,0.0,0.0,0.0,0.0,0.0,0.0,0.0,0.0,0.0,0.0,0.0,0.0,0.0,0.0,0.0,0.0,0.0,0.0,0.0,0.0,0.0,0.0,0.0,0.0,0.0,0.0,0.0,0.0,0.0,0.0,0.0,0.0,-1.4104,-1.4433,-1.4768,0.0,-1.522,-1.5628,-1.6363,-1.6706,-1.6624,-1.5959,0.0,0.0,0.0,0.0,0.0,0.0,0.0,0.0,0.0,0.0,0.0,0.0,0.0,0.0,0.0,0.0,0.0,0.0,0.0,0.0,0.0,0.0,0.0,0.0,0.0,0.0,0.0,0.0,0.0,0.0,0.0,0.0,0.0,0.0,0.0,0.0,0.0,0.0,0.0,0.0,0.0,0.0,0.0,0.0,0.0,0.0,0.0,0.0,0.0,0.0,0.0,0.0,0.0,0.0,0.0,0.0,0.0,0.0,0.0,0.0,0.0,0.0,0.0,0.0,0.0,0.0,0.0,0.0,0.0,0.0,0.0,0.0,0.0,0.0,0.0,0.0,0.0,0.0,0.0,0.0,0.0,0.0,0.0,0.0,0.0,0.0,0.0,0.0,0.0,0.0,0.0,0.0,0.0,0.0,0.0,0.0,0.0,0.0,0.0,0.0,0.0,0.0,-1.4998,-1.5992,-1.6772,-1.7001,-1.7172,-1.7302,-1.7334,-1.7755,-1.7342,0.0,0.0,0.0,0.0,0.0,0.0,0.0,0.0,0.0,0.0,0.0,0.0,0.0,0.0,0.0,0.0,0.0,0.0,0.0,0.0,0.0,0.0,0.0,0.0,0.0,0.0,0.0,0.0,0.0,0.0,0.0,0.0,0.0,0.0,0.0,0.0,0.0,0.0,0.0,0.0,0.0,0.0,0.0,0.0,0.0,0.0,0.0,0.0,0.0,0.0,0.0,0.0,0.0,0.0,0.0,0.0,0.0,0.0,0.0,0.0,0.0,0.0,0.0,0.0,0.0,0.0,0.0,0.0,0.0,0.0,0.0,0.0,0.0,0.0,0.0,0.0,0.0,0.0,0.0,0.0,0.0,0.0,0.0,0.0,0.0,0.0,0.0,0.0,0.0,0.0,0.0,0.0,0.0,0.0,0.0,0.0,0.0,0.0,0.0,0.0,0.0,0.0,0.0,-1.5496,-1.6437,-1.7139,-1.7212,-1.7415,-1.7819,-1.843,-1.8767,-1.8318,-1.6927,0.0,0.0,0.0,0.0,0.0,0.0,0.0,0.0,0.0,0.0,0.0,0.0,0.0,0.0,0.0,0.0,0.0,0.0,0.0,0.0,0.0,0.0,0.0,0.0,0.0,0.0,0.0,0.0,0.0,0.0,0.0,0.0,0.0,0.0,0.0,0.0,0.0,0.0,0.0,0.0,0.0,0.0,0.0,0.0,0.0,0.0,0.0,0.0,0.0,0.0,0.0,0.0,0.0,0.0,0.0,0.0,0.0,0.0,0.0,0.0,0.0,0.0,0.0,0.0,0.0,0.0,0.0,0.0,0.0,0.0,0.0,0.0,0.0,0.0,0.0,0.0,0.0,0.0,0.0,0.0,0.0,0.0,0.0,0.0,0.0,0.0,0.0,0.0,0.0,0.0,0.0,0.0,0.0,0.0,0.0,0.0,0.0,0.0,0.0,0.0,0.0,0.0,-1.6224,-1.7455,-1.8399,-1.8479,-1.8638,-1.8997,-1.9599,-1.9766,-1.9283,-1.8069,0.0,0.0,0.0,0.0,0.0,0.0,0.0,0.0,0.0,0.0,0.0,0.0,0.0,0.0,0.0,0.0,0.0,0.0,0.0,0.0,0.0,0.0,0.0,0.0,0.0,0.0,0.0,0.0,0.0,0.0,0.0,0.0,0.0,0.0,0.0,0.0,0.0,0.0,0.0,0.0,0.0,0.0,0.0,0.0,0.0,0.0,0.0,0.0,0.0,0.0,0.0,0.0,0.0,0.0,0.0,0.0,0.0,0.0,0.0,0.0,0.0,0.0,0.0,0.0,0.0,0.0,0.0,0.0,0.0,0.0,0.0,0.0,0.0,0.0,0.0,0.0,0.0,0.0,0.0,0.0,0.0,0.0,0.0,0.0,0.0,0.0,0.0,0.0,0.0,0.0,0.0,0.0,0.0,0.0,0.0,0.0,0.0,0.0,0.0,0.0,0.0,0.0,-1.7041,-1.8749,-2.0059,-2.0303,-2.0342,-2.042,-2.0605,-2.0644,-2.0196,-1.9116,0.0,0.0,0.0,0.0,0.0,0.0,0.0,0.0,0.0,0.0,0.0,0.0,0.0,0.0,0.0,0.0,0.0,0.0,0.0,0.0,0.0,0.0,0.0,0.0,0.0,0.0,0.0,0.0,0.0,0.0,0.0,0.0,0.0,0.0,0.0,0.0,0.0,0.0,0.0,0.0,0.0,0.0,0.0,0.0,0.0,0.0,0.0,0.0,0.0,0.0,0.0,0.0,0.0,0.0,0.0,0.0,0.0,0.0,0.0,0.0,-1.9311,0.0,0.0,0.0,0.0,0.0,0.0,0.0,0.0,0.0,0.0,0.0,0.0,0.0,0.0,0.0,0.0,0.0,0.0,0.0,0.0,0.0,0.0,0.0,0.0,0.0,0.0,0.0,0.0,0.0,0.0,0.0,0.0,0.0,0.0,0.0,0.0,0.0,0.0,0.0,0.0,0.0,-1.7253,-1.9116,-2.0489,-2.0527,-2.0664,-2.079,-2.0819,-2.0974,-2.0557,-1.9304,0.0,0.0,0.0,0.0,0.0,0.0,0.0,0.0,0.0,0.0,0.0,0.0,0.0,0.0,0.0,0.0,0.0,0.0,0.0,0.0,0.0,0.0,0.0,0.0,0.0,0.0,0.0,0.0,0.0,0.0,0.0,0.0,0.0,0.0,0.0,0.0,0.0,0.0,0.0,0.0,0.0,0.0,0.0,0.0,0.0,0.0,0.0,0.0,0.0,0.0,0.0,0.0,0.0,0.0,0.0,0.0,0.0,0.0,0.0,0.0,0.0,-1.9808,0.0,0.0,0.0,0.0,0.0,0.0,0.0,0.0,0.0,0.0,0.0,0.0,0.0,0.0,0.0,0.0,0.0,0.0,0.0,0.0,0.0,0.0,0.0,0.0,0.0,0.0,0.0,0.0,0.0,0.0,0.0,0.0,0.0,0.0,0.0,0.0,0.0,0.0,0.0,0.0,-1.7447,-1.9471,-2.0886,-2.0886,-2.0974,-2.1051,-2.1051,-2.1061,-2.077,-2.0118,-1.9265,0.0,0.0,0.0,0.0,0.0,0.0,0.0,0.0,0.0,0.0,0.0,0.0,0.0,0.0,0.0,0.0,0.0,0.0,0.0,0.0,0.0,0.0,0.0,0.0,0.0,0.0,0.0,0.0,0.0,0.0,0.0,0.0,0.0,0.0,0.0,0.0,0.0,0.0,0.0,0.0,0.0,0.0,0.0,0.0,0.0,0.0,0.0,0.0,0.0,0.0,0.0,0.0,0.0,0.0,-2.1562,-2.1448,-2.16,-2.214,-2.292,-2.2027,-2.1817,-2.1996,0.0,0.0,0.0,0.0,0.0,0.0,0.0,0.0,0.0,0.0,0.0,0.0,0.0,0.0,0.0,0.0,0.0,0.0,0.0,0.0,0.0,0.0,0.0,0.0,0.0,-1.9101,-1.9827,0.0,0.0,0.0,0.0,0.0,0.0,0.0,0.0,0.0,0.0,0.0,0.0,-1.7762,-1.9668,-2.1089,-2.1167,-2.1244,-2.1244,-2.1244,-2.1099,-2.0984,-2.0984,-1.9599,-1.8829,0.0,0.0,0.0,0.0,0.0,0.0,0.0,0.0,0.0,0.0,0.0,0.0,0.0,0.0,0.0,0.0,0.0,0.0,0.0,0.0,0.0,0.0,0.0,0.0,0.0,0.0,0.0,0.0,0.0,0.0,0.0,0.0,-1.9501,-1.9609,0.0,0.0,0.0,0.0,0.0,0.0,0.0,0.0,0.0,0.0,0.0,0.0,0.0,0.0,-1.8922,-2.0518,-2.0923,-2.0265,-2.2649,-2.3434,-2.2756,-2.3471,-2.3886,-2.3995,-2.3838,0.0,-2.2611,-2.2301,0.0,0.0,0.0,0.0,0.0,0.0,0.0,0.0,0.0,0.0,0.0,0.0,0.0,0.0,0.0,0.0,0.0,0.0,0.0,0.0,0.0,0.0,-1.9698,-1.9659,-1.9777,-2.0051,0.0,-1.9325,-1.7986,-1.7696,0.0,0.0,0.0,0.0,0.0,0.0,0.0,0.0,-1.831,-1.9608,-2.0615,-2.1128,-2.1359,-2.1474,-2.1474,-2.1436,-2.1436,-2.1436,-2.0886,-2.0167,-1.9304,-1.8997,0.0,0.0,0.0,0.0,0.0,0.0,0.0,0.0,0.0,0.0,0.0,0.0,0.0,0.0,0.0,0.0,0.0,0.0,0.0,0.0,0.0,0.0,0.0,0.0,0.0,0.0,0.0,0.0,0.0,-1.8988,-1.9737,-1.9709,-1.9659,-1.9362,0.0,0.0,0.0,0.0,0.0,0.0,0.0,0.0,0.0,-2.0914,-2.0942,-2.1211,-2.1794,-2.2585,-2.2809,-2.2462,-2.3655,-2.4007,-2.3677,-2.4043,-2.42,-2.42,-2.42,-2.3959,-2.3497,-2.292,-2.2161,-2.1278,0.0,0.0,0.0,0.0,0.0,-1.8988,-1.9483,0.0,0.0,0.0,0.0,0.0,0.0,0.0,0.0,0.0,0.0,0.0,0.0,0.0,0.0,-1.9747,-2.036,-2.0898,-2.1174,-2.1034,-2.0514,0.0,-1.8554,-1.7781,-1.6638,0.0,0.0,0.0,0.0,0.0,-1.9359,-2.0573,-2.157,-2.2267,-2.2386,-2.2465,-2.2465,-2.2218,-2.2059,-2.2059,-2.1419,-2.0714,-1.9952,-1.951,-1.8694,0.0,0.0,0.0,0.0,0.0,0.0,0.0,0.0,0.0,0.0,0.0,0.0,0.0,0.0,0.0,0.0,0.0,0.0,0.0,0.0,0.0,0.0,0.0,0.0,0.0,0.0,0.0,0.0,-1.9246,-1.9825,-1.9982,-1.9864,-1.9511,0.0,0.0,0.0,0.0,0.0,0.0,-2.0246,-2.0285,-2.0981,-2.2424,-2.2472,-2.282,-2.3582,-2.3776,-2.3776,-2.3582,-2.4007,-2.408,-2.3897,-2.4116,-2.42,-2.42,-2.42,-2.42,-2.4152,-2.3386,-2.292,-2.2611,-2.1828,-2.1324,0.0,-2.1181,-2.0807,-2.0401,-2.1211,-2.1589,-2.1576,-2.1053,0.0,-2.0987,-1.8878,0.0,0.0,0.0,0.0,-1.7151,-1.8051,0.0,-1.8714,-1.9514,-2.0462,-2.1217,-2.1388,-2.2018,-2.217,0.0,-2.0078,-1.9205,-1.8104,0.0,0.0,0.0,0.0,-1.9697,-2.0583,-2.1527,-2.239,-2.3103,-2.3184,-2.3184,-2.3184,-2.2819,-2.2605,-2.2686,-2.1897,-2.1307,-2.0964,-2.0418,-1.9549,-1.8297,0.0,0.0,0.0,0.0,0.0,0.0,0.0,0.0,0.0,0.0,0.0,0.0,0.0,0.0,0.0,0.0,0.0,0.0,0.0,0.0,0.0,0.0,0.0,0.0,0.0,0.0,0.0,0.0,0.0,-2.0951,-2.0537,0.0,0.0,0.0,0.0,-2.0903,-2.0979,-2.1066,-2.1316,-2.1316,-2.1479,-2.1832,-2.1842,-2.188,-2.1907,-2.2692,-2.2692,-2.1945,-2.3471,-2.3787,-2.3075,-2.3861,-2.42,-2.42,-2.42,-2.42,-2.42,-2.4152,-2.357,-2.2686,-2.2649,-2.1989,-2.1133,-2.1306,-2.1354,-2.1354,-2.168,-2.2084,-2.229,-2.1372,-2.0488,-1.9655,-1.9255,-1.8657,0.0,0.0,-1.8587,-1.8501,-1.9025,-1.9162,-1.9162,-1.9204,-1.9749,-2.0424,-2.1061,-2.0968,-2.1208,0.0,-2.299,-2.2514,-2.1193,0.0,-2.0819,-2.0219,-2.0177,-2.0699,-2.195,-2.2155,-2.2462,-2.3143,-2.3184,-2.3184,-2.3184,-2.2991,-2.2951,-2.3143,-2.2533,-2.2236,-2.24,-2.1999,-2.1089,-1.9637,-1.9722,0.0,0.0,0.0,0.0,0.0,0.0,0.0,0.0,0.0,0.0,0.0,0.0,0.0,0.0,0.0,0.0,0.0,0.0,0.0,0.0,0.0,0.0,0.0,0.0,0.0,0.0,0.0,0.0,-2.1171,-2.1524,0.0,0.0,-2.0961,-2.0778,-2.0537,-2.0624,-2.075,-2.0798,-2.0798,-2.1106,-2.1794,-2.1794,-2.2069,-2.2569,-2.2841,-2.3113,-2.3361,-2.3934,-2.4043,-2.3787,-2.408,-2.42,-2.4212,-2.4522,-2.4659,-2.4682,-2.5027,-2.4588,-2.3689,-2.3992,-2.3869,-2.3589,-2.4007,-2.3459,-2.2586,-2.3293,-2.2847,-2.1979,-2.2059,-2.1607,-2.0913,-2.0358,-1.9563,-1.8861,-1.9041,-1.9041,-1.8998,-1.917,-1.9213,-1.9213,-1.9213,-1.9911,-2.0639,-2.0906,-2.1382,-2.1949,-2.2561,-2.2416,-2.2079,-2.1822,-2.2016,-2.1986,-2.1296,-2.1454,-2.1992,-2.2932,-2.3028,-2.3283,-2.3969,-2.4022,-2.4022,-2.4022,-2.3853,-2.3684,-2.359,-2.325,-2.2728,-2.2011,-2.1847,-2.1101,-1.9661,-1.9391,-1.8575,0.0,0.0,0.0,0.0,0.0,0.0,0.0,0.0,0.0,0.0,0.0,0.0,0.0,0.0,0.0,0.0,0.0,0.0,0.0,0.0,0.0,0.0,0.0,0.0,0.0,0.0,-2.1962,-2.1171,-2.1886,-2.2199,-2.1676,-2.1811,-2.1821,-2.1583,-2.1669,-2.1756,-2.1756,-2.1499,-2.1614,-2.2193,-2.1956,-2.2069,-2.258,-2.2617,-2.2917,-2.3579,-2.3579,-2.3656,-2.3822,-2.4112,-2.4224,-2.4284,-2.4888,-2.5187,-2.521,-2.5566,-2.5314,-2.474,-2.5061,-2.5187,-2.5222,-2.5578,-2.4982,-2.4075,-2.4913,-2.4148,-2.291,-2.332,-2.2874,-2.1993,-2.1367,-2.0485,-1.973,-1.973,-1.9634,-1.9555,-1.9555,-1.9555,-1.9555,-1.9555,-2.0307,-2.1012,-2.1012,-2.1732,-2.2492,-2.2711,-2.226,-2.2005,-2.2465,-2.2834,-2.2803,-2.2136,-2.2448,-2.2809,-2.2872,-2.3232,-2.3677,-2.411,-2.4153,-2.4239,-2.4497,-2.3787,-2.357,-2.4013,-2.3396,-2.2818,-2.2413,-2.1863,-2.0927,-1.9605,-1.9105,-1.873,-1.8459,0.0,0.0,0.0,0.0,0.0,0.0,0.0,0.0,0.0,0.0,0.0,0.0,0.0,0.0,0.0,0.0,0.0,0.0,0.0,0.0,0.0,0.0,0.0,-2.1324,-2.1344,-2.1431,-2.1209,-2.1583,-2.2096,-2.2697,-2.2905,-2.3335,-2.408,-2.4127,-2.4116,-2.4043,-2.3298,-2.2889,-2.2911,-2.2176,-2.1787,-2.1845,-2.1883,-2.2112,-2.249,-2.249,-2.2718,-2.3092,-2.3953,-2.4349,-2.4388,-2.5317,-2.5739,-2.5739,-2.575,-2.5761,-2.5761,-2.5739,-2.5739,-2.5739,-2.575,-2.5723,-2.5792,-2.6233,-2.5822,-2.5077,-2.5083,-2.4006,-2.2614,-2.2176,-2.1419,-2.0699,-2.0699,-2.0518,-2.0292,-2.0292,-2.0292,-2.0292,-2.0292,-2.0871,-2.1356,-2.1356,-2.1872,-2.2536,-2.3276,-2.2818,-2.258,-2.3406,-2.3547,-2.3353,-2.2824,-2.3212,0.0,-2.1917,-2.2818,-2.3503,-2.3503,-2.3503,-2.3764,-2.4411,-2.2755,-2.2501,-2.4358,-2.2931,-2.258,-2.3711,-2.2199,-2.08,-1.9579,-1.9101,-1.9675,-2.1347,0.0,0.0,0.0,0.0,0.0,0.0,0.0,0.0,0.0,0.0,0.0,0.0,0.0,0.0,0.0,0.0,0.0,0.0,0.0,0.0,0.0,0.0,-2.2103,-2.2355,-2.2984,-2.3423,-2.3338,-2.346,-2.3618,-2.3776,-2.3849,-2.3471,-2.2521,-2.2446,-2.1945,-2.0721,-2.0459,-2.0449,-2.0737,-2.1204,-2.1857,-2.2739,-2.341,-2.4121,-2.4781,-2.4781,-2.4859,-2.4982,-2.5228,-2.5344,-2.5356,-2.6016,-2.6255,-2.6329,-2.6657,-2.6777,-2.6732,-2.6404,-2.6255,-2.6301,-2.668,-2.6339,-2.5623,-2.4451,-2.4079,-2.3972,-2.2824,-2.2344,-2.2122,-2.1329,-2.088,-2.0654,-2.0473,-2.0382,-2.0292,-2.0292,-2.0292,-2.0292,-2.0292,-2.0473,-2.06,-2.06,-2.0736,-2.0952,-2.1141,-2.1006,-2.157,-2.3841,-2.4239,-2.4186,-2.4046,0.0,0.0,-2.3787,-2.4013,-2.3874,-2.3018,-2.2931,-2.3008,-2.3183,-2.257,-2.2711,0.0,-2.3396,-2.3135,-2.3266,-2.2862,-2.2031,-2.0845,-2.0014,-1.994,0.0,0.0,0.0,0.0,0.0,0.0,0.0,0.0,0.0,0.0,0.0,0.0,0.0,0.0,0.0,0.0,0.0,0.0,0.0,0.0,0.0,0.0,-2.1989,-2.2226,-2.3401,-2.3911,-2.42,-2.42,-2.4273,-2.4309,-2.4309,-2.4309,-2.397,-2.3117,-2.2979,-2.2633,-2.1976,-2.158,-2.1597,-2.206,-2.227,-2.2672,-2.3313,-2.3844,-2.4389,-2.4955,-2.4955,-2.5025,-2.5224,-2.5596,-2.5745,0.0,-2.6485,-2.6783,-2.6806,-2.7105,-2.719,0.0,0.0,0.0,0.0,0.0,-2.6839,-2.6227,-2.52,-2.4988,-2.5041,-2.392,-2.3541,-2.341,-2.2648,-2.2208,-2.1854,-2.1204,-2.0988,-2.0907,-2.0419,-2.0292,-2.0292,-2.0292,-2.0292,-2.0292,-2.0292,-2.0292,-2.0382,-2.069,0.0,0.0,-2.329,-2.3387,-2.3125,-2.2896,-2.3212,-2.3299,0.0,-2.2984,-2.3071,-2.2765,-2.235,-2.2394,-2.3105,-2.2315,0.0,0.0,0.0,-2.2633,-2.2359,-2.2359,0.0,0.0,0.0,-2.061,0.0,0.0,0.0,0.0,-2.0335,-1.9949,0.0,0.0,0.0,0.0,0.0,0.0,0.0,0.0,0.0,0.0,0.0,0.0,0.0,0.0,0.0,0.0,-2.2253,-2.2489,-2.4141,-2.4236,-2.4164,-2.4236,-2.4418,-2.4538,-2.4538,-2.4538,-2.4585,-2.4716,-2.4571,-2.4755,-2.5378,0.0,0.0,0.0,0.0,-2.4038,-2.3883,-2.3964,-2.4096,-2.4282,-2.4282,-2.4472,-2.484,-2.5621,-2.5955,-2.5997,-2.6839,-2.719,-2.719,-2.719,-2.719,-2.719,-2.719,-2.719,-2.719,-2.719,-2.7138,0.0,0.0,0.0,0.0,-2.6404,-2.5883,-2.5316,-2.4882,-2.4318,-2.3577,-2.2473,-2.212,-2.1863,-2.0817,-2.0555,-2.0555,-2.0555,-2.0464,-2.0436,-2.0479,-2.0397,-2.0596,-2.1392,-2.1446,-2.1617,-2.2323,-2.1937,-2.1347,-2.0853,-2.1607,0.0,-2.0661,-2.1049,-2.1743,-2.2441,0.0,0.0,-2.3262,-2.1832,-2.1608,-2.3447,-2.2457,-2.1751,-2.1597,-2.1588,-2.1481,-2.123,-2.123,-2.165,-2.2441,-2.2489,-2.2375,-2.2162,-2.1472,-2.1239,0.0,0.0,0.0,0.0,0.0,0.0,0.0,0.0,0.0,0.0,0.0,0.0,0.0,0.0,0.0,-2.1019,-2.1298,-2.1897,-2.3463,-2.3717,-2.3897,-2.4381,-2.461,-2.4754,-2.4754,-2.4754,-2.4653,-2.4396,-2.4356,-2.4305,-2.4242,-2.4057,0.0,-2.4578,-2.5026,-2.5407,-2.5692,-2.6207,-2.652,-2.6569,0.0,0.0,-2.6674,-2.6839,-2.6921,-2.6921,-2.7108,-2.719,-2.719,-2.719,-2.719,-2.719,-2.719,-2.719,-2.719,-2.719,-2.6704,-2.6091,-2.6091,-2.5631,-2.5009,-2.4925,-2.4787,-2.4659,-2.4339,-2.4125,0.0,-2.3086,-2.2877,-2.2746,-2.2129,-2.1996,-2.1996,-2.1996,-2.157,-2.1266,-2.1542,-2.1171,-2.1081,-2.2173,-2.1852,-2.1663,-2.2414,-2.2362,-2.2173,-2.2094,-2.2473,-2.2608,-2.1916,-2.2179,-2.1986,-2.076,-2.0436,-2.0475,-2.0808,-2.0349,-2.0587,-2.1948,-2.2378,-2.2797,-2.3304,-2.3329,-2.3121,-2.2687,-2.2677,-2.2696,-2.2706,-2.3051,-2.2979,-2.2572,-2.2111,-2.1785,0.0,0.0,0.0,0.0,0.0,0.0,0.0,0.0,0.0,0.0,0.0,-1.9152,0.0,0.0,-1.9913,-2.1735,-2.1451,-2.1756,-2.3852,-2.3888,-2.3936,-2.4562,-2.4814,-2.4957,-2.4957,-2.5157,-2.5284,-2.5189,-2.5344,-2.5562,-2.5784,-2.5818,-2.5956,-2.6334,-2.6691,-2.6869,-2.6846,-2.7472,-2.7693,-2.761,-2.7851,-2.7966,-2.7966,-2.7966,-2.7966,-2.7966,-2.7966,-2.7966,-2.7966,-2.7966,-2.8126,-2.8367,-2.8367,-2.7855,-2.7213,-2.7518,-2.7296,-2.692,-2.7155,-2.699,-2.6605,-2.6605,-2.6605,-2.6605,-2.6465,-2.6411,-2.6293,-2.5641,-2.5437,-2.5265,-2.4398,-2.4181,-2.4144,-2.383,-2.3514,-2.3289,-2.3456,-2.3217,-2.3185,-2.3723,-2.351,-2.3365,-2.376,-2.3796,-2.3317,-2.2088,-2.2425,-2.2735,-2.249,-2.2285,-2.2034,-2.1649,-2.09,-2.0529,-2.0883,-2.0661,-2.0755,-2.1371,-2.18,-2.2373,-2.3268,-2.3304,-2.3438,-2.3734,-2.3734,-2.3689,-2.3599,-2.3813,-2.3736,-2.3415,-2.3207,-2.2793,0.0,0.0,0.0,0.0,0.0,0.0,0.0,0.0,-1.942,-1.942,-1.942,-1.9618,-2.0274,-2.0001,-2.0372,-2.2526,-2.1886,-2.1973,-2.4286,-2.4179,-2.4166,-2.4955,-2.5111,-2.5182,-2.529,-2.5648,-2.6018,-2.6394,-2.6677,-2.7117,-2.781,-2.7873,-2.7987,-2.8247,-2.8314,-2.816,-2.7784,-2.8279,-2.8421,-2.8295,-2.8645,-2.883,-2.883,-2.8786,-2.8798,-2.8798,-2.8815,-2.885,-2.8861,-2.8953,-2.9251,-2.9642,-2.9642,-2.8884,-2.7809,-2.8161,-2.8276,-2.831,-2.8597,-2.87,-2.8712,-2.8827,-2.885,-2.8873,-2.8964,-2.8999,-2.8849,-2.8296,-2.8134,-2.7891,-2.6707,-2.6426,-2.6282,-2.5674,-2.5441,-2.5362,-2.54,-2.5321,-2.5291,-2.5525,-2.5436,-2.5387,-2.5535,-2.5436,-2.4611,-2.2456,-2.2775,-2.318,-2.2925,-2.24,-2.2324,-2.2994,-2.1915,-2.1383,-2.2046,-2.1642,-2.1416,-2.1661,-2.1661,-2.2113,-2.3101,-2.3387,-2.3843,-2.4631,-2.4631,-2.4631,-2.4631,-2.4756,-2.4664,-2.4476,-2.4563,-2.4051,-1.952,-1.9429,-1.9606,-1.9606,-1.9715,-1.9824,0.0,0.0,-1.9824,-1.9824,-1.9824,-1.9863,-1.9942,-2.0459,-2.0981,-2.1288,-2.1952,-2.2739,-2.3756,-2.4,-2.4547,-2.5804,-2.5565,-2.5457,-2.5925,-2.6033,-2.6465,-2.7464,-2.7558,-2.7822,-2.839,-2.8426,-2.841,-2.8471,-2.8753,-2.8869,-2.8827,-2.9129,-2.9272,-2.9218,-2.9277,-2.9312,-2.9312,-2.9153,-2.9036,-2.9071,-2.9305,-2.9412,-2.9435,-2.9871,-3.0078,-3.0135,-3.0135,-3.0032,-2.9837,-2.947,-2.9332,-2.9263,-2.885,-2.87,-2.8781,-2.9251,-2.9412,-2.9493,-2.9917,-3.0044,-2.992,-2.9498,-2.9383,-2.9165,-2.8139,-2.7867,-2.7726,-2.7204,-2.6572,-2.618,-2.6547,-2.608,-2.5927,-2.697,-2.6633,-2.6369,-2.7038,-2.6582,-2.5828,-2.4835,-2.5081,-2.4894,-2.3653,-2.3739,-2.3669,-2.2975,-2.2764,-2.2906,-2.3504,-2.2559,-2.2315,-2.3252,-2.3305,-2.3669,-2.4359,-2.5438,-2.5878,-2.5547,-2.5538,-2.5538,-2.5538,-2.5977,-2.6014,-2.5825,-2.6141,-2.5349,-1.9814,-1.9636,0.0,0.0,-1.9942,-1.9902,-1.9902,-1.9902,-1.9902,-1.9902,-1.9902,-2.005,-2.0498,-2.0875,-2.1431,0.0,-2.3036,-2.3635,-2.4552,-2.5014,-2.5467,-2.6033,-2.619,-2.6309,-2.6525,-2.6863,-2.7236,-2.7654,-2.8005,-2.827,-2.8498,-2.851,-2.8603,-2.8781,-2.8927,-2.9053,-2.9236,-2.9671,-2.9887,-2.9887,-3.0161,-3.0314,-3.0314,-3.0238,-3.0358,-3.065,-3.1074,-3.125,-3.1228,-3.1287,-3.1506,-3.1772,-3.1583,-3.1731,-3.1869,-3.0778,-3.0376,-3.0388,-3.0457,-3.048,-3.0503,-3.0744,-3.0813,-3.0859,-3.1042,-3.1111,-3.1133,-3.1278,-3.131,-3.1188,-3.0732,-3.0613,-3.0368,-2.9526,-2.9115,-2.8816,-2.8676,-2.841,-2.8357,-2.8807,-2.8682,-2.8579,-2.8837,-2.8682,-2.8344,-2.8025,-2.7026,-2.6154,-2.5512,-2.5483,-2.5237,-2.4527,-2.4328,-2.4198,-2.4322,-2.3689,-2.3402,-2.3684,-2.3737,-2.4132,-2.5027,-2.554,-2.6044,-2.6434,-2.6484,-2.6484,-2.6484,-2.666,-2.6697,-2.6596,-2.6771,-2.642,-1.9902,0.0,0.0,-2.0225,-2.0186,-2.0098,-2.0098,-2.0098,-2.0098,-2.0098,-2.0098,-2.0323,-2.1145,-2.1479,-2.2113,-2.3635,-2.4072,-2.4539,-2.5397,-2.5853,-2.6202,-2.6514,-2.6861,-2.7174,-2.7318,-2.7546,-2.775,-2.7933,-2.8294,-2.851,-2.851,-2.8655,-2.8814,-2.9075,-2.9362,-2.9612,-2.9823,-3.0344,-3.0604,-3.0604,-3.1007,-3.1279,-3.1433,-3.1473,-3.1687,-3.196,-3.2477,-3.27,-3.2712,-3.2674,-3.2906,-3.3184,-3.2952,-3.3096,-3.3254,-3.2041,-3.1547,-3.1456,-3.1685,-3.1754,-3.1766,-3.1915,-3.2009,-3.1984,-3.2121,-3.2179,-3.2259,-3.2615,-3.2707,-3.2677,-3.247,-3.2409,-3.2106,-3.1043,-3.0785,-3.064,-3.0141,-2.9994,-2.9994,-2.9994,-2.9994,-2.9994,-2.9994,-2.9994,-2.9994,-2.9994,-2.8693,-2.7583,-2.7372,-2.7141,-2.6825,-2.6372,-2.626,-2.6139,-2.5952,-2.5307,-2.488,-2.4686,-2.4588,-2.4907,-2.5656,-2.6033,-2.6565,-2.7363,-2.7373,-2.7373,-2.7373,-2.7043,-2.6985,-2.7197,-2.6869,-2.6811,0.0,0.0,-2.0264,-2.0303,-2.0459,-2.0566,-2.0566,-2.0566,-2.0566,-2.0566,-2.0566,-2.0828,-2.1652,-2.2435,-2.3206,-2.3975,-2.4755,-2.5457,-2.5997,-2.6093,-2.649,-2.7548,-2.7654,-2.7858,0.0,-2.8017,-2.7933,-2.845,-2.8498,-2.851,-2.851,-2.8991,-2.928,-2.9304,-3.029,-3.0843,-3.0843,-3.1372,-3.1637,-3.1637,-3.1661,-3.1949,-3.2445,-3.2741,-3.2734,-3.25,-3.3053,-3.3277,-3.3324,-3.3805,-3.404,-3.4052,-3.3755,-3.3668,-3.363,-3.3335,-3.2879,-3.2374,-3.1974,-3.1813,-3.1894,-3.2317,-3.2466,-3.2558,-3.3074,-3.3235,-3.3247,-3.3258,-3.3258,-3.3158,-3.2572,-3.2409,-3.2106,-3.1043,-3.0785,-3.064,-3.0141,-2.9994,-2.9994,-2.9994,-2.9994,-2.9994,-2.9994,-2.9994,-2.9994,-2.9994,-2.9931,-2.9596,-2.8721,-2.8432,-2.8237,-2.8237,-2.8688,-2.9006,-2.8943,-2.7669,-2.6833,-2.6833,-2.658,-2.6436,-2.649,-2.759,-2.8252,-2.8252,-2.8252,-2.8252,-2.8252,-2.7096,-2.6899,-2.7646,-2.6461,-2.6299,0.0,0.0,-2.0342,-2.0459,-2.0566,-2.0605,-2.0605,-2.0605,-2.0605,-2.0605,-2.0605,-2.0867,-2.1652,-2.2021,-2.2472,-2.3243,-2.4322,-2.5173,-2.552,-2.6494,-2.7346,-2.7849,-2.8108,0.0,0.0,0.0,0.0,-2.8498,-2.851,-2.851,-2.851,-2.9015,-2.946,-2.9809,-3.0549,-3.1091,-3.144,-3.1621,-3.1705,-3.1717,-3.2046,-3.2503,-3.3044,-3.3443,-3.3576,-3.3517,-3.4042,-3.4317,-3.428,-3.4313,-3.4298,-3.4249,-3.3878,-3.3679,-3.3679,-3.3381,-3.3166,-3.2994,-3.2833,-3.2825,-3.2799,-3.296,-3.3017,-3.3051,-3.3224,-3.3281,-3.3281,-3.3281,-3.3281,-3.3231,-3.3069,-3.3008,-3.2807,-3.2066,-3.1852,-3.1607,-3.0744,-3.0536,-3.0443,-3.0047,-2.9994,-2.9994,-2.9994,-2.9994,-2.9994,-2.9994,-2.9994,-2.9889,-2.9617,-2.9459,-2.9416,-2.9416,-2.9574,-2.9617,-2.9448,-2.9006,-2.8518,-2.8111,-2.8014,-2.7906,-2.7682,-2.8067,-2.8291,-2.8291,-2.8018,-2.7881,-2.7881,-2.7151,-2.6627,-2.6172,-2.5746,-2.5297,0.0,-2.0342,-2.0459,-2.0566,-2.0605,-2.0605,-2.0605,-2.0605,-2.0605,-2.0605,-2.0605,-2.0867,-2.1652,-2.2086,-2.2515,-2.3112,-2.4448,-2.5501,-2.5762,-2.6878,-2.7927,-2.8485,-2.8521,0.0,0.0,0.0,0.0,-2.851,-2.851,-2.8595,-2.8787,-2.9292,-2.9821,-3.035,-3.0922,-3.1356,-3.1705,-3.1705,-3.1813,-3.1973,-3.2707,-3.3224,-3.3573,-3.4042,-3.4282,-3.4294,-3.4631,-3.4775,-3.4775,-3.4628,-3.4531,-3.4482,-3.4113,-3.3915,-3.3828,-3.353,-3.3381,-3.3281,-3.3281,-3.3281,-3.3281,-3.3281,-3.3281,-3.3281,-3.3281,-3.3281,-3.3281,-3.3281,-3.3281,-3.3281,-3.3281,-3.3281,-3.317,-3.2521,-3.2409,-3.2106,-3.1043,-3.0785,-3.064,-3.0088,-2.9994,-2.9994,-2.9994,-2.9994,-2.9994,-2.9994,-2.9994,-2.9994,-2.9994,-2.9994,-2.9994,-2.9994,-2.9994,-2.9942,-2.9774,-2.9554,-2.9248,-2.8887,-2.8536,-2.8288,-2.8066,-2.792,-2.7832,-2.7832,-2.7568,-2.7432,-2.7432,-2.6347,-2.5563,-2.5176,-2.4321,-2.3722,-2.0303,-2.045,-2.0605,-2.0605,-2.0605,-2.0605,-2.0605,-2.0605,-2.0605,-2.0605,-2.0605,-2.0838,0.0,0.0,-2.3282,-2.3531,-2.5182,-2.6489,-2.6687,-2.7316,-2.8204,0.0,0.0,0.0,0.0,0.0,0.0,-2.851,0.0,-2.8739,-2.9268,-2.9797,-3.0338,-3.0898,-3.1428,-3.1705,-3.1705,-3.1741,-3.1997,-3.2599,-3.3526,-3.4006,-3.4054,-3.4546,-3.4775,-3.4775,-3.4775,-3.4775,-3.4775,-3.4775,-3.4775,-3.4775,-3.4482,-3.4298,-3.4075,-3.3779,-3.353,-3.3331,-3.3281,-3.3281,-3.3281,-3.3281,-3.3281,-3.3281,-3.3281,-3.3281,-3.3281,-3.3281,-3.3281,-3.3281,-3.3281,-3.3281,-3.317,-3.2572,-3.242,-3.2106,-3.1094,-3.0836,-3.064,-3.0151,-2.9994,-2.9994,-2.9994,-2.9994,-2.9994,-2.9994,-2.9994,-2.9994,-2.9994,-2.9994,-2.9994,-2.9994,-2.9994,-2.9984,-2.9963,-2.9428,-2.9092,-2.9061,-2.8219,-2.7689,-2.7689,-2.7236,-2.7012,-2.7012,-2.6992,-2.6982,-2.6982,-2.4724,-2.4008,-2.4652,-2.242,-2.1713,-2.0527,-2.0566,-2.0605,-2.0605,-2.0605,-2.0605,-2.0605,-2.0605,-2.0605,-2.0605,-2.0605,-2.0742,0.0,0.0,0.0,-2.3448,-2.549,0.0,-2.726,-2.8017,0.0,-2.9172,0.0,-2.8773,-2.8906,-2.894,0.0,0.0,-2.8578,-2.8739,-2.9268,-2.9797,-3.0338,-3.0898,-3.1428,-3.1705,-3.1705,-3.2082,-3.2743,-3.3598,-3.3874,-3.4198,-3.4583,-3.4715,-3.4775,-3.4775,-3.4775,-3.4775,-3.4775,-3.4775,-3.4775,-3.4775,-3.4482,-3.4384,-3.4249,-3.3866,-3.3679,-3.358,-3.3381,-3.3281,-3.3281,-3.3281,-3.3281,-3.3281,-3.3281,-3.3281,-3.3281,-3.3281,-3.3281,-3.3281,-3.3281,-3.3281,-3.3281,-3.3119,-3.2745,-3.2308,-3.2055,-3.1341,-3.0733,-3.064,-3.0287,-2.9994,-2.9994,-2.9994,-2.9994,-2.9994,-2.9994,-2.9994,-2.9994,-2.9994,-2.9994,-2.9994,-2.9994,-2.986,-2.9508,-2.9322,-2.8921,-2.8176,-2.7892,-2.7587,-2.7178,-2.707,-2.7012,-2.7012,-2.6709,-2.6543,-2.6543,-2.4807,-2.3693,-2.3042,-2.1679,-2.0723,-2.0605,-2.0605,-2.0605,-2.0605,-2.0605,-2.0605,-2.0605,-2.0605,-2.0605,-2.0605,-2.0723,0.0,0.0,0.0,0.0,0.0,0.0,0.0,-2.7762,-2.8427,-2.9086,0.0,-2.9187,0.0,-2.9251,-2.9187,-2.9052,0.0,-2.8816,-2.9036,-2.9605,-3.0013,-3.0519,-3.1247,-3.1548,-3.1825,-3.2034,-3.2791,-3.3418,-3.3994,-3.4234,-3.4498,-3.4775,-3.4775,-3.4775,-3.4775,0.0,-3.4775,-3.4775,-3.4775,-3.4775,-3.4775,-3.4628,-3.4482,-3.4384,-3.4101,-3.3866,-3.3679,-3.353,-3.3381,-3.3281,-3.3281,-3.3281,-3.3281,-3.3281,-3.3281,-3.3281,-3.3281,-3.3281,-3.3281,-3.3281,-3.3281,-3.3281,-3.3281,-3.3058,-3.2645,-3.2167,-3.1761,-3.1341,-3.0888,-3.0391,-2.9994,-2.9994,-2.9994,-2.9994,-2.9994,-2.9818,-2.9694,-2.9694,-2.9694,-2.9694,-2.9694,-2.9508,-2.929,-2.9021,-2.8859,-2.8594,-2.7996,-2.7683,-2.7322,-2.693,-2.6693,-2.6545,-2.6455,-2.6221,-2.6103,-2.6103,-2.477,-2.3791,-2.3194,-2.1633,-2.0585,-2.0605,-2.0605,-2.0605,-2.0605,-2.0605,-2.0605,-2.0605,-2.0605,-2.0605,-2.0605,0.0,-2.121,-2.1268,0.0,-2.4827,-2.4538,0.0,-2.8348,-2.8314,-2.87,-2.9251,-2.9985,-2.952,-2.9315,-2.9782,-2.9453,-2.917,-2.9131,-2.9244,-2.9564,-3.0121,-3.0368,-3.0864,-3.1681,-3.1777,-3.2046,-3.2599,-3.3514,-3.403,-3.4102,-3.4558,-3.4775,-3.4775,-3.4775,-3.4775,-3.4775,0.0,0.0,-3.4775,-3.4775,-3.4775,-3.4775,-3.4775,-3.4677,-3.4433,-3.4384,-3.4101,-3.3729,-3.3679,-3.3481,-3.3281,-3.3281,-3.3281,-3.3281,-3.3281,-3.3281,-3.3281,-3.3281,-3.3281,-3.3281,-3.3281,-3.3231,-3.3181,-3.3181,-3.3131,-3.2818,-3.1874,-3.2066,-3.2055,-3.0991,-3.0443,-3.0099,-2.9994,-2.9942,-2.9901,-2.9901,-2.9508,-2.9208,-2.9208,-2.9208,-2.9208,-2.9208,-2.8856,-2.8587,-2.8524,-2.8285,-2.8115,-2.8014,-2.7429,-2.6961,-2.6725,-2.6299,-2.5955,-2.5693,-2.5693,-2.5693,-2.5693,-2.4599,-2.4038,-2.384,-2.1836,-2.0834,-2.0605,-2.0605,-2.0605,-2.0605,-2.0605,-2.0605,-2.0605,-2.0605,0.0,0.0,0.0,-2.1307,-2.1709,-2.3186,0.0,-2.5901,0.0,0.0,0.0,0.0,-2.8578,0.0,0.0,0.0,0.0,0.0,0.0,0.0,0.0,0.0,-3.0367,-3.0792,-3.1271,-3.1693,-3.2118,-3.2611,-3.3152,-3.3694,-3.421,-3.4643,-3.4787,-3.4775,-3.4775,-3.4775,-3.4775,-3.4775,0.0,0.0,-3.4775,-3.4775,-3.4775,-3.4775,-3.4775,-3.4775,-3.4677,-3.431,-3.4125,-3.3977,-3.353,-3.3331,-3.3281,-3.3281,-3.3281,-3.3281,-3.3281,-3.3281,-3.3281,-3.3281,-3.3281,-3.3281,-3.3281,-3.2908,-3.2572,-3.2572,-3.2229,-3.1975,-3.2218,-3.2308,-3.2055,-3.0991,-3.0744,-3.0536,-3.0099,-2.9673,-2.9425,-2.9425,-2.9032,-2.8731,-2.8731,-2.8731,-2.8731,-2.8731,-2.8659,-2.8452,-2.8069,-2.7999,-2.7698,-2.7156,-2.7005,-2.6714,-2.6258,-2.614,-2.5955,-2.5693,-2.5693,-2.5693,-2.5693,-2.4599,-2.3642,-2.2743,-2.1489,-2.0431,-2.0605,-2.0605,-2.0605,-2.0605,-2.0605,-2.0605,-2.0605,0.0,0.0,0.0,0.0,-2.1709,-2.2139,0.0,0.0,0.0,0.0,0.0,0.0,0.0,0.0,0.0,0.0,0.0,0.0,0.0,0.0,0.0,0.0,0.0,-3.0629,-3.1369,-3.1923,-3.2126,-3.2747,-3.3244,-3.3669,-3.415,-3.4534,-3.4775,-3.4775,-3.4775,-3.4775,-3.4775,-3.4775,-3.4775,0.0,0.0,-3.4775,-3.4775,-3.4775,-3.4775,-3.4775,-3.4775,-3.4775,-3.4543,-3.4396,-3.42,-3.3953,-3.3717,-3.353,-3.353,-3.3431,-3.3281,-3.3281,-3.3281,-3.3281,-3.3281,-3.3281,-3.3281,-3.3281,-3.3069,-3.2796,-3.2471,-3.1761,-3.1311,-3.1863,-3.1556,-3.1105,-3.0836,-3.0398,-2.9931,-2.9684,-2.9259,-2.8949,-2.8949,-2.8556,-2.8255,-2.8255,-2.8048,-2.7997,-2.8235,-2.8048,-2.7821,-2.7603,-2.7583,-2.7441,-2.7139,-2.7129,-2.688,-2.6342,-2.6304,-2.611,-2.5684,-2.5693,-2.5693,-2.5693,-2.5177,-2.4667,-2.4115,-2.2492,-2.1438,-2.0644,-2.0644,-2.0605,-2.0722,-2.0644,-2.0605,-2.0644,-2.0644,0.0,0.0,-2.1582,-2.2012,-2.2432,0.0,0.0,0.0,0.0,0.0,0.0,0.0,0.0,0.0,0.0,0.0,0.0,0.0,0.0,0.0,0.0,0.0,0.0,-3.197,-3.2491,-3.2569,-3.3276,-3.3808,-3.3982,-3.451,-3.4775,-3.4775,-3.4775,-3.4775,-3.4775,-3.4775,-3.4775,-3.4775,0.0,0.0,0.0,-3.4775,-3.4775,-3.4775,-3.4775,-3.4775,-3.4775,-3.4738,-3.458,-3.4384,-3.4347,-3.4064,-3.3679,-3.3679,-3.353,-3.3281,-3.3281,-3.3281,-3.3281,-3.3281,-3.3281,-3.3281,-3.3281,-3.322,-3.2958,-3.2381,-3.1607,-3.1105,-3.1516,-3.0886,-3.0296,-3.0584,-2.9917,-2.9258,-2.9156,-2.8773,-2.8462,-2.8462,-2.8079,-2.7779,-2.7779,-2.7479,-2.7444,-2.7738,-2.7469,-2.7309,-2.7309,-2.7309,-2.7309,-2.7309,-2.7309,-2.7071,-2.6496,-2.6496,-2.6265,-2.5684,-2.5693,-2.5693,-2.5693,-2.5693,-2.5586,-2.5323,-2.3651,-2.2627,-2.0819,-2.0731,-2.0683,-2.1041,-2.0886,-2.0644,-2.0819,0.0,0.0,-2.1103,-2.1582,-2.2012,-2.2432,-2.2895,-2.3594,0.0,0.0,0.0,0.0,0.0,0.0,0.0,0.0,0.0,0.0,0.0,0.0,0.0,0.0,0.0,0.0,-3.2391,-3.2791,-3.2783,-3.3546,-3.3994,-3.3994,-3.451,-3.4775,-3.4775,-3.4775,-3.4775,-3.4775,-3.4775,-3.4775,-3.4775,0.0,0.0,0.0,-3.4775,-3.4775,-3.4775,-3.4775,-3.4775,-3.4775,-3.4531,-3.4433,-3.4384,-3.4211,-3.3927,-3.3679,-3.3679,-3.353,-3.3281,-3.3281,-3.3281,-3.3281,-3.3281,-3.3281,-3.3281,-3.3281,-3.2908,-3.237,-3.1823,-3.1618,-3.1516,-3.1578,-3.1179,-3.0712,-3.0248,-2.9735,-2.9228,-2.873,-2.8297,-2.7937,-2.7937,-2.7603,-2.7372,-2.7372,-2.733,-2.732,-2.7361,-2.733,-2.7309,-2.7309,-2.7309,-2.7309,-2.7309,-2.7309,-2.7071,-2.6496,-2.6496,-2.6265,-2.5684,-2.5693,-2.5693,-2.5693,-2.5693,-2.5226,-2.4245,-2.4038,-2.3077,-2.0867,-2.0829,-2.0819,-2.0984,-2.0896,-2.0819,-2.0867,0.0,0.0,-2.1533,-2.1963,-2.2435,-2.2994,-2.3254,-2.357,0.0,0.0,0.0,0.0,0.0,0.0,0.0,0.0,0.0,0.0,0.0,0.0,0.0,0.0,0.0,0.0,-3.2934,-3.3629,-3.4007,-3.4495,-3.4721,-3.4715,-3.4921,-3.4981,-3.4775,-3.4775,-3.4775,-3.4775,-3.4775,-3.4775,-3.4775,0.0,0.0,0.0,-3.4775,-3.4775,-3.4775,-3.4775,-3.4775,-3.4775,-3.4677,-3.4628,-3.4628,-3.4543,-3.4347,-3.4101,-3.3977,-3.3779,-3.353,-3.3331,-3.3281,-3.3281,-3.3281,-3.3281,-3.3281,-3.3281,-3.2846,-3.2258,-3.1721,-3.1362,-3.0979,-3.0342,-3.009,-2.9766,-2.9281,-2.8812,-2.8439,-2.8193,-2.7821,-2.7521,-2.7521,-2.7423,-2.7309,-2.7309,-2.7309,-2.7309,-2.7309,-2.7309,-2.7309,-2.7309,-2.7309,-2.7309,-2.7309,-2.7309,-2.7071,-2.6496,-2.5897,-2.5606,-2.5693,-2.5069,-2.5069,-2.5693,-2.5693,-2.5615,-2.545,-2.4052,-2.3186,-2.0935,-2.0945,-2.0945,-2.1128,-2.1022,-2.0946,0.0,0.0,-2.1396,-2.2046,-2.2441,-2.2817,-2.3467,-2.359,-2.3677,0.0,0.0,0.0,0.0,0.0,0.0,0.0,0.0,0.0,0.0,0.0,0.0,0.0,0.0,0.0,0.0,-3.3533,-3.4395,-3.4878,-3.5157,-3.5334,-3.532,-3.532,-3.5223,-3.503,-3.4981,-3.4932,-3.4932,-3.4823,-3.4775,0.0,0.0,0.0,0.0,-3.4775,-3.4775,-3.4775,-3.4775,-3.4775,-3.4775,-3.4775,-3.4775,-3.4775,-3.4775,-3.4628,-3.4384,-3.4162,-3.3927,-3.363,-3.3381,-3.3281,-3.3281,-3.3281,-3.3281,-3.3281,-3.3281,-3.2958,-3.2533,-3.1975,-3.1458,-3.0804,-2.9772,-2.9337,-2.9005,-2.8473,-2.8038,-2.7728,-2.7728,-2.7469,-2.7309,-2.7309,-2.7309,-2.7309,-2.7309,-2.7309,-2.7309,-2.7309,-2.7309,-2.7309,-2.7309,-2.7309,-2.7309,-2.7309,-2.7309,-2.7071,-2.6496,-2.579,-2.5353,-2.5226,-2.4815,-2.4805,-2.5226,-2.5664,-2.6084,-2.6337,-2.4891,-2.4052,-2.1089,-2.1061,-2.1051,-2.1655,-2.1359,-2.1054,0.0,0.0,-2.1515,-2.2639,-2.2901,-2.3083,-2.3674,-2.3797,-2.3711,-2.3547,0.0,0.0,0.0,0.0,0.0,0.0,0.0,0.0,0.0,0.0,0.0,0.0,0.0,0.0,0.0,0.0,-3.484,-3.5183,-3.548,-3.5608,-3.562,-3.562,-3.5572,-3.5572,-3.532,-3.5223,-3.5175,-3.4932,0.0,0.0,0.0,0.0,0.0,-3.4775,-3.4775,-3.4775,-3.4775,-3.4775,-3.4775,-3.4775,-3.4775,-3.4775,-3.4775,-3.4628,-3.4384,-3.4162,-3.3927,-3.363,-3.3381,-3.3281,-3.3281,-3.3281,-3.3281,-3.3281,-3.3281,-3.3281,-3.3119,-3.2533,-3.2012,-3.1406,-3.0335,-2.9359,-2.8566,-2.8032,-2.7572,-2.732,-2.732,-2.7309,-2.7309,-2.7309,-2.7309,-2.7309,-2.7309,-2.7309,-2.7309,-2.7309,-2.7309,-2.7309,-2.7309,-2.7309,-2.7309,-2.7309,-2.7309,-2.7071,-2.6496,-2.6496,-2.5742,-2.4137,-2.5167,-2.5167,-2.4137,-2.5647,-2.6387,-2.6396,-2.6766,-2.5945,-2.0935,-2.0945,-2.0984,-2.132,-2.1359,-2.1451,-2.1947,0.0,-2.249,-2.301,-2.33,-2.3637,-2.3993,-2.4067,-2.4272,-2.4956,-2.4509,0.0,0.0,0.0,0.0,0.0,0.0,0.0,0.0,0.0,0.0,0.0,0.0,0.0,0.0,0.0,-3.5107,-3.5987,-3.6093,-3.6038,-3.5872,-3.586,-3.5764,-3.562,-3.532,-3.5223,-3.5175,-3.4932,0.0,0.0,0.0,0.0,0.0,-3.4775,-3.4775,-3.4775,-3.4775,-3.4775,-3.4775,-3.4775,-3.4775,-3.4775,-3.4775,-3.4726,-3.4628,-3.4396,-3.4162,-3.3927,-3.363,-3.3431,-3.3281,-3.3281,-3.3281,-3.3281,-3.3281,-3.3281,-3.3089,-3.2117,-3.1815,-3.1327,-2.99,-2.9144,-2.8556,-2.8036,-2.763,-2.7309,-2.7309,-2.7309,-2.7309,-2.7309,-2.7309,-2.7309,-2.7309,-2.7309,-2.7309,-2.7309,-2.7309,-2.7309,-2.7309,-2.7309,-2.7309,-2.7309,-2.7309,-2.7119,-2.6794,-2.6071,-2.5625,-2.5489,-2.5099,-2.5153,-2.5657,-2.6159,-2.6275,-2.6044,-2.6455,-2.5496,0.0,-2.1025,-2.1183,-2.1495,-2.167,0.0,0.0,0.0,-2.3036,-2.3493,-2.3788,-2.4024,-2.4282,-2.4325,-2.4605,-2.5537,0.0,0.0,0.0,0.0,0.0,0.0,0.0,0.0,0.0,0.0,0.0,0.0,0.0,0.0,0.0,0.0,-3.4826,-3.5717,-3.6191,-3.6323,-3.6146,-3.6146,-3.6098,-3.5895,-3.562,-3.5512,-3.5464,0.0,0.0,0.0,0.0,0.0,0.0,-3.4775,-3.4775,-3.4775,-3.4775,-3.4775,-3.4775,-3.4775,-3.4775,-3.4775,-3.4775,-3.4775,-3.4775,-3.4482,-3.4249,-3.4026,-3.3779,-3.353,-3.3281,-3.3281,-3.3281,-3.3281,-3.3281,-3.3132,-3.2853,-3.2177,-3.1728,-3.1131,-2.9932,-2.9171,-2.8576,-2.8098,-2.7631,-2.7309,-2.7309,-2.7309,-2.7309,-2.7309,-2.7309,-2.7309,-2.7309,-2.7309,-2.7309,-2.7309,-2.7309,-2.7309,-2.7309,-2.7309,-2.7309,-2.7309,-2.7309,-2.7167,-2.69,-2.6177,-2.5674,-2.5489,-2.531,-2.5381,-2.5817,-2.6507,-2.6856,-2.6821,-2.6579,-2.5698,0.0,0.0,0.0,0.0,0.0,0.0,0.0,0.0,0.0,-2.4029,-2.4206,-2.4292,-2.4454,-2.454,-2.4818,-2.5495,0.0,0.0,0.0,0.0,0.0,0.0,0.0,0.0,0.0,0.0,0.0,0.0,0.0,0.0,0.0,0.0,0.0,-3.465,-3.5692,-3.6317,-3.6355,-3.6392,-3.6405,-3.6405,-3.6146,-3.6015,-3.5968,0.0,0.0,0.0,0.0,0.0,0.0,-3.4823,-3.4775,-3.4775,-3.4775,-3.4775,-3.4775,-3.4775,-3.4775,-3.4775,-3.4775,-3.4775,-3.4775,-3.4482,-3.4249,-3.4075,-3.3828,-3.353,-3.3331,-3.3292,-3.3281,-3.3281,-3.3235,-3.2856,-3.2466,-3.2397,-3.1685,-3.0857,-3.0332,-2.9427,-2.8631,-2.8128,-2.7678,-2.7357,-2.7309,-2.7309,-2.7309,-2.7309,-2.7309,-2.7309,-2.7309,-2.7309,-2.7309,-2.7309,-2.7309,-2.7309,-2.7309,-2.7309,-2.7309,-2.7309,-2.7309,-2.7167,-2.6948,-2.6699,-2.5955,-2.4735,-2.5873,-2.6013,-2.5034,-2.6829,-2.791,-2.8291,-2.7133,-2.6581,0.0,0.0,0.0,0.0,0.0,0.0,0.0,0.0,0.0,0.0,0.0,0.0,0.0,0.0,0.0,0.0,0.0,0.0,0.0,0.0,0.0,0.0,0.0,0.0,0.0,0.0,0.0,0.0,0.0,0.0,0.0,0.0,0.0,-3.4085,-3.4751,-3.5316,-3.5683,-3.6157,-3.6405,-3.6405,-3.6146,-3.6015,-3.5968,0.0,0.0,0.0,0.0,0.0,-3.5078,-3.4884,-3.4775,-3.4775,-3.4775,-3.4775,-3.4775,-3.4775,-3.4775,-3.4775,-3.4775,-3.4775,-3.4775,-3.4482,-3.4384,-3.4298,-3.4064,-3.3828,-3.358,-3.3331,-3.3281,-3.3189,-3.2776,-3.2581,-3.2294,-3.1536,-3.118,-3.0858,-3.0308,-2.9748,-2.9152,-2.8631,-2.8175,-2.7715,-2.7357,-2.7309,-2.7309,-2.7309,-2.7309,-2.7309,-2.7309,-2.7309,-2.7309,-2.7309,-2.7309,-2.7309,-2.7309,-2.7309,-2.7309,-2.7309,-2.7309,-2.7262,-2.7214,-2.7167,-2.6937,-2.6478,-2.7065,-2.726,-2.7043,-2.7785,-2.8193,-2.8291,-2.8014,-2.7349,0.0,0.0,0.0,0.0,0.0,0.0,0.0,0.0,0.0,0.0,0.0,0.0,0.0,0.0,0.0,0.0,0.0,0.0,0.0,0.0,0.0,0.0,0.0,0.0,0.0,0.0,0.0,0.0,0.0,0.0,0.0,0.0,0.0,0.0,-3.406,-3.4726,-3.5495,-3.583,-3.6119,-3.6405,-3.6228,-3.6193,-3.6181,0.0,0.0,0.0,0.0,0.0,-3.5368,-3.5223,-3.5078,-3.4969,-3.4969,-3.4932,-3.4775,-3.4775,-3.4775,-3.4775,-3.4775,-3.4775,-3.4787,-3.4628,-3.458,-3.4531,-3.4298,-3.4064,-3.3828,-3.358,-3.3208,-3.2845,-3.2558,-3.2144,-3.1674,-3.1146,-3.0824,-3.0572,-3.0285,-2.9852,-2.9347,-2.8828,-2.8315,-2.7857,-2.7394,-2.7309,-2.7309,-2.7309,-2.7309,-2.7309,-2.7309,-2.7309,-2.7309,-2.7309,-2.7309,-2.7309,-2.7309,-2.7309,-2.7309,-2.7309,-2.7309,-2.7309,-2.7309,-2.7167,-2.7138,-2.7232,-2.7521,-2.7816,-2.7959,-2.8184,-2.8291,-2.8291,-2.8291,-2.796,0.0,0.0,0.0,0.0,0.0,0.0,0.0,0.0,0.0,0.0,0.0,0.0,0.0,0.0,0.0,0.0,0.0,0.0,0.0,0.0,0.0,0.0,0.0,0.0,0.0,0.0,0.0,0.0,0.0,0.0,0.0,0.0,0.0,0.0,-3.3533,-3.4261,-3.5245,-3.5332,-3.5705,-3.6279,-3.6279,-3.6329,-3.6405,-3.6146,0.0,0.0,0.0,0.0,-3.5668,-3.562,-3.5476,-3.5271,-3.5223,-3.5078,-3.4884,-3.4835,-3.4775,-3.4775,-3.4775,-3.4775,-3.4775,-3.4775,-3.4775,-3.4775,-3.4531,-3.4298,-3.4052,-3.3723,-3.3079,-3.2466,-3.2397,-3.1697,-3.0996,-3.0916,-3.0549,-3.0216,-3.0216,-2.9897,-2.9485,-2.8989,-2.856,-2.8045,-2.7489,-2.7394,-2.7394,-2.7309,-2.7309,-2.7309,-2.7309,-2.7309,-2.7309,-2.7309,-2.7309,-2.7309,-2.7309,-2.7309,-2.7309,-2.7309,-2.7309,-2.734,-2.7403,-2.715,-2.7188,-2.758,-2.7737,-2.7939,-2.8291,-2.8291,-2.8291,-2.8291,-2.8291,-2.8291,-2.3907,-2.4703,-2.523,-2.4511,0.0,0.0,0.0,0.0,0.0,0.0,0.0,0.0,0.0,0.0,0.0,0.0,0.0,0.0,0.0,0.0,0.0,0.0,0.0,0.0,0.0,0.0,0.0,0.0,0.0,0.0,0.0,0.0,0.0,0.0,0.0,-3.3508,-3.4148,-3.4613,-3.5082,-3.5621,-3.5621,-3.5918,-3.6405,-3.6358,-3.6323,0.0,0.0,-3.592,-3.592,-3.5668,-3.5572,-3.5524,-3.5271,-3.5175,-3.5126,-3.4884,-3.4775,-3.4775,-3.4775,-3.4775,-3.4775,-3.4775,-3.4775,-3.4775,-3.4726,-3.4543,-3.4203,-3.356,-3.2936,-3.2397,-3.2032,-3.1456,-3.0905,-3.0445,-3.0273,-3.0216,-3.0216,-3.0125,-2.9943,-2.9485,-2.9347,-2.8978,-2.8045,-2.7904,-2.7762,-2.7357,-2.7309,-2.7309,-2.7309,-2.7309,-2.7309,-2.7309,-2.7309,-2.7309,-2.7309,-2.7309,-2.7309,-2.7309,-2.7309,-2.7427,-2.781,-2.771,-2.7854,-2.8316,-2.8242,-2.8232,-2.8291,-2.8291,-2.8291,-2.8291,-2.8291,-2.8291,-2.4145,-2.4658,-2.5137,-2.5326,0.0,0.0,0.0,0.0,0.0,0.0,0.0,0.0,0.0,0.0,0.0,0.0,0.0,0.0,0.0,0.0,0.0,0.0,0.0,0.0,0.0,0.0,0.0,0.0,0.0,0.0,0.0,0.0,0.0,0.0,0.0,0.0,-3.3458,-3.3709,-3.4261,-3.5056,-3.5357,-3.5633,-3.5931,-3.6267,-3.6405,-3.6405,0.0,-3.6228,-3.6181,-3.6086,-3.5955,-3.5812,-3.5668,-3.5476,-3.5175,-3.4884,-3.4775,-3.4775,-3.4775,-3.4775,-3.4775,-3.4775,-3.4775,-3.4775,-3.4775,-3.4449,-3.3933,-3.3587,-3.2921,-3.2152,-3.1537,-3.0973,-3.0526,-3.0273,-3.0216,-3.0216,-3.0216,-3.0216,-3.008,-2.9577,-2.9485,-2.9163,-2.8175,-2.7998,-2.7857,-2.7357,-2.7309,-2.7309,-2.7309,-2.7309,-2.7309,-2.7309,-2.7309,-2.7309,-2.7309,-2.7309,-2.7309,-2.7309,-2.7309,-2.7458,-2.7903,-2.7822,-2.8025,-2.8478,-2.8394,-2.8291,-2.8291,-2.8291,-2.8291,-2.8291,-2.8291,-2.8291,-2.4282,-2.4529,-2.502,-2.5797,0.0,0.0,0.0,0.0,0.0,0.0,0.0,0.0,0.0,0.0,0.0,0.0,0.0,0.0,0.0,0.0,0.0,0.0,0.0,0.0,0.0,0.0,0.0,0.0,0.0,0.0,0.0,0.0,0.0,0.0,0.0,0.0,-3.3154,-3.3124,-3.3571,-3.4537,-3.4919,-3.5257,-3.552,-3.5981,-3.6292,-3.6405,-3.6405,-3.6405,-3.6405,-3.6405,-3.6275,-3.6098,-3.5968,-3.5572,-3.5078,-3.4932,-3.4823,-3.4775,-3.4775,-3.4775,-3.4775,-3.4775,-3.4775,-3.4775,-3.4775,-3.433,-3.3744,-3.3577,-3.2818,-3.1938,-3.1251,-3.0664,-3.0216,-3.0216,-3.0216,-3.0216,-3.0216,-3.0216,-3.008,-2.9715,-2.9669,-2.9382,-2.8502,-2.8362,-2.8139,-2.7536,-2.7441,-2.7441,-2.7309,-2.7309,-2.7309,-2.7309,-2.7309,-2.7309,-2.7309,-2.7309,-2.7309,-2.7309,-2.7403,-2.7614,-2.8069,-2.8035,-2.8237,-2.8629,-2.8496,-2.8344,-2.8291,-2.8291,-2.8291,-2.8291,-2.8291,-2.8291,-2.4497,-2.5105,-2.5704,-2.5819,-2.5861,0.0,-2.7261,-2.7504,0.0,-2.7504,0.0,0.0,0.0,0.0,0.0,0.0,0.0,0.0,0.0,0.0,0.0,0.0,0.0,0.0,0.0,0.0,0.0,0.0,0.0,0.0,0.0,0.0,0.0,0.0,0.0,0.0,-3.3398,-3.3197,-3.337,-3.396,-3.3997,-3.4562,-3.5495,-3.5533,-3.5881,-3.6405,-3.6405,-3.6405,-3.6405,-3.6405,-3.6405,-3.631,-3.58,-3.532,-3.4884,-3.5078,-3.503,-3.4775,-3.4775,-3.4775,-3.4775,-3.4775,-3.4775,-3.4775,-3.4775,-3.4414,-3.3851,-3.316,-3.2543,-3.2001,-3.1483,-3.0801,-3.0216,-3.0216,-3.0216,-3.0216,-3.0216,-3.0216,-3.017,-3.017,-3.017,-2.9988,-2.9485,-2.9393,-2.9059,-2.8092,-2.7951,-2.7809,-2.7357,-2.7309,-2.7309,-2.7309,-2.7309,-2.7309,-2.7309,-2.7309,-2.7309,-2.7309,-2.7645,-2.8079,-2.8545,-2.8717,-2.8919,-2.9071,-2.8814,-2.8568,-2.8291,-2.8291,-2.8291,-2.8291,-2.8291,-2.8291,-2.4497,-2.5221,-2.6121,-2.673,-2.7261,0.0,0.0,-2.9003,-2.9484,-2.9484,-2.9806,0.0,0.0,0.0,0.0,0.0,0.0,0.0,0.0,0.0,0.0,0.0,0.0,0.0,0.0,0.0,0.0,0.0,0.0,0.0,0.0,0.0,0.0,0.0,0.0,0.0,0.0,-3.3313,-3.3341,-3.3395,-3.3734,-3.4123,-3.455,-3.5194,-3.5608,-3.5868,-3.6267,-3.6405,-3.6405,-3.6405,-3.6405,-3.637,-3.58,-3.5476,-3.5271,-3.503,-3.4872,-3.4775,-3.4775,-3.4775,-3.4775,-3.4775,-3.4775,-3.4715,-3.439,-3.3982,-3.3418,-3.2831,-3.2156,-3.1501,-3.1016,-3.0683,-3.0397,-3.0261,-3.0216,-3.0216,-3.0216,-3.0216,-3.0216,-3.0216,-3.0216,-3.0034,-2.9577,-2.9485,-2.9163,-2.8128,-2.7998,-2.7809,-2.7357,-2.7309,-2.7309,-2.7309,-2.7309,-2.7309,-2.7309,-2.7309,-2.7309,-2.7309,-2.7676,-2.8131,-2.8597,-2.8768,-2.9063,-2.9386,-2.893,-2.8674,-2.8568,-2.8398,-2.8291,-2.8291,-2.8291,-2.8291,-2.5359,-2.6038,-2.6801,0.0,0.0,0.0,-2.916,-2.9922,-3.0609,-3.0698,-3.0736,0.0,0.0,0.0,0.0,0.0,0.0,0.0,0.0,0.0,0.0,0.0,0.0,0.0,0.0,0.0,0.0,0.0,0.0,0.0,0.0,0.0,0.0,0.0,0.0,0.0,0.0,-3.3513,-3.3398,-3.3197,-3.3588,-3.3809,-3.3922,-3.4675,-3.5169,-3.552,-3.5943,-3.6194,-3.6405,-3.6405,-3.637,-3.6228,-3.586,-3.562,-3.5428,-3.5078,-3.4884,-3.4775,-3.4775,-3.4775,-3.4775,-3.4775,-3.4775,-3.4679,-3.415,-3.3681,-3.3176,-3.2647,-3.1959,-3.135,-3.0937,-3.0713,-3.0532,-3.0261,-3.0216,-3.0216,-3.0216,-3.0216,-3.0216,-3.0216,-3.0216,-3.008,-2.976,-2.9577,-2.9209,-2.8362,-2.8081,-2.7809,-2.7357,-2.7309,-2.7309,-2.7309,-2.7309,-2.7309,-2.7309,-2.7309,-2.7309,-2.7309,-2.781,-2.8286,-2.8597,-2.9003,-2.9362,-2.9606,-2.9089,-2.8781,-2.8684,-2.8451,-2.8291,-2.8291,-2.8291,-2.8291,-2.7221,-2.7654,0.0,0.0,0.0,0.0,-2.9381,-2.9909,-3.0444,-3.066,0.0,0.0,0.0,0.0,0.0,0.0,0.0,0.0,0.0,0.0,0.0,0.0,0.0,0.0,0.0,0.0,0.0,0.0,0.0,0.0,0.0,0.0,0.0,0.0,0.0,0.0,0.0,-3.3852,-3.3598,-3.3398,-3.3398,-3.3561,-3.3884,-3.3897,-3.45,-3.5483,-3.5495,-3.5843,-3.6405,-3.6405,-3.6228,-3.6015,-3.6015,-3.5668,-3.5223,-3.5223,-3.503,-3.4775,-3.4775,-3.4775,-3.4775,-3.4775,-3.4775,-3.4679,-3.415,-3.3681,-3.3176,-3.2647,-3.2094,-3.1617,-3.135,-3.0949,-3.0532,-3.0261,-3.0216,-3.0216,-3.0216,-3.0216,-3.0216,-3.0216,-3.0216,-3.0216,-3.0216,-2.9806,-2.9336,-2.8771,-2.8305,-2.7857,-2.7357,-2.7309,-2.7309,-2.7309,-2.7309,-2.7309,-2.7309,-2.7309,-2.7309,-2.7309,-2.811,-2.8618,-2.8618,-2.9508,-2.9879,-2.9606,-2.929,-2.8983,-2.8684,-2.8451,-2.8291,-2.8291,-2.8291,-2.8291,-2.64,0.0,0.0,-2.8703,0.0,0.0,0.0,-3.0368,0.0,0.0,0.0,0.0,0.0,0.0,0.0,0.0,0.0,0.0,0.0,0.0,0.0,0.0,0.0,0.0,0.0,0.0,0.0,0.0,0.0,0.0,0.0,0.0,0.0,0.0,0.0,0.0,0.0,0.0,-3.3852,-3.3598,-3.3471,-3.3359,-3.3332,-3.3721,-3.4073,-3.4412,-3.4756,-3.5232,-3.5818,-3.6194,-3.637,-3.6275,-3.6051,-3.5764,-3.5476,-3.5271,-3.503,-3.4775,-3.4775,-3.4775,-3.4775,-3.4775,-3.4775,-3.4619,-3.3777,-3.3404,-3.3092,-3.2166,-3.1837,-3.1617,-3.135,-3.1217,-3.0982,-3.0578,-3.0352,-3.0216,-3.0216,-3.0216,-3.0216,-3.0216,-3.0216,-3.0216,-3.0216,-3.008,-2.9703,-2.8817,-2.8585,-2.8222,-2.7404,-2.7309,-2.7309,-2.7309,-2.7309,-2.7309,-2.7309,-2.7309,-2.7309,-2.7309,-2.811,-2.8618,-2.8618,-2.9508,-2.9879,-2.9606,-2.929,-2.8983,-2.8684,-2.8451,-2.8291,-2.8291,-2.8291,-2.8291,-2.7735,0.0,0.0,-2.9832,-3.0355,0.0,0.0,0.0,0.0,0.0,0.0,0.0,0.0,0.0,0.0,0.0,0.0,0.0,0.0,0.0,0.0,0.0,0.0,0.0,0.0,0.0,0.0,0.0,0.0,0.0,0.0,0.0,0.0,0.0,0.0,0.0,0.0,0.0,0.0,-3.3852,-3.3738,-3.3569,-3.3326,-3.3507,-3.3696,-3.3935,-3.4487,-3.4994,-3.552,-3.5893,-3.6157,-3.6358,-3.6098,-3.5908,-3.5716,-3.532,-3.5078,-3.492,-3.4823,-3.4775,-3.4775,-3.4775,-3.4775,-3.4631,-3.3837,-3.3452,-3.3104,-3.2238,-3.1886,-3.1661,-3.1484,-3.1395,-3.116,-3.0713,-3.0487,-3.0352,-3.0216,-3.0216,-3.0216,-3.0216,-3.0216,-3.0216,-3.0216,-3.0034,-2.9715,-2.9106,-2.8689,-2.8128,-2.7404,-2.7309,-2.7309,-2.7309,-2.7309,-2.7309,-2.7309,-2.7309,-2.7309,-2.7309,-2.811,-2.8618,-2.8618,-2.9508,-2.9942,-2.9774,-2.9343,-2.9026,-2.8887,-2.8451,-2.8291,-2.8291,-2.8291,-2.8291,-3.0165,0.0,0.0,0.0,0.0,0.0,0.0,0.0,0.0,0.0,0.0,0.0,0.0,0.0,0.0,0.0,0.0,0.0,0.0,0.0,0.0,0.0,0.0,0.0,0.0,0.0,0.0,0.0,0.0,0.0,0.0,0.0,0.0,0.0,0.0,0.0,0.0,0.0,0.0,0.0,-3.4118,-3.3992,-3.3725,-3.3313,-3.3388,-3.3891,-3.4412,-3.4881,-3.5357,-3.5458,-3.583,-3.6295,-3.6133,-3.6015,-3.5968,-3.5464,-3.5223,-3.5175,-3.4932,-3.4823,-3.4775,-3.4775,-3.4775,-3.4679,-3.415,-3.3681,-3.3176,-3.2647,-3.2094,-3.1705,-3.1705,-3.1528,-3.1205,-3.0758,-3.0668,-3.0578,-3.0306,-3.0261,-3.0216,-3.0216,-3.0216,-3.0216,-3.0216,-2.9852,-2.9531,-2.9485,-2.8642,-2.7857,-2.7404,-2.7309,-2.7309,-2.7309,-2.7309,-2.7309,-2.7309,-2.7309,-2.7309,-2.7309,-2.811,-2.8618,-2.8618,-2.9508,-2.9994,-2.9942,-2.9396,-2.9132,-2.9079,-2.8558,-2.8291,-2.8291,-2.8291,-2.8291,0.0,-3.019,0.0,0.0,0.0,0.0,0.0,0.0,0.0,0.0,0.0,0.0,0.0,0.0,0.0,0.0,0.0,0.0,0.0,0.0,0.0,0.0,0.0,0.0,0.0,0.0,0.0,0.0,0.0,0.0,0.0,0.0,0.0,0.0,0.0,0.0,-3.4397,-3.4397,-3.4397,0.0,-3.4202,-3.4076,-3.3992,-3.3725,-3.3534,-3.3528,-3.3922,-3.4148,-3.4324,-3.5144,-3.5571,-3.5721,-3.6147,-3.6193,-3.5968,-3.5872,-3.5572,-3.5175,-3.5126,-3.4981,-3.4775,-3.4775,-3.4775,-3.4679,-3.415,-3.3681,-3.3176,-3.2647,-3.2094,-3.1705,-3.1705,-3.1661,-3.1528,-3.1205,-3.105,-3.0826,-3.0578,-3.0521,-3.0442,-3.0261,-3.0216,-3.0216,-3.0216,-3.0125,-2.9943,-2.9577,-2.8642,-2.7951,-2.7857,-2.7536,-2.7309,-2.7309,-2.7309,-2.7309,-2.7309,-2.7309,-2.7309,-2.7309,-2.811,-2.8618,-2.8618,-2.9508,-2.9889,-2.9711,-2.9554,-2.9248,-2.8781,-2.8674,-2.8514,-2.8291,-2.8291,-2.8291,0.0,0.0,0.0,0.0,0.0,0.0,0.0,0.0,0.0,0.0,0.0,0.0,0.0,0.0,0.0,0.0,0.0,0.0,0.0,0.0,0.0,0.0,0.0,0.0,0.0,0.0,0.0,0.0,0.0,0.0,0.0,0.0,0.0,0.0,0.0,0.0,-3.4397,-3.4397,-3.4397,-3.4397,-3.4272,-3.4243,-3.4243,-3.3768,-3.3513,-3.3411,-3.3456,-3.3658,-3.3935,-3.4512,-3.4868,-3.5157,-3.5755,-3.5875,-3.5784,-3.5963,-3.5812,-3.5572,-3.5416,-3.5223,-3.4981,-3.4981,-3.4872,-3.4727,-3.445,-3.3897,-3.3236,-3.2959,-3.2298,-3.1705,-3.1705,-3.1705,-3.1661,-3.1528,-3.1318,-3.1095,-3.0826,-3.0668,-3.0578,-3.0442,-3.0306,-3.0216,-3.0216,-3.0216,-3.0034,-2.9577,-2.9071,-2.8549,-2.8034,-2.7987,-2.7904,-2.7668,-2.7631,-2.7631,-2.7631,-2.7441,-2.7309,-2.7309,-2.7903,-2.838,-2.8607,-2.929,-2.9715,-2.9774,-2.9669,-2.9448,-2.9142,-2.8834,-2.8631,-2.8514,-2.8344,-2.8291,0.0,0.0,0.0,0.0,0.0,0.0,0.0,0.0,0.0,0.0,0.0,0.0,0.0,0.0,0.0,0.0,0.0,0.0,0.0,0.0,0.0,0.0,0.0,0.0,0.0,0.0,0.0,0.0,0.0,0.0,0.0,0.0,0.0,0.0,0.0,-3.4397,-3.4397,-3.4397,-3.4397,-3.4397,-3.4397,-3.4397,-3.4397,-3.3725,-3.3441,-3.3441,-3.324,-3.3375,-3.3771,-3.3859,-3.4173,-3.4638,-3.5144,-3.542,-3.5512,-3.5787,-3.5928,-3.5968,-3.5764,-3.5464,-3.5271,-3.5223,-3.5078,-3.4872,-3.4823,-3.4102,-3.3284,-3.3284,-3.2503,-3.1705,-3.1705,-3.1705,-3.1705,-3.1705,-3.1528,-3.1306,-3.1107,-3.0871,-3.0713,-3.0623,-3.0397,-3.0216,-3.0216,-3.0216,-3.008,-2.9669,-2.9531,-2.9209,-2.8373,-2.8456,-2.8445,-2.8034,-2.7951,-2.7857,-2.7857,-2.7536,-2.7309,-2.7309,-2.7676,-2.8131,-2.8597,-2.9063,-2.9528,-2.9984,-2.9774,-2.9669,-2.9606,-2.9089,-2.8781,-2.8674,-2.8461,-2.8344,0.0,0.0,0.0,0.0,0.0,0.0,0.0,0.0,0.0,0.0,0.0,0.0,0.0,0.0,0.0,0.0,0.0,0.0,0.0,0.0,0.0,0.0,0.0,0.0,0.0,0.0,0.0,0.0,0.0,0.0,0.0,0.0,-3.4397,-3.4397,-3.4397,-3.4397,-3.4397,-3.4397,-3.4397,-3.4397,-3.4397,-3.4397,-3.4397,-3.3882,-3.367,-3.3641,-3.3441,-3.3321,-3.3219,-3.3709,-3.3935,-3.406,-3.4613,-3.5082,-3.5508,-3.5537,-3.5734,-3.6015,-3.5968,-3.5764,-3.5524,-3.5271,-3.5175,-3.5126,-3.4884,-3.4102,-3.3284,-3.3284,-3.2503,-3.1705,-3.1705,-3.1705,-3.1705,-3.1705,-3.1661,-3.1584,-3.1306,-3.1217,-3.1071,-3.0668,-3.0397,-3.0216,-3.0216,-3.0216,-3.017,-3.0125,-2.976,-2.9439,-2.9301,-2.8595,-2.8081,-2.7998,-2.7631,-2.7394,-2.7394,-2.7357,-2.7309,-2.7309,-2.7676,-2.8131,-2.8597,-2.9063,-2.9528,-2.9984,-2.9942,-2.9827,-2.9606,-2.9501,-2.9195,-2.8684,-2.8674,-2.8514,-3.0823,0.0,0.0,0.0,0.0,0.0,0.0,0.0,0.0,0.0,0.0,0.0,0.0,0.0,0.0,0.0,0.0,0.0,0.0,0.0,0.0,0.0,0.0,0.0,0.0,0.0,0.0,0.0,0.0,0.0,0.0,-3.4397,-3.4397,-3.4397,-3.4397,0.0,-3.4397,-3.4397,-3.4397,-3.4397,-3.4272,-3.4272,-3.4397,-3.4063,-3.3852,-3.367,-3.3356,-3.3197,-3.3136,-3.3332,-3.3432,-3.3495,-3.4048,-3.4412,-3.47,-3.527,-3.5612,-3.5781,-3.6128,-3.6051,-3.5812,-3.5668,-3.5572,-3.5368,-3.5126,-3.4292,-3.3458,-3.3331,-3.2503,-3.1705,-3.1705,-3.1705,-3.1705,-3.1705,-3.1705,-3.1661,-3.1528,-3.1395,-3.1217,-3.0871,-3.0589,-3.0442,-3.0442,-3.0306,-3.0216,-3.0216,-3.0034,-2.9806,-2.9531,-2.9336,-2.9013,-2.8445,-2.8233,-2.8008,-2.7715,-2.7441,-2.7309,-2.7309,-2.7486,-2.7872,-2.8587,-2.8804,-2.9259,-2.9984,-2.9994,-2.9942,-2.9827,-2.9659,-2.9448,-2.9195,-2.9036,-2.8771,0.0,0.0,0.0,0.0,0.0,0.0,0.0,0.0,0.0,0.0,0.0,0.0,0.0,0.0,0.0,0.0,0.0,0.0,0.0,0.0,0.0,0.0,0.0,0.0,0.0,0.0,0.0,0.0,0.0,0.0,-3.4397,-3.4397,-3.4397,-3.4397,-3.4397,-3.4397,-3.4397,-3.4397,-3.4397,-3.4397,-3.4243,-3.4243,-3.4397,-3.4202,-3.3992,-3.3768,-3.3484,-3.3283,-3.3197,-3.3197,-3.3154,-3.3162,-3.3533,-3.3771,-3.3997,-3.4781,-3.5257,-3.5558,-3.6019,-3.6163,-3.6098,-3.6015,-3.586,-3.5668,-3.5368,-3.4516,-3.3584,-3.3411,-3.2548,-3.1705,-3.1705,-3.1705,-3.1705,-3.1705,-3.1705,-3.1705,-3.1705,-3.1484,-3.1261,-3.1107,-3.0871,-3.0679,-3.0623,-3.0442,-3.0261,-3.0216,-3.0216,-3.008,-2.9715,-2.9897,-2.9703,-2.8828,-2.8653,-2.8373,-2.7857,-2.7489,-2.7309,-2.7309,-2.7309,-2.7665,-2.8576,-2.8618,-2.9052,-2.9973,-2.9994,-2.9994,-2.9994,-2.9774,-2.9669,-2.9606,-2.9343,-2.9079,0.0,0.0,0.0,0.0,0.0,0.0,0.0,0.0,0.0,0.0,0.0,0.0,0.0,0.0,0.0,0.0,0.0,0.0,0.0,0.0,0.0,0.0,0.0,0.0,0.0,0.0,0.0,0.0,0.0,0.0,-3.4397,-3.4397,-3.4397,-3.4397,-3.4397,-3.4397,-3.4397,-3.4397,-3.4397,-3.4397,-3.4397,-3.4397,-3.4397,-3.4202,-3.4076,-3.4076,-3.4076,-3.3781,-3.3398,-3.3398,-3.3283,-3.3124,-3.3106,-3.3432,-3.3909,-3.396,-3.465,-3.5495,-3.5533,-3.5931,-3.6323,-3.6098,-3.5968,-3.592,-3.5668,-3.467,-3.3584,-3.3584,-3.2672,-3.1705,-3.1705,-3.1705,-3.1705,-3.1705,-3.1705,-3.1705,-3.1705,-3.1484,-3.1306,-3.1306,-3.1107,-3.0883,-3.0623,-3.0578,-3.0487,-3.0261,-3.0216,-3.017,-3.017,-2.9806,-2.9347,-2.885,-2.8326,-2.7857,-2.7404,-2.7309,-2.7309,-2.7309,-2.7309,-2.7665,-2.8576,-2.8618,-2.9052,-2.9973,-2.9994,-2.9994,-2.9994,-2.9994,-2.9837,-2.9606,-2.9606,-2.9396,0.0,0.0,0.0,0.0,0.0,0.0,0.0,0.0,0.0,0.0,0.0,0.0,0.0,0.0,0.0,0.0,0.0,0.0,0.0,0.0,0.0,0.0,0.0,0.0,0.0,0.0,0.0,0.0,0.0,0.0,-3.4397,-3.4397,-3.4397,-3.4397,-3.4397,-3.4397,-3.4397,-3.4397,-3.4397,-3.4397,-3.4397,-3.4397,-3.4397,-3.4314,-3.4272,-3.4272,-3.4272,-3.4021,-3.3598,-3.3441,-3.3356,-3.3283,-3.3154,-3.3206,-3.342,-3.3771,-3.4374,-3.5019,-3.537,-3.5906,-3.6358,-3.6275,-3.6275,-3.6181,-3.5955,-3.5058,-3.4056,-3.3676,-3.2762,-3.1849,-3.1705,-3.1705,-3.1705,-3.1705,-3.1705,-3.1705,-3.1705,-3.1617,-3.1572,-3.1572,-3.1362,-3.1172,-3.1083,-3.0802,-3.0578,-3.0487,-3.0306,-3.0216,-3.0216,-3.0034,-2.976,-2.9301,-2.9071,-2.8735,-2.8222,-2.8222,-2.8222,-2.8222,-2.7904,-2.8136,-2.9073,-2.8767,-2.9052,-2.9973,-2.9994,-2.9994,-2.9994,-2.9994,-2.9942,-2.9879,-2.9879,-2.9722,-3.0672,0.0,0.0,0.0,0.0,0.0,0.0,0.0,0.0,0.0,0.0,0.0,0.0,0.0,0.0,0.0,0.0,0.0,0.0,0.0,0.0,0.0,0.0,0.0,0.0,0.0,0.0,0.0,0.0,0.0,-3.4397,-3.4397,-3.4397,-3.4397,-3.4397,-3.4397,-3.4397,-3.4397,-3.4397,-3.4397,-3.4397,-3.4397,-3.4397,-3.4397,-3.4397,-3.4397,-3.4397,-3.4189,-3.381,-3.3683,-3.3526,-3.3398,-3.324,-3.3154,-3.3162,-3.3483,-3.4085,-3.4731,-3.5094,-3.5742,-3.6405,-3.6405,-3.6405,-3.6367,-3.6319,-3.5408,-3.4338,-3.4057,-3.3052,-3.1994,-3.1849,-3.1761,-3.1793,-3.2077,-3.1913,-3.1793,-3.2077,-3.1913,-3.1705,-3.1705,-3.1572,-3.1395,-3.1306,-3.1026,-3.0802,-3.0623,-3.0442,-3.0306,-3.0216,-3.0216,-3.0034,-2.9531,-2.9485,-2.929,-2.8771,-2.8735,-2.8735,-2.8678,-2.8409,-2.8651,-2.9627,-2.9314,-2.9497,-3.0224,-3.0297,-3.0193,-2.9994,-2.9994,-2.9994,-2.9994,-2.9994,-2.9889,0.0,0.0,0.0,0.0,0.0,0.0,0.0,0.0,0.0,0.0,0.0,0.0,0.0,0.0,0.0,0.0,0.0,0.0,0.0,0.0,0.0,0.0,0.0,0.0,0.0,0.0,0.0,0.0,0.0,-3.4397,-3.4397,-3.4397,-3.4397,-3.4397,-3.4397,-3.4397,-3.4397,-3.4397,-3.4397,-3.4397,-3.4397,-3.4397,-3.4397,-3.4397,-3.4397,-3.4397,-3.4397,-3.4272,-3.4118,-3.4118,-3.3823,-3.3398,-3.3398,-3.3283,-3.3124,-3.3124,-3.3771,-3.468,-3.468,-3.5441,-3.6405,-3.6405,-3.6405,-3.6433,-3.6742,-3.5659,-3.4477,-3.4717,-3.3476,-3.2038,-3.1994,-3.1849,-3.1913,-3.2778,-3.2326,-3.1913,-3.2778,-3.2283,-3.1705,-3.1705,-3.1705,-3.1617,-3.135,-3.1306,-3.1116,-3.0668,-3.0623,-3.0487,-3.0216,-3.0216,-3.0034,-2.9577,-2.9531,-2.9301,-2.8771,-2.8792,-2.8792,-2.8771,-2.8724,-2.9172,-3.0166,-3.0209,-3.0409,-3.0826,-3.0785,-3.0536,-3.0047,-2.9994,-2.9994,-2.9994,-2.9994,-2.9994,-3.0114,0.0,0.0,0.0,0.0,0.0,0.0,0.0,0.0,0.0,0.0,0.0,0.0,0.0,0.0,0.0,0.0,0.0,0.0,0.0,0.0,0.0,0.0,0.0,0.0,0.0,0.0,0.0,0.0,-3.4397,-3.4397,-3.4397,-3.4397,-3.4397,-3.4397,-3.4397,-3.4397,-3.4397,-3.4397,-3.4397,-3.4397,-3.4397,-3.4397,-3.4397,-3.4397,-3.4397,-3.4397,-3.4356,-3.4314,-3.416,-3.3907,-3.3598,-3.3484,-3.3283,-3.3124,-3.3124,-3.3771,-3.468,-3.468,-3.5441,-3.6405,-3.6405,-3.6405,-3.6433,-3.6742,-3.5795,-3.4645,-3.4748,-3.3692,-3.2419,-3.2069,-3.195,-3.1937,-3.2045,-3.1881,-3.1749,-3.2001,-3.1869,-3.1705,-3.1705,-3.1705,-3.1661,-3.1617,-3.1439,-3.1217,-3.0916,-3.0724,-3.0487,-3.0216,-3.0216,-3.017,-3.0034,-2.9988,-2.9943,-2.9795,-2.9806,-2.9806,-2.9795,-2.9474,-2.97,-3.0652,-3.0405,-3.0558,-3.1341,-3.1002,-3.0733,-3.0588,-3.0193,-2.9994,-2.9994,-2.9994,-2.9994,0.0,0.0,0.0,0.0,0.0,0.0,0.0,-2.9832,0.0,0.0,0.0,0.0,0.0,0.0,0.0,0.0,0.0,0.0,0.0,0.0,0.0,0.0,0.0,0.0,0.0,0.0,0.0,0.0,-3.4267,-3.4397,-3.4397,-3.4397,-3.4397,-3.4397,-3.4397,-3.4397,-3.4397,-3.4397,-3.4397,-3.4397,-3.4397,-3.4397,-3.4397,-3.4397,-3.4397,-3.4397,-3.4397,-3.4397,-3.4397,-3.4285,-3.4021,-3.367,-3.3471,-3.3283,-3.3124,-3.3124,-3.3771,-3.468,-3.468,-3.5441,-3.6405,-3.6405,-3.6405,-3.6395,-3.6457,-3.5902,-3.518,-3.4749,-3.3627,-3.2463,-3.2081,-3.1994,-3.2081,-3.2363,-3.2101,-3.2013,-3.2661,-3.2208,-3.1705,-3.1705,-3.1705,-3.1705,-3.1705,-3.1572,-3.1395,-3.1139,-3.0994,-3.0758,-3.0397,-3.0352,-3.0306,-3.0216,-3.0216,-3.0216,-3.0216,-3.0216,-3.0216,-3.0216,-2.9943,-3.0259,-3.123,-3.0987,-3.12,-3.1902,-3.1607,-3.1351,-3.1146,-3.0349,-2.9994,-2.9994,-2.9994,-2.9994,0.0,0.0,0.0,0.0,0.0,0.0,-2.8858,-2.9406,-2.9999,0.0,0.0,0.0,0.0,0.0,0.0,0.0,0.0,0.0,0.0,0.0,0.0,0.0,0.0,0.0,0.0,0.0,0.0,-3.3548,-3.4097,-3.4397,-3.4397,-3.4397,-3.4397,-3.4397,-3.4397,-3.4397,-3.4397,-3.4397,-3.4397,-3.4397,-3.4397,-3.4397,-3.4397,-3.4397,-3.4397,-3.4397,-3.4397,-3.4397,-3.4397,-3.4397,-3.4105,-3.3725,-3.3513,-3.3313,-3.3124,-3.3187,-3.3822,-3.4726,-3.4756,-3.5491,-3.6405,-3.6405,-3.6367,-3.6243,-3.6043,-3.5974,-3.57,-3.4698,-3.3484,-3.2388,-3.2125,-3.2038,-3.2288,-3.3172,-3.2742,-3.2469,-3.3901,-3.2938,-3.1837,-3.1705,-3.1705,-3.1705,-3.1705,-3.1705,-3.1617,-3.135,-3.1306,-3.1128,-3.0713,-3.0623,-3.0532,-3.0261,-3.0216,-3.0216,-3.0216,-3.0216,-3.0216,-3.0216,-3.0273,-3.0744,-3.1779,-3.1871,-3.2088,-3.2499,-3.2409,-3.2117,-3.1618,-3.0557,-3.0099,-3.0099,-3.0047,-2.9994,0.0,0.0,0.0,0.0,0.0,0.0,-2.8207,-2.8486,-2.8724,0.0,0.0,0.0,0.0,0.0,0.0,0.0,0.0,0.0,0.0,0.0,0.0,0.0,0.0,0.0,0.0,0.0,-3.2947,-3.3548,-3.4097,-3.4397,-3.4397,-3.4397,-3.4397,-3.4397,-3.4397,-3.4397,-3.4397,-3.4397,-3.4397,-3.4397,-3.4397,-3.4397,-3.4397,-3.4397,-3.4397,-3.4397,-3.4397,-3.4397,-3.4397,-3.4243,-3.4118,-3.3992,-3.3725,-3.3513,-3.3364,-3.3658,-3.4161,-3.4743,-3.5182,-3.5818,-3.6405,-3.6405,-3.6056,-3.5705,-3.5926,-3.5687,-3.5234,-3.458,-3.3696,-3.2865,-3.2431,-3.23,-3.2506,-3.3164,-3.3079,-3.295,-3.3395,-3.3109,-3.2531,-3.1825,-3.1705,-3.1705,-3.1705,-3.1705,-3.1617,-3.135,-3.1306,-3.1217,-3.0972,-3.0724,-3.0578,-3.0532,-3.0352,-3.0216,-3.0216,-3.0216,-3.0216,-3.0216,-3.0629,-3.1134,-3.179,-3.2144,-3.2589,-3.3108,-3.2633,-3.2117,-3.1618,-3.095,-3.064,-3.064,-3.0193,-2.9994,0.0,0.0,0.0,-2.8287,0.0,0.0,0.0,-2.8219,0.0,0.0,0.0,0.0,0.0,0.0,0.0,0.0,0.0,0.0,0.0,0.0,0.0,0.0,0.0,0.0,0.0,0.0,-3.3051,-3.3927,-3.4241,-3.4397,-3.4397,-3.4397,-3.4397,-3.4397,-3.4397,-3.4397,-3.4397,-3.4397,-3.4397,-3.4397,-3.4397,-3.4397,-3.4397,-3.4397,-3.4397,-3.4397,-3.4397,-3.4397,-3.4397,-3.4272,-3.4243,-3.4189,-3.3839,-3.3598,-3.3462,-3.3902,-3.4337,-3.4756,-3.5307,-3.5906,-3.6405,-3.6405,-3.5994,-3.5567,-3.59,-3.5426,-3.4737,-3.4311,-3.3586,-3.2939,-3.3159,-3.3116,-3.3245,-3.4111,-3.383,-3.3462,-3.3846,-3.3534,-3.3147,-3.3036,-3.2661,-3.2208,-3.1793,-3.1705,-3.1661,-3.1528,-3.1484,-3.1395,-3.1184,-3.1038,-3.0847,-3.0623,-3.0487,-3.0352,-3.0216,-3.0216,-3.0216,-3.0216,-3.0721,-3.1237,-3.1731,-3.2225,-3.2741,-3.3281,-3.3008,-3.2695,-3.2454,-3.1874,-3.1341,-3.0785,-3.0536,-3.0245,0.0,0.0,0.0,0.0,0.0,-2.7772,0.0,0.0,0.0,0.0,0.0,0.0,0.0,0.0,0.0,0.0,0.0,0.0,0.0,0.0,0.0,0.0,0.0,0.0,0.0,0.0,-3.3169,-3.4306,-3.4397,-3.4397,-3.4397,-3.4397,-3.4397,-3.4397,-3.4397,-3.4397,-3.4397,-3.4397,-3.4397,-3.4397,-3.4397,-3.4397,-3.4397,-3.4397,-3.4397,-3.4397,-3.4397,-3.4397,-3.4397,-3.4356,-3.4356,-3.4314,-3.3894,-3.3598,-3.3517,-3.4103,-3.447,-3.4768,-3.5433,-3.5994,-3.6405,-3.6405,-3.6045,-3.5684,-3.607,-3.5471,-3.4579,-3.4361,-3.3687,-3.3129,-3.3632,-3.3771,-3.3982,-3.4787,-3.4553,-3.4191,-3.4389,-3.3969,-3.3615,-3.3817,-3.328,-3.2575,-3.2033,-3.1793,-3.1705,-3.1705,-3.1705,-3.1617,-3.1395,-3.135,-3.116,-3.0802,-3.0713,-3.0578,-3.0306,-3.0261,-3.0307,-3.0365,-3.0859,-3.1364,-3.1857,-3.2363,-3.2845,-3.3281,-3.3281,-3.3281,-3.3281,-3.2796,-3.2066,-3.1094,-3.0888,-3.0693,0.0,0.0,0.0,0.0,-2.9952,0.0,0.0,0.0,0.0,0.0,0.0,0.0,0.0,0.0,0.0,0.0,0.0,0.0,0.0,0.0,0.0,0.0,0.0,0.0,0.0,0.0,0.0,-3.4306,-3.4397,-3.4397,-3.4397,-3.4397,-3.4397,-3.4397,-3.4397,-3.4397,-3.4397,-3.4397,-3.4397,-3.4397,-3.4397,-3.4397,-3.4397,-3.4397,-3.4397,-3.4397,-3.4397,-3.4397,-3.4397,-3.4202,-3.4118,-3.4118,-3.3797,-3.367,-3.3769,-3.4414,-3.4663,-3.4864,-3.5906,-3.6355,-3.6405,-3.6405,-3.6169,-3.604,-3.6632,-3.6192,-3.5467,-3.5413,-3.4841,-3.4021,-3.3086,-3.339,-3.3956,-3.3914,-3.4828,-3.5359,-3.4069,-3.3985,-3.3817,-3.2525,-3.2057,-3.2033,-3.2735,-3.2208,-3.1705,-3.1705,-3.1705,-3.1705,-3.1661,-3.1439,-3.1306,-3.1217,-3.105,-3.0826,-3.0578,-3.0566,-3.065,-3.0893,-3.1387,-3.188,-3.2386,-3.2914,-3.3224,-3.3281,-3.3281,-3.3281,-3.3281,-3.3231,-3.2846,-3.2207,-3.1249,-3.1268,0.0,0.0,0.0,0.0,0.0,0.0,0.0,0.0,-2.792,0.0,0.0,0.0,0.0,0.0,0.0,0.0,0.0,0.0,0.0,0.0,0.0,0.0,0.0,0.0,0.0,0.0,0.0,0.0,0.0,-3.4397,-3.4397,-3.4397,-3.4397,-3.4397,-3.4397,-3.4397,-3.4397,-3.4397,-3.4397,-3.4397,-3.4397,-3.4397,-3.4397,-3.4397,-3.4397,-3.4397,-3.4397,-3.4397,-3.4397,-3.4314,-3.4285,-3.4243,-3.3852,-3.3832,-3.4056,-3.4705,-3.503,-3.527,-3.6094,-3.6405,-3.6304,-3.5617,-3.5468,-3.5417,-3.4857,-3.4772,-3.4814,-3.4275,-3.3924,-3.3654,-3.3683,-3.3882,-3.4191,-3.4692,-3.5224,-3.5264,-3.4111,-3.4802,-3.5061,-3.3159,-3.3134,-3.331,-3.3023,-3.2295,-3.1705,-3.1705,-3.1705,-3.1705,-3.1705,-3.1617,-3.1484,-3.1306,-3.1229,-3.1095,-3.0871,-3.0679,-3.0764,-3.1206,-3.1838,-3.2397,-3.2925,-3.3166,-3.3281,-3.3281,-3.3281,-3.3281,-3.3281,-3.3281,-3.3318,-3.3316,-3.255,-3.2257,-3.2577,0.0,0.0,0.0,0.0,0.0,0.0,0.0,0.0,0.0,0.0,0.0,0.0,0.0,0.0,0.0,0.0,0.0,0.0,0.0,0.0,0.0,0.0,0.0,0.0,0.0,0.0,0.0,-3.39,0.0,-3.4384,-3.4397,-3.4397,-3.4397,-3.4397,-3.4397,-3.4397,-3.4397,-3.4397,-3.4397,-3.4397,-3.4397,-3.4397,-3.4397,-3.4397,-3.4397,-3.4397,-3.4397,-3.4397,-3.4356,-3.4314,-3.4298,-3.3977,-3.4099,-3.447,-3.4856,-3.5214,-3.5583,-3.6169,-3.6445,-3.6375,-3.5364,-3.5257,-3.5344,-3.4134,-3.4413,-3.4868,-3.3781,-3.3598,-3.3839,-3.3979,-3.4105,-3.4343,-3.502,-3.5413,-3.5427,-3.4555,-3.5467,-3.5936,-3.4163,-3.4207,-3.4251,-3.3479,-3.2457,-3.1705,-3.1705,-3.1705,-3.1705,-3.1705,-3.1705,-3.1617,-3.1439,-3.1395,-3.1306,-3.1107,-3.1033,-3.126,-3.1798,-3.2466,-3.2978,-3.3269,-3.3281,-3.3281,-3.3281,-3.3281,-3.3281,-3.3281,-3.3281,-3.3534,-3.4004,-3.344,-3.3224,0.0,0.0,0.0,-3.352,0.0,0.0,0.0,0.0,-2.854,0.0,0.0,0.0,0.0,0.0,0.0,-2.6605,0.0,0.0,0.0,0.0,0.0,0.0,0.0,0.0,0.0,0.0,0.0,0.0,-3.2673,0.0,-3.433,-3.4397,-3.4397,-3.4397,-3.4397,-3.4397,-3.4397,-3.4397,-3.4397,-3.4397,-3.4397,-3.4397,-3.4397,-3.4397,-3.4397,-3.4397,-3.4397,-3.4397,-3.4397,-3.4202,-3.4118,-3.4127,-3.4168,-3.4553,-3.5028,-3.4816,-3.5031,-3.5583,-3.6169,-3.6585,-3.672,-3.6121,-3.6181,-3.6346,-3.5724,-3.6122,-3.6492,-3.4827,-3.4924,-3.5142,-3.3556,-3.3781,-3.4343,-3.4124,-3.5346,-3.6334,-3.5467,-3.5642,-3.5816,-3.5102,-3.4596,-3.4306,-3.4264,-3.2821,-3.1705,-3.1705,-3.1705,-3.1705,-3.1705,-3.1705,-3.1705,-3.1705,-3.1705,-3.1572,-3.1306,-3.177,-3.2263,-3.281,-3.3343,-3.3557,-3.3331,-3.3281,-3.3281,-3.3281,-3.3281,-3.3281,-3.3281,-3.3281,-3.3534,-3.4004,-3.344,-3.396,0.0,0.0,-3.3976,-3.4046,0.0,0.0,0.0,0.0,0.0,0.0,0.0,0.0,0.0,0.0,-2.7133,-2.7001,-2.7116,0.0,0.0,0.0,0.0,0.0,0.0,0.0,0.0,0.0,0.0,-3.2542,-3.3325,-3.3968,0.0,-3.4397,-3.4397,-3.4397,-3.4397,-3.4397,-3.4397,-3.4397,-3.4397,-3.4397,-3.4397,-3.4397,-3.4397,-3.4397,-3.4397,-3.4397,-3.4397,-3.4397,-3.4397,-3.4314,-3.4314,-3.4337,-3.4568,-3.493,-3.5315,-3.5264,-3.5617,-3.6056,-3.5881,-3.5625,-3.5417,-3.5475,-3.5328,-3.5161,-3.5494,-3.544,-3.5114,-3.4551,-3.4176,-3.3797,-3.324,-3.3326,-3.3654,-3.4163,-3.5115,-3.5869,-3.5574,-3.6413,-3.6872,-3.5467,-3.5305,-3.5224,-3.4624,-3.4001,-3.3395,-3.2661,-3.2176,-3.1849,-3.1705,-3.1705,-3.1705,-3.1705,-3.1705,-3.1817,-3.2043,-3.2742,-3.3149,-3.3133,-3.3672,-3.3828,-3.358,-3.358,-3.3481,-3.3281,-3.3281,-3.3281,-3.3281,-3.3281,-3.3717,-3.4532,-3.4325,-3.4678,-3.5758,-3.5112,0.0,0.0,-3.3611,0.0,-3.2716,0.0,0.0,0.0,0.0,0.0,0.0,0.0,0.0,-2.7545,-2.7353,0.0,0.0,0.0,0.0,0.0,0.0,0.0,0.0,0.0,-3.1035,-3.2488,-3.3062,-3.3664,0.0,0.0,-3.4397,-3.4397,-3.4397,-3.4397,-3.4397,-3.4397,-3.4397,-3.4397,-3.4397,-3.4397,-3.4397,-3.4397,-3.4397,-3.4397,-3.4397,-3.4397,-3.4397,-3.4397,-3.4473,-3.4595,-3.4964,-3.5282,-3.5563,-3.5633,-3.5974,-3.6329,-3.5683,-3.5347,-3.5137,-3.4812,-3.4588,-3.4426,-3.4635,-3.4566,-3.4366,-3.4266,-3.3892,-3.3534,-3.3406,-3.3219,-3.3326,-3.4189,-3.5006,-3.5695,-3.5989,-3.678,-3.7197,-3.6373,-3.6175,-3.6016,-3.5709,-3.5453,-3.4911,-3.3762,-3.2963,-3.2426,-3.2283,-3.1957,-3.1705,-3.1705,-3.1886,-3.243,-3.3475,-3.4019,-3.4304,-3.4222,-3.457,-3.4494,-3.3878,-3.3828,-3.3729,-3.3431,-3.3431,-3.3381,-3.3281,-3.3281,-3.3809,-3.4796,-3.4796,-3.5152]},{"header":{"parameterUnit":"m.s-1","parameterCategory":1,"la1":30.6,"la2":29.2853,"lo1":-89.7004,"lo2":-87.6739,"dy":0.0162,"dx":0.0183,"nx":112,"ny":82,"refTime":"2023-02-23T18:00:00:Z","depth":0,"parameterNumber":3,"parameterNumberName":"V-component_of_WINDS"},"data":[0.0,0.0,0.0,0.0,0.0,0.0,0.0,0.0,0.0,0.0,0.0,0.0,0.0,0.0,0.0,0.0,0.0,0.0,0.0,0.0,0.0,0.0,0.0,0.0,0.0,0.0,0.0,0.0,0.0,0.0,0.0,0.0,0.0,0.0,0.0,0.0,0.0,0.0,0.0,0.0,0.0,0.0,0.0,0.0,0.0,0.0,0.0,0.0,0.0,0.0,0.0,0.0,0.0,0.0,0.0,0.0,0.0,0.0,0.0,0.0,0.0,0.0,0.0,0.0,0.0,0.0,0.0,0.0,0.0,0.0,0.0,0.0,0.0,0.0,0.0,0.0,0.0,0.0,0.0,0.0,0.0,0.0,0.0,0.0,0.0,0.0,0.0,0.0,0.0,0.0,0.0,3.8762,3.8735,3.8546,3.8219,3.8069,3.7862,3.7614,0.0,0.0,0.0,0.0,0.0,0.0,0.0,0.0,0.0,0.0,0.0,0.0,0.0,0.0,0.0,0.0,0.0,0.0,0.0,0.0,0.0,0.0,0.0,0.0,0.0,0.0,0.0,0.0,0.0,0.0,0.0,0.0,0.0,0.0,0.0,0.0,0.0,0.0,0.0,0.0,0.0,0.0,0.0,0.0,0.0,0.0,0.0,0.0,0.0,0.0,0.0,0.0,0.0,0.0,0.0,0.0,0.0,0.0,0.0,0.0,0.0,0.0,0.0,0.0,0.0,0.0,0.0,0.0,0.0,0.0,0.0,0.0,0.0,0.0,0.0,0.0,0.0,0.0,0.0,0.0,0.0,0.0,0.0,0.0,0.0,0.0,0.0,0.0,0.0,0.0,0.0,0.0,0.0,0.0,0.0,0.0,0.0,0.0,0.0,0.0,0.0,0.0,0.0,0.0,3.8777,3.8719,3.8707,3.8692,3.8611,3.8135,3.7878,3.7999,0.0,0.0,0.0,0.0,0.0,0.0,0.0,0.0,0.0,0.0,0.0,0.0,0.0,0.0,0.0,0.0,0.0,0.0,0.0,0.0,0.0,0.0,0.0,0.0,0.0,0.0,0.0,0.0,0.0,0.0,0.0,0.0,0.0,0.0,0.0,0.0,0.0,0.0,0.0,0.0,0.0,0.0,0.0,0.0,0.0,0.0,0.0,0.0,0.0,0.0,0.0,0.0,0.0,0.0,0.0,0.0,0.0,0.0,0.0,0.0,0.0,0.0,0.0,0.0,0.0,0.0,0.0,0.0,0.0,0.0,0.0,0.0,0.0,0.0,0.0,0.0,0.0,0.0,0.0,0.0,0.0,0.0,0.0,0.0,0.0,0.0,0.0,0.0,0.0,0.0,0.0,0.0,0.0,0.0,0.0,0.0,0.0,0.0,0.0,0.0,0.0,0.0,0.0,3.8773,3.8807,3.8723,3.8707,3.8596,3.8336,3.8086,3.7844,3.7721,3.7131,0.0,0.0,0.0,0.0,0.0,0.0,0.0,0.0,0.0,0.0,0.0,0.0,0.0,0.0,0.0,0.0,0.0,0.0,0.0,0.0,0.0,0.0,0.0,0.0,0.0,0.0,0.0,0.0,0.0,0.0,0.0,0.0,0.0,0.0,0.0,0.0,0.0,0.0,0.0,0.0,0.0,0.0,0.0,0.0,0.0,0.0,0.0,0.0,0.0,0.0,0.0,0.0,0.0,0.0,0.0,0.0,0.0,0.0,0.0,0.0,0.0,0.0,0.0,0.0,0.0,0.0,0.0,0.0,0.0,0.0,0.0,0.0,0.0,0.0,0.0,0.0,0.0,0.0,0.0,0.0,0.0,0.0,0.0,0.0,0.0,0.0,0.0,0.0,0.0,0.0,0.0,0.0,0.0,0.0,0.0,0.0,0.0,0.0,0.0,0.0,0.0,0.0,3.8792,3.8765,3.8707,3.8673,3.8515,3.8204,3.8121,3.7932,3.7595,3.7226,0.0,0.0,0.0,0.0,0.0,0.0,0.0,0.0,0.0,0.0,0.0,0.0,0.0,0.0,0.0,0.0,0.0,0.0,0.0,0.0,0.0,0.0,0.0,0.0,0.0,0.0,0.0,0.0,0.0,0.0,0.0,0.0,0.0,0.0,0.0,0.0,0.0,0.0,0.0,0.0,0.0,0.0,0.0,0.0,0.0,0.0,0.0,0.0,0.0,0.0,0.0,0.0,0.0,0.0,0.0,0.0,0.0,0.0,0.0,0.0,0.0,0.0,0.0,0.0,0.0,0.0,0.0,0.0,0.0,0.0,0.0,0.0,0.0,0.0,0.0,0.0,0.0,0.0,0.0,0.0,0.0,0.0,0.0,0.0,0.0,0.0,0.0,0.0,0.0,0.0,0.0,0.0,0.0,0.0,0.0,0.0,0.0,0.0,0.0,0.0,0.0,0.0,3.8795,3.8707,3.8707,3.8593,3.8559,3.8643,3.8421,3.8204,3.8051,3.7862,0.0,0.0,0.0,0.0,0.0,0.0,0.0,0.0,0.0,0.0,0.0,0.0,0.0,0.0,0.0,0.0,0.0,0.0,0.0,0.0,0.0,0.0,0.0,0.0,0.0,0.0,0.0,0.0,0.0,0.0,0.0,0.0,0.0,0.0,0.0,0.0,0.0,0.0,0.0,0.0,0.0,0.0,0.0,0.0,0.0,0.0,0.0,0.0,0.0,0.0,0.0,0.0,0.0,0.0,0.0,0.0,0.0,0.0,0.0,0.0,0.0,0.0,0.0,0.0,0.0,0.0,0.0,0.0,0.0,0.0,0.0,0.0,0.0,0.0,0.0,0.0,0.0,0.0,0.0,0.0,0.0,0.0,0.0,0.0,0.0,0.0,0.0,0.0,0.0,0.0,0.0,0.0,0.0,0.0,0.0,0.0,0.0,0.0,0.0,0.0,0.0,0.0,3.8792,3.875,0.0,3.8575,3.8396,3.8168,3.8018,3.7932,3.7895,0.0,0.0,0.0,0.0,0.0,0.0,0.0,0.0,0.0,0.0,0.0,0.0,0.0,0.0,0.0,0.0,0.0,0.0,0.0,0.0,0.0,0.0,0.0,0.0,0.0,0.0,0.0,0.0,0.0,0.0,0.0,0.0,0.0,0.0,0.0,0.0,0.0,0.0,0.0,0.0,0.0,0.0,0.0,0.0,0.0,0.0,0.0,0.0,0.0,0.0,0.0,0.0,0.0,0.0,0.0,0.0,0.0,0.0,0.0,0.0,0.0,0.0,0.0,0.0,0.0,0.0,0.0,0.0,0.0,0.0,0.0,0.0,0.0,0.0,0.0,0.0,0.0,0.0,0.0,0.0,0.0,0.0,0.0,0.0,0.0,0.0,0.0,0.0,0.0,0.0,0.0,0.0,0.0,0.0,0.0,0.0,0.0,0.0,0.0,0.0,0.0,0.0,3.8618,3.8476,3.8348,0.0,3.815,3.7964,3.7632,3.7523,3.7559,3.7826,0.0,0.0,0.0,0.0,0.0,0.0,0.0,0.0,0.0,0.0,0.0,0.0,0.0,0.0,0.0,0.0,0.0,0.0,0.0,0.0,0.0,0.0,0.0,0.0,0.0,0.0,0.0,0.0,0.0,0.0,0.0,0.0,0.0,0.0,0.0,0.0,0.0,0.0,0.0,0.0,0.0,0.0,0.0,0.0,0.0,0.0,0.0,0.0,0.0,0.0,0.0,0.0,0.0,0.0,0.0,0.0,0.0,0.0,0.0,0.0,0.0,0.0,0.0,0.0,0.0,0.0,0.0,0.0,0.0,0.0,0.0,0.0,0.0,0.0,0.0,0.0,0.0,0.0,0.0,0.0,0.0,0.0,0.0,0.0,0.0,0.0,0.0,0.0,0.0,0.0,0.0,0.0,0.0,0.0,0.0,0.0,0.0,0.0,0.0,0.0,0.0,0.0,3.8196,3.779,3.7451,3.7305,3.7248,3.7209,3.7173,3.7017,3.719,0.0,0.0,0.0,0.0,0.0,0.0,0.0,0.0,0.0,0.0,0.0,0.0,0.0,0.0,0.0,0.0,0.0,0.0,0.0,0.0,0.0,0.0,0.0,0.0,0.0,0.0,0.0,0.0,0.0,0.0,0.0,0.0,0.0,0.0,0.0,0.0,0.0,0.0,0.0,0.0,0.0,0.0,0.0,0.0,0.0,0.0,0.0,0.0,0.0,0.0,0.0,0.0,0.0,0.0,0.0,0.0,0.0,0.0,0.0,0.0,0.0,0.0,0.0,0.0,0.0,0.0,0.0,0.0,0.0,0.0,0.0,0.0,0.0,0.0,0.0,0.0,0.0,0.0,0.0,0.0,0.0,0.0,0.0,0.0,0.0,0.0,0.0,0.0,0.0,0.0,0.0,0.0,0.0,0.0,0.0,0.0,0.0,0.0,0.0,0.0,0.0,0.0,0.0,3.7997,3.7578,3.7284,3.7229,3.7135,3.6943,3.6664,3.6536,3.6741,3.736,0.0,0.0,0.0,0.0,0.0,0.0,0.0,0.0,0.0,0.0,0.0,0.0,0.0,0.0,0.0,0.0,0.0,0.0,0.0,0.0,0.0,0.0,0.0,0.0,0.0,0.0,0.0,0.0,0.0,0.0,0.0,0.0,0.0,0.0,0.0,0.0,0.0,0.0,0.0,0.0,0.0,0.0,0.0,0.0,0.0,0.0,0.0,0.0,0.0,0.0,0.0,0.0,0.0,0.0,0.0,0.0,0.0,0.0,0.0,0.0,0.0,0.0,0.0,0.0,0.0,0.0,0.0,0.0,0.0,0.0,0.0,0.0,0.0,0.0,0.0,0.0,0.0,0.0,0.0,0.0,0.0,0.0,0.0,0.0,0.0,0.0,0.0,0.0,0.0,0.0,0.0,0.0,0.0,0.0,0.0,0.0,0.0,0.0,0.0,0.0,0.0,0.0,3.7649,3.7116,3.6701,3.6661,3.658,3.6395,3.6097,3.6028,3.6266,3.6843,0.0,0.0,0.0,0.0,0.0,0.0,0.0,0.0,0.0,0.0,0.0,0.0,0.0,0.0,0.0,0.0,0.0,0.0,0.0,0.0,0.0,0.0,0.0,0.0,0.0,0.0,0.0,0.0,0.0,0.0,0.0,0.0,0.0,0.0,0.0,0.0,0.0,0.0,0.0,0.0,0.0,0.0,0.0,0.0,0.0,0.0,0.0,0.0,0.0,0.0,0.0,0.0,0.0,0.0,0.0,0.0,0.0,0.0,0.0,0.0,0.0,0.0,0.0,0.0,0.0,0.0,0.0,0.0,0.0,0.0,0.0,0.0,0.0,0.0,0.0,0.0,0.0,0.0,0.0,0.0,0.0,0.0,0.0,0.0,0.0,0.0,0.0,0.0,0.0,0.0,0.0,0.0,0.0,0.0,0.0,0.0,0.0,0.0,0.0,0.0,0.0,0.0,3.7286,3.6501,3.591,3.5795,3.5773,3.5728,3.56,3.5577,3.5788,3.6333,0.0,0.0,0.0,0.0,0.0,0.0,0.0,0.0,0.0,0.0,0.0,0.0,0.0,0.0,0.0,0.0,0.0,0.0,0.0,0.0,0.0,0.0,0.0,0.0,0.0,0.0,0.0,0.0,0.0,0.0,0.0,0.0,0.0,0.0,0.0,0.0,0.0,0.0,0.0,0.0,0.0,0.0,0.0,0.0,0.0,0.0,0.0,0.0,0.0,0.0,0.0,0.0,0.0,0.0,0.0,0.0,0.0,0.0,0.0,0.0,3.5475,0.0,0.0,0.0,0.0,0.0,0.0,0.0,0.0,0.0,0.0,0.0,0.0,0.0,0.0,0.0,0.0,0.0,0.0,0.0,0.0,0.0,0.0,0.0,0.0,0.0,0.0,0.0,0.0,0.0,0.0,0.0,0.0,0.0,0.0,0.0,0.0,0.0,0.0,0.0,0.0,0.0,3.721,3.6333,3.5667,3.5644,3.5611,3.556,3.552,3.5429,3.5605,3.6211,0.0,0.0,0.0,0.0,0.0,0.0,0.0,0.0,0.0,0.0,0.0,0.0,0.0,0.0,0.0,0.0,0.0,0.0,0.0,0.0,0.0,0.0,0.0,0.0,0.0,0.0,0.0,0.0,0.0,0.0,0.0,0.0,0.0,0.0,0.0,0.0,0.0,0.0,0.0,0.0,0.0,0.0,0.0,0.0,0.0,0.0,0.0,0.0,0.0,0.0,0.0,0.0,0.0,0.0,0.0,0.0,0.0,0.0,0.0,0.0,0.0,3.5826,0.0,0.0,0.0,0.0,0.0,0.0,0.0,0.0,0.0,0.0,0.0,0.0,0.0,0.0,0.0,0.0,0.0,0.0,0.0,0.0,0.0,0.0,0.0,0.0,0.0,0.0,0.0,0.0,0.0,0.0,0.0,0.0,0.0,0.0,0.0,0.0,0.0,0.0,0.0,0.0,3.7098,3.6143,3.5458,3.5458,3.5429,3.5383,3.5383,3.54,3.5526,3.5832,3.6232,0.0,0.0,0.0,0.0,0.0,0.0,0.0,0.0,0.0,0.0,0.0,0.0,0.0,0.0,0.0,0.0,0.0,0.0,0.0,0.0,0.0,0.0,0.0,0.0,0.0,0.0,0.0,0.0,0.0,0.0,0.0,0.0,0.0,0.0,0.0,0.0,0.0,0.0,0.0,0.0,0.0,0.0,0.0,0.0,0.0,0.0,0.0,0.0,0.0,0.0,0.0,0.0,0.0,0.0,3.4844,3.4915,3.4821,3.4503,3.4061,3.4576,3.4662,3.4526,0.0,0.0,0.0,0.0,0.0,0.0,0.0,0.0,0.0,0.0,0.0,0.0,0.0,0.0,0.0,0.0,0.0,0.0,0.0,0.0,0.0,0.0,0.0,0.0,0.0,3.6208,3.586,0.0,0.0,0.0,0.0,0.0,0.0,0.0,0.0,0.0,0.0,0.0,0.0,3.6927,3.6037,3.536,3.5314,3.5268,3.5268,3.5268,3.5377,3.5446,3.5446,3.6097,3.646,0.0,0.0,0.0,0.0,0.0,0.0,0.0,0.0,0.0,0.0,0.0,0.0,0.0,0.0,0.0,0.0,0.0,0.0,0.0,0.0,0.0,0.0,0.0,0.0,0.0,0.0,0.0,0.0,0.0,0.0,0.0,0.0,3.5638,3.5467,0.0,0.0,0.0,0.0,0.0,0.0,0.0,0.0,0.0,0.0,0.0,0.0,0.0,0.0,3.6544,3.5537,3.5255,3.5637,3.4219,3.3781,3.4218,3.3755,3.3487,3.3408,3.3497,0.0,3.4243,3.4423,0.0,0.0,0.0,0.0,0.0,0.0,0.0,0.0,0.0,0.0,0.0,0.0,0.0,0.0,0.0,0.0,0.0,0.0,0.0,0.0,0.0,0.0,3.5998,3.602,3.5955,3.5803,0.0,3.6155,3.6775,3.6893,0.0,0.0,0.0,0.0,0.0,0.0,0.0,0.0,3.6724,3.6114,3.5616,3.5337,3.5198,3.5128,3.5128,3.5152,3.5152,3.5152,3.5458,3.5827,3.6211,3.6395,0.0,0.0,0.0,0.0,0.0,0.0,0.0,0.0,0.0,0.0,0.0,0.0,0.0,0.0,0.0,0.0,0.0,0.0,0.0,0.0,0.0,0.0,0.0,0.0,0.0,0.0,0.0,0.0,0.0,3.6091,3.5977,3.5925,3.602,3.6224,0.0,0.0,0.0,0.0,0.0,0.0,0.0,0.0,0.0,3.5328,3.5289,3.5128,3.4793,3.4284,3.4136,3.4342,3.3626,3.3424,3.3658,3.3398,3.3309,3.3309,3.3309,3.3435,3.3713,3.4061,3.4536,3.5065,0.0,0.0,0.0,0.0,0.0,3.6378,3.6071,0.0,0.0,0.0,0.0,0.0,0.0,0.0,0.0,0.0,0.0,0.0,0.0,0.0,0.0,3.5994,3.6077,3.6197,3.6036,3.6524,3.6819,0.0,3.6513,3.7069,3.8151,0.0,0.0,0.0,0.0,0.0,3.7791,3.7211,3.671,3.6337,3.6264,3.6215,3.6215,3.6345,3.6441,3.6441,3.6821,3.7177,3.7525,3.7779,3.7907,0.0,0.0,0.0,0.0,0.0,0.0,0.0,0.0,0.0,0.0,0.0,0.0,0.0,0.0,0.0,0.0,0.0,0.0,0.0,0.0,0.0,0.0,0.0,0.0,0.0,0.0,0.0,0.0,3.6197,3.595,3.5864,3.5929,3.6122,0.0,0.0,0.0,0.0,0.0,0.0,3.5693,3.5671,3.5266,3.4366,3.4358,3.4152,3.3678,3.3565,3.3565,3.3678,3.3424,3.3372,3.3503,3.3346,3.3309,3.3309,3.3309,3.3309,3.3319,3.379,3.4061,3.4243,3.4679,3.4968,0.0,3.5078,3.5323,3.5604,3.5128,3.5058,3.5295,3.5564,0.0,3.5897,3.705,0.0,0.0,0.0,0.0,3.8073,3.7633,0.0,3.733,3.6895,3.6915,3.7028,3.6952,3.7194,3.7172,0.0,3.6503,3.7189,3.8386,0.0,0.0,0.0,0.0,3.8868,3.8407,3.7953,3.7541,3.7153,3.7102,3.7102,3.7102,3.7328,3.7435,3.7386,3.7831,3.8144,3.8311,3.8605,3.868,3.8468,0.0,0.0,0.0,0.0,0.0,0.0,0.0,0.0,0.0,0.0,0.0,0.0,0.0,0.0,0.0,0.0,0.0,0.0,0.0,0.0,0.0,0.0,0.0,0.0,0.0,0.0,0.0,0.0,0.0,3.5215,3.5481,0.0,0.0,0.0,0.0,3.5221,3.5176,3.5147,3.5041,3.5041,3.4965,3.4769,3.4785,3.4761,3.4721,3.4284,3.4284,3.4697,3.3755,3.3581,3.405,3.3529,3.3309,3.3309,3.3309,3.3309,3.3309,3.3319,3.3662,3.4194,3.4219,3.46,3.5084,3.5025,3.5018,3.5018,3.4864,3.5256,3.5933,3.6464,3.7636,3.8889,3.9045,3.9335,0.0,0.0,3.9411,3.9451,3.9223,3.9178,3.9178,3.9157,3.8864,3.8513,3.8191,3.822,3.8065,0.0,3.7062,3.7285,3.7939,0.0,3.8145,3.8533,3.8555,3.8322,3.7732,3.7612,3.7475,3.7127,3.7102,3.7102,3.7102,3.7245,3.727,3.7127,3.7501,3.7655,3.7558,3.7817,3.8242,3.8854,3.8812,0.0,0.0,0.0,0.0,0.0,0.0,0.0,0.0,0.0,0.0,0.0,0.0,0.0,0.0,0.0,0.0,0.0,0.0,0.0,0.0,0.0,0.0,0.0,0.0,0.0,0.0,0.0,0.0,3.5061,3.4868,0.0,0.0,3.5232,3.5363,3.5481,3.5453,3.5402,3.5397,3.5397,3.5214,3.4793,3.4793,3.4642,3.4341,3.4184,3.4025,3.3832,3.3477,3.3398,3.3581,3.3372,3.3309,3.3324,3.3751,3.3941,3.3972,3.4446,3.4233,3.3674,3.4106,3.4406,3.4646,3.5094,3.5696,3.6232,3.5782,3.6299,3.7127,3.7079,3.7614,3.8317,3.8592,3.9023,3.9432,3.9367,3.9367,3.9388,3.9305,3.9284,3.9284,3.9284,3.9395,3.9437,3.9319,3.9484,3.9597,3.9274,3.8342,3.786,3.8571,3.8618,3.886,3.9841,3.9823,3.9573,3.9126,3.9093,3.8941,3.8546,3.8536,3.8536,3.8536,3.8641,3.8744,3.8779,3.8984,3.9268,3.9607,3.972,3.979,3.9869,3.9979,4.0063,0.0,0.0,0.0,0.0,0.0,0.0,0.0,0.0,0.0,0.0,0.0,0.0,0.0,0.0,0.0,0.0,0.0,0.0,0.0,0.0,0.0,0.0,0.0,0.0,0.0,0.0,3.464,3.5061,3.4688,3.4512,3.4774,3.4736,3.4752,3.4878,3.4847,3.4816,3.4816,3.4998,3.4927,3.4586,3.4714,3.4642,3.4358,3.4333,3.4298,3.4227,3.4227,3.434,3.4581,3.4356,3.4277,3.4282,3.4571,3.4668,3.4699,3.5189,3.4841,3.4051,3.4494,3.4668,3.4715,3.5205,3.5844,3.646,3.6249,3.6832,3.7661,3.7776,3.8162,3.8676,3.9048,3.9562,4.0009,4.0009,4.0034,4.0095,4.0095,4.0095,4.0095,4.0095,4.0179,4.0256,4.0256,4.0339,4.0368,4.0245,3.9445,3.8894,3.9306,3.9252,3.9495,4.0453,4.0392,4.0212,4.0221,4.0037,3.9798,3.9537,3.9511,3.9458,3.9299,3.9687,3.9816,3.9573,3.9918,4.0229,4.0434,4.0689,4.085,4.0873,4.1088,4.0981,4.0504,0.0,0.0,0.0,0.0,0.0,0.0,0.0,0.0,0.0,0.0,0.0,0.0,0.0,0.0,0.0,0.0,0.0,0.0,0.0,0.0,0.0,0.0,0.0,3.4968,3.5001,3.4971,3.5038,3.4878,3.4601,3.421,3.4118,3.3873,3.3372,3.3361,3.3346,3.3398,3.3899,3.4176,3.4208,3.4643,3.4866,3.4875,3.4851,3.5215,3.5992,3.5992,3.6357,3.7044,3.6447,3.6184,3.6157,3.5657,3.5426,3.5426,3.5442,3.5458,3.5458,3.5426,3.5426,3.5426,3.5442,3.5486,3.5581,3.6273,3.6878,3.753,3.8532,3.9463,4.0277,4.0631,4.1035,4.1403,4.1403,4.1493,4.1604,4.1604,4.1604,4.1604,4.1604,4.1295,4.1024,4.1024,4.0707,4.0343,4.0011,4.0229,4.0319,3.9935,3.9875,3.9944,4.0136,4.0003,0.0,4.0683,4.0229,3.9901,3.9901,3.9901,3.9746,3.9352,4.022,4.0385,3.9362,4.012,4.0319,3.9755,4.0463,4.1155,4.175,4.2035,4.1835,4.1117,0.0,0.0,0.0,0.0,0.0,0.0,0.0,0.0,0.0,0.0,0.0,0.0,0.0,0.0,0.0,0.0,0.0,0.0,0.0,0.0,0.0,0.0,3.4528,3.4341,3.3995,3.3764,3.3799,3.3739,3.3652,3.3565,3.3513,3.3755,3.435,3.4399,3.4697,3.5442,3.5616,3.596,3.6559,3.6268,3.6198,3.639,3.5962,3.5677,3.5556,3.5556,3.5668,3.5844,3.5696,3.5613,3.5629,3.5973,3.6137,3.6156,3.669,3.6941,3.6877,3.6342,3.6137,3.62,3.6722,3.7183,3.7632,3.8659,3.9006,3.9118,4.0136,4.0517,4.0638,4.1082,4.1312,4.1426,4.1515,4.156,4.1604,4.1604,4.1604,4.1604,4.1604,4.1515,4.1431,4.1431,4.1363,4.1232,4.1157,4.1226,4.089,3.9677,3.9458,3.9468,3.953,0.0,0.0,3.9687,3.9573,3.9635,4.007,4.012,4.0053,3.9952,4.0302,4.0245,0.0,3.9918,4.007,3.9995,4.0204,4.0577,4.1133,4.1609,4.1687,0.0,0.0,0.0,0.0,0.0,0.0,0.0,0.0,0.0,0.0,0.0,0.0,0.0,0.0,0.0,0.0,0.0,0.0,0.0,0.0,0.0,0.0,3.46,3.4471,3.3732,3.3445,3.3309,3.3309,3.3256,3.3229,3.3229,3.3229,3.345,3.3951,3.4068,3.4439,3.5254,3.5475,3.5944,3.6714,3.661,3.6638,3.6859,3.6542,3.6415,3.648,3.648,3.6669,3.6959,3.6726,3.6598,0.0,3.679,3.6864,3.6896,3.7306,3.751,0.0,0.0,0.0,0.0,0.0,3.7714,3.8071,3.8712,3.8849,3.8838,3.9516,3.9765,3.9842,4.0235,4.048,4.0672,4.1059,4.1192,4.1255,4.152,4.1604,4.1604,4.1604,4.1604,4.1604,4.1604,4.1604,4.156,4.1386,0.0,0.0,3.9935,3.9901,4.0054,4.0162,4.0003,3.9952,0.0,4.0112,4.0062,4.0237,4.0424,4.04,4.002,4.0466,0.0,0.0,0.0,4.0311,4.0441,4.0441,0.0,0.0,0.0,4.1338,0.0,0.0,0.0,0.0,4.1235,4.1358,0.0,0.0,0.0,0.0,0.0,0.0,0.0,0.0,0.0,0.0,0.0,0.0,0.0,0.0,0.0,0.0,3.4431,3.4301,3.3303,3.3282,3.3335,3.3282,3.315,3.3085,3.3085,3.3085,3.3074,3.3099,3.3206,3.3531,3.414,0.0,0.0,0.0,0.0,3.6578,3.6865,3.6813,3.7193,3.7933,3.7933,3.8321,3.899,3.8435,3.821,3.8181,3.7714,3.751,3.751,3.751,3.751,3.751,3.751,3.751,3.751,3.751,3.7524,0.0,0.0,0.0,0.0,3.7972,3.8282,3.8613,3.887,3.9203,3.963,4.0334,4.0528,4.0689,4.13,4.1453,4.1453,4.1453,4.1498,4.1555,4.1643,4.1705,4.1651,4.1313,4.1307,4.1196,4.0796,4.0827,4.1007,4.126,4.0959,0.0,4.1553,4.1423,4.1108,4.0798,0.0,0.0,4.029,4.106,4.1179,4.0205,4.0722,4.1015,4.0942,4.0924,4.0937,4.1001,4.1001,4.0825,4.0485,4.0571,4.0678,4.0817,4.1029,4.1129,0.0,0.0,0.0,0.0,0.0,0.0,0.0,0.0,0.0,0.0,0.0,0.0,0.0,0.0,0.0,3.5243,3.5098,3.4704,3.3665,3.3559,3.3503,3.3176,3.3032,3.2924,3.2924,3.2924,3.3316,3.4202,3.4303,3.4792,3.5855,3.6003,0.0,3.7134,3.6928,3.7141,3.7822,3.7514,3.7438,3.7594,0.0,0.0,3.7831,3.7714,3.7655,3.7655,3.7569,3.751,3.751,3.751,3.751,3.751,3.751,3.751,3.751,3.751,3.7786,3.8141,3.8141,3.8451,3.8882,3.8936,3.9001,3.9082,3.9236,3.9368,0.0,3.9986,4.0128,4.0203,4.0546,4.0618,4.0618,4.0618,4.089,4.1291,4.1939,4.2346,4.2631,4.2822,4.3119,4.3214,4.2829,4.1508,4.0521,4.0587,4.107,4.153,4.1877,4.2379,4.2919,4.3525,4.37,4.366,4.3502,4.3762,4.365,4.296,4.276,4.2205,4.1189,4.1129,4.0866,4.0303,4.0286,4.032,4.0337,4.095,4.1348,4.1572,4.1044,4.0864,0.0,0.0,0.0,0.0,0.0,0.0,0.0,0.0,0.0,0.0,0.0,3.6402,0.0,0.0,3.5924,3.4783,3.5005,3.4816,3.3439,3.3413,3.3403,3.3043,3.2854,3.2746,3.2746,3.3084,3.3478,3.3964,3.4408,3.5023,3.5899,3.5947,3.6305,3.709,3.6906,3.7067,3.7637,3.7812,3.7941,3.8002,3.8333,3.8491,3.8491,3.8491,3.8491,3.8491,3.8491,3.8491,3.8491,3.8491,3.8713,3.9044,3.9044,3.8427,3.7541,3.7875,3.818,3.8446,3.8782,3.9087,3.935,3.935,3.935,3.935,3.9421,3.9433,3.963,4.054,4.0807,4.1028,4.2047,4.2308,4.2351,4.2551,4.2749,4.3005,4.3426,4.3664,4.3836,4.4036,4.4216,4.4293,4.4105,4.3262,4.2501,4.2206,4.2735,4.3212,4.3318,4.4213,4.4927,4.5135,4.5465,4.5441,4.4784,4.4435,4.4132,4.3816,4.3604,4.3093,4.2193,4.2151,4.1852,4.1213,4.1213,4.1239,4.129,4.1663,4.1954,4.2134,4.1758,4.1763,0.0,0.0,0.0,0.0,0.0,0.0,0.0,0.0,3.6237,3.6237,3.6237,3.6131,3.5744,3.5898,3.5644,3.4276,3.4688,3.4657,3.3198,3.3203,3.3261,3.3041,3.2726,3.2597,3.2736,3.3274,3.3679,3.3783,3.4454,3.5101,3.5675,3.5676,3.5983,3.6646,3.6817,3.7033,3.7292,3.8043,3.8497,3.859,3.9156,3.9409,3.9409,3.944,3.9456,3.9456,3.9661,3.9708,3.9724,3.985,4.0261,4.0798,4.0798,3.9756,3.8364,3.876,3.8918,3.8965,3.936,3.9503,3.9518,3.9677,3.9708,3.974,3.9866,3.9914,4.0166,4.1365,4.1711,4.2038,4.3581,4.398,4.4066,4.4468,4.4625,4.4714,4.4895,4.4984,4.5046,4.5116,4.5188,4.5216,4.5133,4.5188,4.4976,4.4192,4.4578,4.5006,4.5115,4.6182,4.6804,4.65,4.6997,4.692,4.5833,4.5247,4.49,4.4783,4.4783,4.4474,4.3792,4.364,4.3348,4.277,4.277,4.277,4.277,4.2878,4.3044,4.3151,4.3304,4.3278,3.6139,3.6255,3.6204,3.6204,3.6122,3.6041,0.0,0.0,3.6041,3.6041,3.6041,3.6019,3.5975,3.5616,3.5266,3.5081,3.4624,3.4112,3.3459,3.3261,3.3249,3.3326,3.2795,3.2656,3.3257,3.3396,3.395,3.5153,3.5352,3.5691,3.6338,3.6384,3.6446,3.6523,3.7218,3.7622,3.7654,3.848,3.8934,3.895,3.9029,3.9075,3.9075,3.9219,3.933,3.9377,4.015,4.0482,4.0514,4.1114,4.1399,4.1478,4.1478,4.1336,4.1067,4.0561,4.0372,4.0277,3.9708,3.9503,3.9613,4.0261,4.0482,4.0593,4.1178,4.1351,4.1465,4.1933,4.2062,4.2237,4.3021,4.3221,4.3312,4.3641,4.4006,4.4444,4.518,4.5631,4.5943,4.6245,4.6598,4.6725,4.6364,4.6627,4.6357,4.492,4.5364,4.6089,4.6673,4.7482,4.8128,4.8441,4.854,4.843,4.8056,4.8378,4.8405,4.794,4.7914,4.7343,4.6176,4.5657,4.5049,4.4361,4.4344,4.4344,4.4344,4.4993,4.5399,4.5529,4.6204,4.5148,3.6023,3.6165,0.0,0.0,3.5975,3.5997,3.5997,3.5997,3.5997,3.5997,3.5997,3.5893,3.5594,3.5351,3.4971,0.0,3.3912,3.3521,3.2879,3.3119,3.3339,3.3396,3.3521,3.375,3.4027,3.4383,3.486,3.5475,3.5845,3.6184,3.6476,3.6492,3.6692,3.7172,3.7528,3.7948,3.8447,3.9196,3.9572,3.9572,4.0025,4.0228,4.0228,4.031,4.0562,4.0953,4.1708,4.204,4.2106,4.2475,4.2871,4.3233,4.3371,4.3674,4.3864,4.2363,4.181,4.1825,4.192,4.1952,4.1983,4.2315,4.241,4.2473,4.2726,4.2821,4.295,4.3448,4.3593,4.3824,4.4715,4.4962,4.5128,4.5684,4.5923,4.6227,4.6795,4.7049,4.7194,4.7356,4.75,4.7563,4.7406,4.75,4.7407,4.6756,4.7048,4.7427,4.773,4.8564,4.9264,4.9599,4.9196,4.8934,4.8916,4.8705,4.8518,4.8425,4.8399,4.8006,4.7192,4.6917,4.6505,4.5901,4.5872,4.5872,4.5872,4.6177,4.6358,4.6416,4.6721,4.6225,3.5997,0.0,0.0,3.5839,3.5861,3.5888,3.5888,3.5888,3.5888,3.5888,3.5888,3.5739,3.5191,3.4965,3.4544,3.3521,3.3209,3.3011,3.2727,3.309,3.3537,3.3937,3.4459,3.4859,3.5044,3.5337,3.5598,3.5753,3.6215,3.6492,3.6492,3.6676,3.7047,3.7636,3.8007,3.8504,3.913,3.9814,4.0155,4.0155,4.0683,4.1041,4.1243,4.1482,4.1859,4.2412,4.3098,4.3395,4.341,4.3756,4.4167,4.4642,4.4838,4.5241,4.5561,4.4101,4.3421,4.3295,4.3611,4.3706,4.3722,4.3927,4.3955,4.4022,4.4211,4.429,4.4401,4.4891,4.5017,4.5183,4.6051,4.6285,4.6496,4.7236,4.7404,4.7521,4.7886,4.8001,4.8001,4.8001,4.8001,4.8001,4.8001,4.8001,4.8001,4.8001,4.8109,4.826,4.8379,4.909,4.9664,4.9861,4.9258,4.8902,4.9067,4.8744,4.8568,4.8711,4.8782,4.862,4.8252,4.8071,4.7802,4.7394,4.7411,4.7411,4.7411,4.7556,4.7454,4.7107,4.725,4.7148,0.0,0.0,3.5817,3.5795,3.5706,3.5622,3.5622,3.5622,3.5622,3.5622,3.5622,3.5447,3.4904,3.4382,3.3843,3.3303,3.2776,3.2656,3.3275,3.3398,3.3906,3.526,3.5475,3.5737,0.0,3.5861,3.5753,3.6415,3.6476,3.6492,3.6492,3.7107,3.7477,3.7507,3.8769,3.9477,3.9477,4.0155,4.0493,4.0493,4.0524,4.0893,4.1621,4.2381,4.2854,4.3129,4.3764,4.406,4.4123,4.4861,4.5173,4.5188,4.541,4.5499,4.5552,4.5672,4.5254,4.4559,4.3908,4.3687,4.3797,4.448,4.4685,4.4812,4.5523,4.5744,4.576,4.5776,4.5776,4.5848,4.6195,4.6285,4.6496,4.7236,4.7404,4.7521,4.7886,4.8001,4.8001,4.8001,4.8001,4.8001,4.8001,4.8001,4.8001,4.8001,4.8017,4.8178,4.8637,4.8875,4.9032,4.9032,4.8702,4.8513,4.8528,4.9154,4.9548,4.9548,4.9729,4.985,4.9821,4.9265,4.8934,4.8934,4.8934,4.8934,4.8934,4.9517,4.9157,4.7885,4.8483,4.806,0.0,0.0,3.5773,3.5706,3.5622,3.56,3.56,3.56,3.56,3.56,3.56,3.5424,3.4904,3.4649,3.4358,3.3818,3.363,3.3635,3.3789,3.4372,3.4923,3.5247,3.5815,0.0,0.0,0.0,0.0,3.6476,3.6492,3.6492,3.6492,3.7138,3.7707,3.8154,3.9013,3.9705,4.0151,4.0382,4.0489,4.0505,4.1016,4.1601,4.2294,4.2998,4.3364,4.3484,4.4164,4.4421,4.4474,4.4818,4.5002,4.5039,4.5368,4.5515,4.5515,4.5735,4.5649,4.5412,4.5191,4.5076,4.5144,4.5365,4.5444,4.5491,4.5728,4.5807,4.5807,4.5807,4.5807,4.5844,4.5936,4.5956,4.61,4.6547,4.6671,4.686,4.7454,4.7588,4.7671,4.7968,4.8001,4.8001,4.8001,4.8001,4.8001,4.8001,4.8001,4.8066,4.8212,4.8308,4.8357,4.8357,4.8261,4.8212,4.8292,4.8513,4.8779,4.906,4.9138,4.9199,4.9303,4.9107,4.9001,4.9001,4.8528,4.8291,4.8291,4.7988,4.779,4.7706,4.7916,4.7955,0.0,3.5773,3.5706,3.5622,3.56,3.56,3.56,3.56,3.56,3.56,3.56,3.5424,3.4904,3.4585,3.4423,3.4426,3.4117,3.4072,3.4657,3.5186,3.5584,3.589,3.626,0.0,0.0,0.0,0.0,3.6492,3.6492,3.6599,3.6846,3.7492,3.8169,3.8846,3.949,4.0043,4.0489,4.0489,4.0628,4.0924,4.1863,4.2525,4.2971,4.367,4.3978,4.3994,4.4425,4.461,4.461,4.4723,4.4799,4.4836,4.5167,4.5315,4.5405,4.5625,4.5735,4.5807,4.5807,4.5807,4.5807,4.5807,4.5807,4.5807,4.5807,4.5807,4.5807,4.5807,4.5807,4.5807,4.5807,4.5807,4.5864,4.623,4.6285,4.6496,4.7236,4.7404,4.7521,4.7919,4.8001,4.8001,4.8001,4.8001,4.8001,4.8001,4.8001,4.8001,4.8001,4.8001,4.8001,4.8001,4.8001,4.8033,4.8115,4.8227,4.8436,4.8675,4.8565,4.8506,4.8612,4.8359,4.8206,4.8206,4.775,4.7513,4.7513,4.7409,4.7327,4.7224,4.7604,4.7709,3.5795,3.5689,3.56,3.56,3.56,3.56,3.56,3.56,3.56,3.56,3.56,3.5464,0.0,0.0,3.4194,3.5133,3.4187,3.3981,3.5819,3.576,3.5938,0.0,0.0,0.0,0.0,0.0,0.0,3.6492,0.0,3.6784,3.7461,3.8138,3.8831,3.9459,4.0136,4.0489,4.0489,4.0536,4.0955,4.1724,4.3008,4.3624,4.3685,4.4317,4.461,4.461,4.461,4.461,4.461,4.461,4.461,4.461,4.4836,4.5002,4.522,4.5442,4.5625,4.5771,4.5807,4.5807,4.5807,4.5807,4.5807,4.5807,4.5807,4.5807,4.5807,4.5807,4.5807,4.5807,4.5807,4.5807,4.5864,4.6195,4.6301,4.6496,4.7202,4.7371,4.7521,4.7902,4.8001,4.8001,4.8001,4.8001,4.8001,4.8001,4.8001,4.8001,4.8001,4.8001,4.8001,4.8001,4.8001,4.7984,4.7951,4.8258,4.8416,4.8366,4.8026,4.7838,4.7838,4.7175,4.6786,4.6786,4.6752,4.6735,4.6735,4.7748,4.7631,4.6485,4.7537,4.737,3.5644,3.5622,3.56,3.56,3.56,3.56,3.56,3.56,3.56,3.56,3.56,3.5746,0.0,0.0,0.0,3.6193,3.5653,0.0,3.5607,3.5861,0.0,3.6266,0.0,3.6335,3.6503,3.6302,0.0,0.0,3.6414,3.6784,3.7461,3.8138,3.8831,3.9459,4.0136,4.0489,4.0489,4.1063,4.1909,4.31,4.3454,4.387,4.4363,4.4533,4.461,4.461,4.461,4.461,4.461,4.461,4.461,4.461,4.4836,4.4911,4.5039,4.5352,4.5515,4.5589,4.5735,4.5807,4.5807,4.5807,4.5807,4.5807,4.5807,4.5807,4.5807,4.5807,4.5807,4.5807,4.5807,4.5807,4.5807,4.59,4.612,4.6356,4.6531,4.7015,4.7438,4.7521,4.777,4.8001,4.8001,4.8001,4.8001,4.8001,4.8001,4.8001,4.8001,4.8001,4.8001,4.8001,4.8001,4.7785,4.7222,4.7269,4.7195,4.6893,4.6767,4.6834,4.7073,4.6887,4.6786,4.6786,4.6261,4.5974,4.5974,4.6048,4.6126,4.6215,4.6891,4.7236,3.56,3.56,3.56,3.56,3.56,3.56,3.56,3.56,3.56,3.56,3.5893,0.0,0.0,0.0,0.0,0.0,0.0,0.0,3.5936,3.606,3.616,0.0,3.6204,0.0,3.6528,3.6204,3.6037,0.0,3.6226,3.6749,3.7892,3.8242,3.8888,3.9905,4.029,4.0643,4.1001,4.1971,4.2869,4.3608,4.3917,4.4255,4.461,4.461,4.461,4.461,0.0,4.461,4.461,4.461,4.461,4.461,4.4723,4.4836,4.4911,4.5151,4.5352,4.5515,4.5625,4.5735,4.5807,4.5807,4.5807,4.5807,4.5807,4.5807,4.5807,4.5807,4.5807,4.5807,4.5807,4.5807,4.5807,4.5807,4.592,4.6191,4.6477,4.6756,4.7015,4.7337,4.7704,4.8001,4.8001,4.8001,4.8001,4.8001,4.7719,4.752,4.752,4.752,4.752,4.752,4.7222,4.6874,4.6444,4.6522,4.6433,4.6249,4.5959,4.5924,4.6178,4.5887,4.5747,4.5821,4.5415,4.5213,4.5213,4.5267,4.5459,4.5767,4.6525,4.7062,3.56,3.56,3.56,3.56,3.56,3.56,3.56,3.56,3.56,3.56,0.0,3.6829,3.6931,0.0,3.6378,3.7605,0.0,3.54,3.6322,3.6243,3.6203,3.6537,3.6211,3.6201,3.6778,3.629,3.5941,3.5973,3.6032,3.6753,3.8381,3.8435,3.9063,4.0459,4.0582,4.1016,4.1724,4.2992,4.3655,4.3747,4.4332,4.461,4.461,4.461,4.461,4.461,0.0,0.0,4.461,4.461,4.461,4.461,4.461,4.4685,4.4874,4.4911,4.5151,4.5478,4.5515,4.5662,4.5807,4.5807,4.5807,4.5807,4.5807,4.5807,4.5807,4.5807,4.5807,4.5807,4.5807,4.5844,4.588,4.588,4.5916,4.6116,4.6703,4.6547,4.6531,4.727,4.7671,4.7935,4.8001,4.7918,4.7852,4.7852,4.7222,4.6742,4.6742,4.6742,4.6742,4.6742,4.6179,4.5748,4.5649,4.582,4.5879,4.5827,4.5313,4.5094,4.5257,4.4646,4.4395,4.4615,4.4615,4.4615,4.4615,4.5072,4.5329,4.5433,4.643,4.6931,3.56,3.56,3.56,3.56,3.56,3.56,3.56,3.56,0.0,0.0,0.0,3.6998,3.7601,3.756,0.0,3.7774,0.0,0.0,0.0,0.0,3.6414,0.0,0.0,0.0,0.0,0.0,0.0,0.0,0.0,0.0,3.8262,3.8797,3.9489,4.0474,4.1109,4.174,4.2432,4.3223,4.3886,4.444,4.4526,4.461,4.461,4.461,4.461,4.461,0.0,0.0,4.461,4.461,4.461,4.461,4.461,4.461,4.4685,4.5017,4.5182,4.5294,4.5625,4.5771,4.5807,4.5807,4.5807,4.5807,4.5807,4.5807,4.5807,4.5807,4.5807,4.5807,4.5807,4.6028,4.6195,4.6195,4.6458,4.6633,4.6442,4.6356,4.6531,4.727,4.7454,4.7588,4.7935,4.7487,4.709,4.709,4.646,4.598,4.598,4.598,4.598,4.598,4.5864,4.5533,4.492,4.4917,4.476,4.4314,4.4177,4.424,4.4466,4.4377,4.4395,4.4615,4.4615,4.4615,4.4615,4.5072,4.5537,4.5992,4.6613,4.7129,3.56,3.56,3.56,3.56,3.56,3.56,3.56,0.0,0.0,0.0,0.0,3.7601,3.8345,0.0,0.0,0.0,0.0,0.0,0.0,0.0,0.0,0.0,0.0,0.0,0.0,0.0,0.0,0.0,0.0,0.0,3.8077,3.9086,4.0043,4.1028,4.1633,4.236,4.3094,4.3809,4.4302,4.461,4.461,4.461,4.461,4.461,4.461,4.461,0.0,0.0,4.461,4.461,4.461,4.461,4.461,4.461,4.461,4.4814,4.4927,4.5077,4.5262,4.5463,4.5625,4.5625,4.5698,4.5807,4.5807,4.5807,4.5807,4.5807,4.5807,4.5807,4.5807,4.5936,4.6084,4.6266,4.6756,4.7082,4.6687,4.6894,4.7218,4.7371,4.7259,4.721,4.7389,4.6825,4.6328,4.6328,4.5698,4.5218,4.5218,4.4887,4.4804,4.5185,4.4887,4.4522,4.4175,4.4141,4.4022,4.375,4.3734,4.3864,4.4167,4.4212,4.4327,4.4598,4.4615,4.4615,4.4615,4.4841,4.5079,4.5354,4.6116,4.6637,3.5577,3.5577,3.56,3.5532,3.5577,3.56,3.5577,3.5577,0.0,0.0,3.7381,3.8125,3.8853,0.0,0.0,0.0,0.0,0.0,0.0,0.0,0.0,0.0,0.0,0.0,0.0,0.0,0.0,0.0,0.0,0.0,0.0,3.948,4.0664,4.15,4.2211,4.2886,4.3593,4.4271,4.461,4.461,4.461,4.461,4.461,4.461,4.461,4.461,0.0,0.0,0.0,4.461,4.461,4.461,4.461,4.461,4.461,4.4663,4.4761,4.4911,4.4964,4.5204,4.5515,4.5515,4.5625,4.5807,4.5807,4.5807,4.5807,4.5807,4.5807,4.5807,4.5807,4.5828,4.5992,4.6353,4.686,4.7218,4.6945,4.7222,4.7441,4.7209,4.6848,4.6595,4.6659,4.6046,4.5549,4.5549,4.4937,4.4456,4.4456,4.3976,4.3813,4.439,4.3959,4.3598,4.3598,4.3598,4.3598,4.3598,4.3598,4.3747,4.4097,4.4097,4.4258,4.4598,4.4615,4.4615,4.4615,4.4615,4.4654,4.4759,4.5554,4.6137,3.552,3.5549,3.5554,3.5367,3.5458,3.5577,3.552,0.0,0.0,3.6643,3.7381,3.8125,3.8853,3.9555,3.9756,0.0,0.0,0.0,0.0,0.0,0.0,0.0,0.0,0.0,0.0,0.0,0.0,0.0,0.0,0.0,0.0,4.0269,4.1224,4.1306,4.2744,4.351,4.3608,4.4271,4.461,4.461,4.461,4.461,4.461,4.461,4.461,4.461,0.0,0.0,0.0,4.461,4.461,4.461,4.461,4.461,4.461,4.4799,4.4874,4.4911,4.5092,4.5331,4.5515,4.5515,4.5625,4.5807,4.5807,4.5807,4.5807,4.5807,4.5807,4.5807,4.5807,4.6028,4.6337,4.6738,4.6876,4.6945,4.6927,4.6442,4.6073,4.6356,4.5897,4.555,4.5866,4.5284,4.4818,4.4818,4.4175,4.3698,4.3698,4.3631,4.3615,4.3681,4.3631,4.3598,4.3598,4.3598,4.3598,4.3598,4.3598,4.3747,4.4097,4.4097,4.4258,4.4598,4.4615,4.4615,4.4615,4.4615,4.4814,4.5241,4.5329,4.6285,3.5514,3.5537,3.552,3.5446,3.5475,3.552,3.5514,0.0,0.0,3.7297,3.8041,3.8761,3.9429,3.9775,3.9816,0.0,0.0,0.0,0.0,0.0,0.0,0.0,0.0,0.0,0.0,0.0,0.0,0.0,0.0,0.0,0.0,3.9953,4.1252,4.2278,4.2788,4.3358,4.4036,4.4297,4.4473,4.461,4.461,4.461,4.461,4.461,4.461,4.461,0.0,0.0,0.0,4.461,4.461,4.461,4.461,4.461,4.461,4.4685,4.4723,4.4723,4.4814,4.4964,4.5151,4.5294,4.5442,4.5625,4.5771,4.5807,4.5807,4.5807,4.5807,4.5807,4.5807,4.6048,4.6391,4.6807,4.7048,4.7138,4.6947,4.6668,4.6388,4.6072,4.5445,4.4964,4.5119,4.4522,4.4042,4.4042,4.378,4.3598,4.3598,4.3598,4.3598,4.3598,4.3598,4.3598,4.3598,4.3598,4.3598,4.3598,4.3598,4.3747,4.4097,4.4406,4.4575,4.4615,4.4879,4.4879,4.4615,4.4615,4.493,4.5561,4.6204,4.7146,3.5452,3.5469,3.5469,3.5337,3.5423,3.5559,0.0,0.0,3.706,3.7993,3.8576,3.9126,3.9741,3.9849,3.9798,0.0,0.0,0.0,0.0,0.0,0.0,0.0,0.0,0.0,0.0,0.0,0.0,0.0,0.0,0.0,0.0,3.9963,4.1355,4.2879,4.303,4.344,4.4205,4.4205,4.4281,4.4435,4.4473,4.4511,4.4511,4.4572,4.461,0.0,0.0,0.0,0.0,4.461,4.461,4.461,4.461,4.461,4.461,4.461,4.461,4.461,4.461,4.4723,4.4911,4.5129,4.5331,4.5552,4.5735,4.5807,4.5807,4.5807,4.5807,4.5807,4.5807,4.5992,4.6246,4.6633,4.6749,4.6762,4.6732,4.6384,4.597,4.5566,4.487,4.4373,4.4373,4.3959,4.3598,4.3598,4.3598,4.3598,4.3598,4.3598,4.3598,4.3598,4.3598,4.3598,4.3598,4.3598,4.3598,4.3598,4.3598,4.3747,4.4097,4.4446,4.4697,4.4814,4.4998,4.4981,4.4814,4.4902,4.5179,4.5732,4.669,4.7718,3.536,3.54,3.5383,3.4994,3.5198,3.5654,0.0,0.0,3.7172,3.8529,3.8782,3.8992,3.9595,3.9703,3.9755,3.9875,0.0,0.0,0.0,0.0,0.0,0.0,0.0,0.0,0.0,0.0,0.0,0.0,0.0,0.0,0.0,0.0,4.1798,4.268,4.3523,4.3972,4.3988,4.3988,4.4026,4.4026,4.4205,4.4281,4.432,4.4511,0.0,0.0,0.0,0.0,0.0,4.461,4.461,4.461,4.461,4.461,4.461,4.461,4.461,4.461,4.461,4.4723,4.4911,4.5129,4.5331,4.5552,4.5735,4.5807,4.5807,4.5807,4.5807,4.5807,4.5807,4.5807,4.59,4.6246,4.5824,4.5484,4.6159,4.5209,4.4304,4.4644,4.4125,4.3615,4.3615,4.3598,4.3598,4.3598,4.3598,4.3598,4.3598,4.3598,4.3598,4.3598,4.3598,4.3598,4.3598,4.3598,4.3598,4.3598,4.3598,4.3747,4.4097,4.4097,4.4474,4.5276,4.4824,4.4824,4.5276,4.5563,4.5703,4.572,4.6476,4.7786,3.5452,3.5469,3.5446,3.5222,3.5723,3.6236,3.6257,0.0,3.8276,3.8581,3.9067,3.9435,3.954,3.9563,3.9415,3.8892,3.9222,0.0,0.0,0.0,0.0,0.0,0.0,0.0,0.0,0.0,0.0,0.0,0.0,0.0,0.0,0.0,4.1931,4.3079,4.3397,4.3621,4.3808,4.3793,4.3871,4.3988,4.4205,4.4281,4.432,4.4511,0.0,0.0,0.0,0.0,0.0,4.461,4.461,4.461,4.461,4.461,4.461,4.461,4.461,4.461,4.461,4.4648,4.4723,4.4927,4.5129,4.5331,4.5552,4.5698,4.5807,4.5807,4.5807,4.5807,4.5807,4.5807,4.5753,4.5655,4.5437,4.5158,4.4643,4.4347,4.4078,4.3692,4.3581,4.3598,4.3598,4.3598,4.3598,4.3598,4.3598,4.3598,4.3598,4.3598,4.3598,4.3598,4.3598,4.3598,4.3598,4.3598,4.3598,4.3598,4.3598,4.3717,4.3939,4.4259,4.4496,4.4597,4.4818,4.5145,4.558,4.5654,4.6442,4.7843,4.8598,4.9636,0.0,3.5694,3.5872,3.5686,3.6333,0.0,0.0,0.0,3.8816,3.8906,3.9298,3.959,3.9432,3.9405,3.9185,3.849,0.0,0.0,0.0,0.0,0.0,0.0,0.0,0.0,0.0,0.0,0.0,0.0,0.0,0.0,0.0,0.0,4.1504,4.2566,4.3035,4.3384,4.3557,4.3557,4.3596,4.3738,4.3988,4.405,4.4089,0.0,0.0,0.0,0.0,0.0,0.0,4.461,4.461,4.461,4.461,4.461,4.461,4.461,4.461,4.461,4.461,4.461,4.461,4.4836,4.5039,4.5257,4.5442,4.5625,4.5807,4.5807,4.5807,4.5807,4.5807,4.5602,4.5322,4.511,4.4687,4.4152,4.3653,4.3555,4.3482,4.3164,4.3372,4.3598,4.3598,4.3598,4.3598,4.3598,4.3598,4.3598,4.3598,4.3598,4.3598,4.3598,4.3598,4.3598,4.3598,4.3598,4.3598,4.3598,4.3598,4.3687,4.3898,4.4219,4.4468,4.4597,4.508,4.5555,4.5982,4.6377,4.7347,4.8888,4.9596,5.03,0.0,0.0,0.0,0.0,0.0,0.0,0.0,0.0,0.0,3.9404,3.9501,3.9448,3.9325,3.9272,3.905,3.8518,0.0,0.0,0.0,0.0,0.0,0.0,0.0,0.0,0.0,0.0,0.0,0.0,0.0,0.0,0.0,0.0,0.0,4.1294,4.2536,4.3185,4.323,4.3275,4.329,4.329,4.3557,4.369,4.3729,0.0,0.0,0.0,0.0,0.0,0.0,4.4572,4.461,4.461,4.461,4.461,4.461,4.461,4.461,4.461,4.461,4.461,4.461,4.4836,4.5039,4.522,4.5405,4.5625,4.5771,4.5823,4.5807,4.5807,4.5744,4.5223,4.4685,4.4591,4.3611,4.2764,4.3018,4.2816,4.2648,4.3005,4.3342,4.3568,4.3598,4.3598,4.3598,4.3598,4.3598,4.3598,4.3598,4.3598,4.3598,4.3598,4.3598,4.3598,4.3598,4.3598,4.3598,4.3598,4.3598,4.3687,4.3868,4.3998,4.4395,4.5086,4.5614,4.6096,4.6591,4.7542,4.8342,4.9001,4.9585,4.9861,0.0,0.0,0.0,0.0,0.0,0.0,0.0,0.0,0.0,0.0,0.0,0.0,0.0,0.0,0.0,0.0,0.0,0.0,0.0,0.0,0.0,0.0,0.0,0.0,0.0,0.0,0.0,0.0,0.0,0.0,0.0,0.0,0.0,4.0621,4.1414,4.2087,4.262,4.309,4.329,4.329,4.3557,4.369,4.3729,0.0,0.0,0.0,0.0,0.0,4.4396,4.4549,4.461,4.461,4.461,4.461,4.461,4.461,4.461,4.461,4.461,4.461,4.461,4.4836,4.4911,4.5002,4.5204,4.5405,4.5589,4.5771,4.5807,4.5681,4.5112,4.4843,4.4448,4.3406,4.2916,4.257,4.21,4.2092,4.2317,4.2648,4.2974,4.3295,4.3568,4.3598,4.3598,4.3598,4.3598,4.3598,4.3598,4.3598,4.3598,4.3598,4.3598,4.3598,4.3598,4.3598,4.3598,4.3598,4.3598,4.3628,4.3658,4.3687,4.4173,4.5175,4.6642,4.7454,4.7556,4.8369,4.8832,4.9001,4.9138,4.9466,0.0,0.0,0.0,0.0,0.0,0.0,0.0,0.0,0.0,0.0,0.0,0.0,0.0,0.0,0.0,0.0,0.0,0.0,0.0,0.0,0.0,0.0,0.0,0.0,0.0,0.0,0.0,0.0,0.0,0.0,0.0,0.0,0.0,0.0,4.0591,4.1384,4.2396,4.2701,4.3045,4.329,4.3463,4.3518,4.3503,0.0,0.0,0.0,0.0,0.0,4.4166,4.4281,4.4396,4.4458,4.4458,4.4511,4.461,4.461,4.461,4.461,4.461,4.461,4.4625,4.4723,4.4761,4.4799,4.5002,4.5204,4.5405,4.5589,4.5498,4.5207,4.4812,4.4243,4.3595,4.2868,4.2426,4.2078,4.1683,4.1851,4.2206,4.2539,4.2881,4.3204,4.3522,4.3598,4.3598,4.3598,4.3598,4.3598,4.3598,4.3598,4.3598,4.3598,4.3598,4.3598,4.3598,4.3598,4.3598,4.3598,4.3598,4.3598,4.3598,4.3687,4.4393,4.5773,4.719,4.8058,4.8426,4.8815,4.9001,4.9001,4.9001,4.9168,0.0,0.0,0.0,0.0,0.0,0.0,0.0,0.0,0.0,0.0,0.0,0.0,0.0,0.0,0.0,0.0,0.0,0.0,0.0,0.0,0.0,0.0,0.0,0.0,0.0,0.0,0.0,0.0,0.0,0.0,0.0,0.0,0.0,0.0,3.9963,4.0831,4.2096,4.2201,4.2551,4.314,4.314,4.32,4.329,4.3557,0.0,0.0,0.0,0.0,4.3949,4.3988,4.4104,4.4243,4.4281,4.4396,4.4549,4.4587,4.461,4.461,4.461,4.461,4.461,4.461,4.461,4.461,4.4799,4.5002,4.5188,4.5264,4.5011,4.4685,4.4591,4.3627,4.2663,4.2552,4.2047,4.1588,4.1588,4.1818,4.2109,4.2476,4.2743,4.3082,4.3462,4.3522,4.3522,4.3598,4.3598,4.3598,4.3598,4.3598,4.3598,4.3598,4.3598,4.3598,4.3598,4.3598,4.3598,4.3598,4.3598,4.3648,4.3747,4.4088,4.5026,4.6589,4.7561,4.8392,4.9001,4.9001,4.9001,4.9001,4.9001,4.9001,3.9204,3.8869,3.8482,3.9036,0.0,0.0,0.0,0.0,0.0,0.0,0.0,0.0,0.0,0.0,0.0,0.0,0.0,0.0,0.0,0.0,0.0,0.0,0.0,0.0,0.0,0.0,0.0,0.0,0.0,0.0,0.0,0.0,0.0,0.0,0.0,3.9933,4.0696,4.125,4.1901,4.2545,4.2545,4.2806,4.329,4.3329,4.3384,0.0,0.0,4.3769,4.3769,4.3949,4.4026,4.4065,4.4243,4.432,4.4358,4.4549,4.461,4.461,4.461,4.461,4.461,4.461,4.461,4.461,4.4648,4.4814,4.4878,4.4434,4.451,4.4591,4.3987,4.3295,4.2537,4.1904,4.1667,4.1588,4.1588,4.1654,4.1785,4.2109,4.2206,4.246,4.3082,4.3174,4.3265,4.3568,4.3598,4.3598,4.3598,4.3598,4.3598,4.3598,4.3598,4.3598,4.3598,4.3598,4.3598,4.3598,4.3598,4.3893,4.4506,4.544,4.6357,4.7242,4.8307,4.89,4.9001,4.9001,4.9001,4.9001,4.9001,4.9001,3.9401,3.9175,3.8799,3.8629,0.0,0.0,0.0,0.0,0.0,0.0,0.0,0.0,0.0,0.0,0.0,0.0,0.0,0.0,0.0,0.0,0.0,0.0,0.0,0.0,0.0,0.0,0.0,0.0,0.0,0.0,0.0,0.0,0.0,0.0,0.0,0.0,3.9873,4.0172,4.0831,4.1871,4.2231,4.256,4.2821,4.3125,4.329,4.329,0.0,4.3463,4.3503,4.3581,4.3714,4.3832,4.3949,4.4104,4.432,4.4549,4.461,4.461,4.461,4.461,4.461,4.461,4.461,4.461,4.461,4.4492,4.4322,4.407,4.3986,4.385,4.3308,4.2631,4.2015,4.1667,4.1588,4.1588,4.1588,4.1588,4.1687,4.2045,4.2109,4.2333,4.2974,4.3113,4.3204,4.3568,4.3598,4.3598,4.3598,4.3598,4.3598,4.3598,4.3598,4.3598,4.3598,4.3598,4.3598,4.3598,4.3598,4.3943,4.4655,4.5737,4.6642,4.7395,4.8444,4.9001,4.9001,4.9001,4.9001,4.9001,4.9001,4.9001,3.9432,3.9255,3.8898,3.8246,0.0,0.0,0.0,0.0,0.0,0.0,0.0,0.0,0.0,0.0,0.0,0.0,0.0,0.0,0.0,0.0,0.0,0.0,0.0,0.0,0.0,0.0,0.0,0.0,0.0,0.0,0.0,0.0,0.0,0.0,0.0,0.0,3.9337,3.9388,4.0008,4.116,4.1707,4.2111,4.2425,4.288,4.3155,4.329,4.329,4.329,4.329,4.329,4.3423,4.3596,4.3729,4.4026,4.4396,4.4511,4.4572,4.461,4.461,4.461,4.461,4.461,4.461,4.461,4.461,4.4238,4.3778,4.366,4.3354,4.2965,4.2719,4.2108,4.1588,4.1588,4.1588,4.1588,4.1588,4.1588,4.1687,4.1948,4.198,4.2158,4.2758,4.2851,4.3021,4.3432,4.3492,4.3492,4.3598,4.3598,4.3598,4.3598,4.3598,4.3598,4.3598,4.3598,4.3598,4.3598,4.3747,4.4191,4.492,4.5974,4.6879,4.7646,4.8498,4.897,4.9001,4.9001,4.9001,4.9001,4.9001,4.9001,3.9299,3.8843,3.8379,3.8278,3.825,0.0,3.7265,3.7086,0.0,3.7086,0.0,0.0,0.0,0.0,0.0,0.0,0.0,0.0,0.0,0.0,0.0,0.0,0.0,0.0,0.0,0.0,0.0,0.0,0.0,0.0,0.0,0.0,0.0,0.0,0.0,0.0,3.9104,3.9301,3.9768,4.0472,4.0516,4.119,4.2396,4.244,4.2761,4.329,4.329,4.329,4.329,4.329,4.329,4.3369,4.3817,4.4205,4.4549,4.4396,4.4435,4.461,4.461,4.461,4.461,4.461,4.461,4.461,4.461,4.4148,4.3522,4.302,4.241,4.1988,4.2354,4.2007,4.1588,4.1588,4.1588,4.1588,4.1588,4.1588,4.1621,4.1621,4.1621,4.1753,4.2109,4.2174,4.2381,4.3052,4.3143,4.3235,4.3568,4.3598,4.3598,4.3598,4.3598,4.3598,4.3598,4.3598,4.3598,4.3598,4.4241,4.4937,4.5682,4.6633,4.754,4.8383,4.8673,4.8863,4.9001,4.9001,4.9001,4.9001,4.9001,4.9001,3.9299,3.8745,3.8096,3.7648,3.7265,0.0,0.0,3.5976,3.5608,3.5608,3.5365,0.0,0.0,0.0,0.0,0.0,0.0,0.0,0.0,0.0,0.0,0.0,0.0,0.0,0.0,0.0,0.0,0.0,0.0,0.0,0.0,0.0,0.0,0.0,0.0,0.0,0.0,3.9177,3.9384,3.9798,4.0202,4.0666,4.1175,4.2036,4.253,4.2746,4.3125,4.329,4.329,4.329,4.329,4.3344,4.3817,4.4104,4.4243,4.4435,4.4534,4.461,4.461,4.461,4.461,4.461,4.461,4.4533,4.4117,4.3494,4.2869,4.2212,4.1623,4.1239,4.163,4.1561,4.1456,4.1555,4.1588,4.1588,4.1588,4.1588,4.1588,4.1588,4.1588,4.172,4.2045,4.2109,4.2333,4.3005,4.3113,4.3235,4.3568,4.3598,4.3598,4.3598,4.3598,4.3598,4.3598,4.3598,4.3598,4.3598,4.4291,4.5019,4.5765,4.6716,4.7543,4.8307,4.8627,4.8801,4.8863,4.894,4.9001,4.9001,4.9001,4.9001,3.8678,3.8153,3.7573,0.0,0.0,0.0,3.5849,3.5267,3.475,3.4698,3.4664,0.0,0.0,0.0,0.0,0.0,0.0,0.0,0.0,0.0,0.0,0.0,0.0,0.0,0.0,0.0,0.0,0.0,0.0,0.0,0.0,0.0,0.0,0.0,0.0,0.0,0.0,3.898,3.9104,3.9301,3.9763,4.0114,4.0427,4.1324,4.2006,4.2425,4.2836,4.3135,4.329,4.329,4.3344,4.3463,4.3793,4.3988,4.4143,4.4396,4.4549,4.461,4.461,4.461,4.461,4.461,4.461,4.4486,4.3809,4.311,4.2463,4.1786,4.1183,4.0765,4.1055,4.1223,4.1357,4.1555,4.1588,4.1588,4.1588,4.1588,4.1588,4.1588,4.1588,4.1687,4.1916,4.2045,4.2302,4.2851,4.3035,4.3235,4.3568,4.3598,4.3598,4.3598,4.3598,4.3598,4.3598,4.3598,4.3598,4.3598,4.4506,4.5268,4.5765,4.6869,4.768,4.8195,4.8532,4.8738,4.8818,4.8909,4.9001,4.9001,4.9001,4.9001,3.7294,3.695,0.0,0.0,0.0,0.0,3.5642,3.5252,3.4868,3.4731,0.0,0.0,0.0,0.0,0.0,0.0,0.0,0.0,0.0,0.0,0.0,0.0,0.0,0.0,0.0,0.0,0.0,0.0,0.0,0.0,0.0,0.0,0.0,0.0,0.0,0.0,0.0,3.8686,3.8907,3.9104,3.9104,3.9556,4.0382,4.0397,4.1115,4.2381,4.2396,4.2716,4.329,4.329,4.3463,4.369,4.369,4.3949,4.4281,4.4281,4.4435,4.461,4.461,4.461,4.461,4.461,4.461,4.4486,4.3809,4.311,4.2463,4.1786,4.1078,4.0558,4.0765,4.107,4.1357,4.1555,4.1588,4.1588,4.1588,4.1588,4.1588,4.1588,4.1588,4.1588,4.1588,4.1883,4.219,4.2554,4.2865,4.3204,4.3568,4.3598,4.3598,4.3598,4.3598,4.3598,4.3598,4.3598,4.3598,4.3598,4.4986,4.5798,4.5798,4.7222,4.8049,4.8195,4.8388,4.8595,4.8818,4.8909,4.9001,4.9001,4.9001,4.9001,3.7879,0.0,0.0,3.6166,0.0,0.0,0.0,3.4935,0.0,0.0,0.0,0.0,0.0,0.0,0.0,0.0,0.0,0.0,0.0,0.0,0.0,0.0,0.0,0.0,0.0,0.0,0.0,0.0,0.0,0.0,0.0,0.0,0.0,0.0,0.0,0.0,0.0,0.0,3.8686,3.8907,3.9017,3.9318,3.9723,4.0187,4.0606,4.101,4.1512,4.2081,4.2686,4.3135,4.3344,4.3423,4.3636,4.3871,4.4104,4.4243,4.4435,4.461,4.461,4.461,4.461,4.461,4.461,4.4409,4.3233,4.2756,4.2355,4.117,4.0659,4.0558,4.0765,4.0867,4.1021,4.1323,4.1489,4.1588,4.1588,4.1588,4.1588,4.1588,4.1588,4.1588,4.1588,4.1687,4.1932,4.2522,4.2679,4.2943,4.3539,4.3598,4.3598,4.3598,4.3598,4.3598,4.3598,4.3598,4.3598,4.3598,4.4986,4.5798,4.5798,4.7222,4.8049,4.8195,4.8388,4.8595,4.8818,4.8909,4.9001,4.9001,4.9001,4.9001,3.6889,0.0,0.0,3.5317,3.492,0.0,0.0,0.0,0.0,0.0,0.0,0.0,0.0,0.0,0.0,0.0,0.0,0.0,0.0,0.0,0.0,0.0,0.0,0.0,0.0,0.0,0.0,0.0,0.0,0.0,0.0,0.0,0.0,0.0,0.0,0.0,0.0,0.0,0.0,3.8686,3.8811,3.8958,3.9192,3.9755,4.0157,4.0442,4.11,4.1796,4.2425,4.2776,4.309,4.3329,4.3596,4.3754,4.391,4.4205,4.4396,4.4496,4.4572,4.461,4.461,4.461,4.461,4.4425,4.331,4.2817,4.2371,4.1263,4.072,4.0524,4.0662,4.073,4.0885,4.1223,4.139,4.1489,4.1588,4.1588,4.1588,4.1588,4.1588,4.1588,4.1588,4.172,4.1948,4.2349,4.2633,4.3005,4.3539,4.3598,4.3598,4.3598,4.3598,4.3598,4.3598,4.3598,4.3598,4.3598,4.4986,4.5798,4.5798,4.7222,4.8033,4.8115,4.8356,4.8547,4.8675,4.8909,4.9001,4.9001,4.9001,4.9001,3.5085,0.0,0.0,0.0,0.0,0.0,0.0,0.0,0.0,0.0,0.0,0.0,0.0,0.0,0.0,0.0,0.0,0.0,0.0,0.0,0.0,0.0,0.0,0.0,0.0,0.0,0.0,0.0,0.0,0.0,0.0,0.0,0.0,0.0,0.0,0.0,0.0,0.0,0.0,0.0,3.8478,3.859,3.8797,3.9177,3.9702,4.03,4.101,4.1662,4.2231,4.2351,4.2701,4.3254,4.3542,4.369,4.3729,4.4089,4.4281,4.432,4.4511,4.4572,4.461,4.461,4.461,4.4486,4.3809,4.311,4.2463,4.1786,4.1078,4.0489,4.0489,4.0627,4.0851,4.1189,4.1256,4.1323,4.1522,4.1555,4.1588,4.1588,4.1588,4.1588,4.1588,4.1851,4.2077,4.2109,4.2664,4.3204,4.3539,4.3598,4.3598,4.3598,4.3598,4.3598,4.3598,4.3598,4.3598,4.3598,4.4986,4.5798,4.5798,4.7222,4.8001,4.8033,4.8324,4.8483,4.8515,4.8846,4.9001,4.9001,4.9001,4.9001,0.0,3.5037,0.0,0.0,0.0,0.0,0.0,0.0,0.0,0.0,0.0,0.0,0.0,0.0,0.0,0.0,0.0,0.0,0.0,0.0,0.0,0.0,0.0,0.0,0.0,0.0,0.0,0.0,0.0,0.0,0.0,0.0,0.0,0.0,0.0,0.0,3.8202,3.8202,3.8202,0.0,3.8404,3.8516,3.859,3.8797,3.9091,3.943,4.0248,4.0696,4.0905,4.1976,4.2485,4.2665,4.3174,4.3518,4.3729,4.3808,4.4026,4.432,4.4358,4.4473,4.461,4.461,4.461,4.4486,4.3809,4.311,4.2463,4.1786,4.1078,4.0489,4.0489,4.0524,4.0627,4.0851,4.1018,4.1187,4.1323,4.1341,4.1423,4.1555,4.1588,4.1588,4.1588,4.1654,4.1785,4.2045,4.2664,4.3143,4.3204,4.3432,4.3598,4.3598,4.3598,4.3598,4.3598,4.3598,4.3598,4.3598,4.4986,4.5798,4.5798,4.7222,4.8066,4.813,4.8227,4.8436,4.8738,4.8801,4.8894,4.9001,4.9001,4.9001,0.0,0.0,0.0,0.0,0.0,0.0,0.0,0.0,0.0,0.0,0.0,0.0,0.0,0.0,0.0,0.0,0.0,0.0,0.0,0.0,0.0,0.0,0.0,0.0,0.0,0.0,0.0,0.0,0.0,0.0,0.0,0.0,0.0,0.0,0.0,0.0,3.8202,3.8202,3.8202,3.8202,3.8315,3.8366,3.8366,3.876,3.898,3.9119,3.9695,4.0113,4.0442,4.113,4.1647,4.1991,4.2611,4.2944,4.3121,4.353,4.3832,4.4026,4.4127,4.4281,4.4473,4.4473,4.4534,4.4548,4.4194,4.3387,4.254,4.2186,4.134,4.0489,4.0489,4.0489,4.0524,4.0627,4.0814,4.0984,4.1187,4.1256,4.1323,4.1423,4.1522,4.1588,4.1588,4.1588,4.172,4.2045,4.2397,4.2726,4.3066,4.3096,4.3174,4.3325,4.3372,4.3372,4.3372,4.3492,4.3598,4.3598,4.4655,4.5417,4.5781,4.6874,4.7669,4.8115,4.8179,4.8292,4.85,4.8707,4.8849,4.8894,4.897,4.9001,0.0,0.0,0.0,0.0,0.0,0.0,0.0,0.0,0.0,0.0,0.0,0.0,0.0,0.0,0.0,0.0,0.0,0.0,0.0,0.0,0.0,0.0,0.0,0.0,0.0,0.0,0.0,0.0,0.0,0.0,0.0,0.0,0.0,0.0,0.0,3.8202,3.8202,3.8202,3.8202,3.8202,3.8202,3.8202,3.8202,3.8797,3.9068,3.9068,3.9265,3.9687,4.0247,4.0352,4.0726,4.128,4.1976,4.2306,4.2509,4.322,4.3585,4.3729,4.3871,4.4089,4.4243,4.4281,4.4396,4.4534,4.4572,4.3648,4.2602,4.2602,4.1601,4.0489,4.0489,4.0489,4.0489,4.0489,4.0627,4.0799,4.1,4.1153,4.1223,4.129,4.1456,4.1588,4.1588,4.1588,4.1687,4.198,4.2077,4.2302,4.2867,4.2789,4.2772,4.3066,4.3143,4.3204,4.3204,4.3432,4.3598,4.3598,4.4291,4.5019,4.5765,4.651,4.7255,4.7984,4.8115,4.8179,4.8195,4.8532,4.8738,4.8801,4.8925,4.897,0.0,0.0,0.0,0.0,0.0,0.0,0.0,0.0,0.0,0.0,0.0,0.0,0.0,0.0,0.0,0.0,0.0,0.0,0.0,0.0,0.0,0.0,0.0,0.0,0.0,0.0,0.0,0.0,0.0,0.0,0.0,0.0,3.8202,3.8202,3.8202,3.8202,3.8202,3.8202,3.8202,3.8202,3.8202,3.8202,3.8202,3.8634,3.8819,3.887,3.9068,3.9273,3.9589,4.0172,4.0442,4.0591,4.125,4.1901,4.241,4.2539,4.3061,4.369,4.3729,4.3871,4.4065,4.4243,4.432,4.4358,4.4549,4.3648,4.2602,4.2602,4.1601,4.0489,4.0489,4.0489,4.0489,4.0489,4.0524,4.0608,4.0799,4.0867,4.0953,4.1256,4.1456,4.1588,4.1588,4.1588,4.1621,4.1654,4.1916,4.2142,4.2238,4.2695,4.3035,4.3113,4.3372,4.3522,4.3522,4.3568,4.3598,4.3598,4.4291,4.5019,4.5765,4.651,4.7255,4.7984,4.8033,4.8082,4.8195,4.826,4.8468,4.8818,4.8801,4.8894,3.4534,0.0,0.0,0.0,0.0,0.0,0.0,0.0,0.0,0.0,0.0,0.0,0.0,0.0,0.0,0.0,0.0,0.0,0.0,0.0,0.0,0.0,0.0,0.0,0.0,0.0,0.0,0.0,0.0,0.0,0.0,3.8202,3.8202,3.8202,3.8202,0.0,3.8202,3.8202,3.8202,3.8202,3.8315,3.8315,3.8202,3.8501,3.8686,3.8819,3.9141,3.9301,3.9403,3.9723,3.9843,3.9918,4.0576,4.101,4.1354,4.2126,4.2629,4.3022,4.3343,4.3636,4.3832,4.3949,4.4026,4.4166,4.4358,4.3499,4.2441,4.2565,4.1601,4.0489,4.0489,4.0489,4.0489,4.0489,4.0489,4.0524,4.0627,4.073,4.0867,4.1153,4.1339,4.1423,4.1423,4.1522,4.1588,4.1588,4.172,4.1883,4.2077,4.219,4.2412,4.2772,4.2959,4.3129,4.3295,4.3492,4.3598,4.3598,4.388,4.4605,4.5748,4.6096,4.6825,4.7984,4.8001,4.8033,4.8082,4.8163,4.8292,4.8468,4.8564,4.8721,0.0,0.0,0.0,0.0,0.0,0.0,0.0,0.0,0.0,0.0,0.0,0.0,0.0,0.0,0.0,0.0,0.0,0.0,0.0,0.0,0.0,0.0,0.0,0.0,0.0,0.0,0.0,0.0,0.0,0.0,3.8202,3.8202,3.8202,3.8202,3.8202,3.8202,3.8202,3.8202,3.8202,3.8202,3.8366,3.8366,3.8202,3.8404,3.859,3.876,3.9031,3.9228,3.9301,3.9301,3.9337,3.9433,3.9963,4.0247,4.0516,4.1542,4.2111,4.247,4.2925,4.3289,4.3596,4.369,4.3793,4.3949,4.4166,4.3296,4.2316,4.2477,4.1566,4.0489,4.0489,4.0489,4.0489,4.0489,4.0489,4.0489,4.0489,4.0662,4.0833,4.1,4.1153,4.1272,4.129,4.1423,4.1555,4.1588,4.1588,4.1687,4.1948,4.1818,4.1932,4.2539,4.268,4.2867,4.3204,4.3462,4.3598,4.3598,4.3598,4.4274,4.5732,4.5798,4.6493,4.7968,4.8001,4.8001,4.8001,4.8115,4.8179,4.8195,4.8356,4.8515,0.0,0.0,0.0,0.0,0.0,0.0,0.0,0.0,0.0,0.0,0.0,0.0,0.0,0.0,0.0,0.0,0.0,0.0,0.0,0.0,0.0,0.0,0.0,0.0,0.0,0.0,0.0,0.0,0.0,0.0,3.8202,3.8202,3.8202,3.8202,3.8202,3.8202,3.8202,3.8202,3.8202,3.8202,3.8202,3.8202,3.8202,3.8404,3.8516,3.8516,3.8516,3.8775,3.9104,3.9104,3.9228,3.9388,3.9454,3.9843,4.0412,4.0472,4.1294,4.2396,4.244,4.2821,4.3384,4.3596,4.3729,4.3769,4.3949,4.3198,4.2316,4.2316,4.1444,4.0489,4.0489,4.0489,4.0489,4.0489,4.0489,4.0489,4.0489,4.0662,4.0799,4.0799,4.1,4.1169,4.129,4.1323,4.139,4.1555,4.1588,4.1621,4.1621,4.1883,4.2206,4.2571,4.2898,4.3204,4.3539,4.3598,4.3598,4.3598,4.3598,4.4274,4.5732,4.5798,4.6493,4.7968,4.8001,4.8001,4.8001,4.8001,4.8099,4.8195,4.8195,4.8324,0.0,0.0,0.0,0.0,0.0,0.0,0.0,0.0,0.0,0.0,0.0,0.0,0.0,0.0,0.0,0.0,0.0,0.0,0.0,0.0,0.0,0.0,0.0,0.0,0.0,0.0,0.0,0.0,0.0,0.0,3.8202,3.8202,3.8202,3.8202,3.8202,3.8202,3.8202,3.8202,3.8202,3.8202,3.8202,3.8202,3.8202,3.8277,3.8315,3.8315,3.8315,3.8538,3.8907,3.9068,3.9141,3.9228,3.9337,3.9574,3.9828,4.0247,4.0965,4.1826,4.2246,4.2791,4.3329,4.3423,4.3423,4.3503,4.3714,4.2909,4.1962,4.2242,4.1372,4.0401,4.0489,4.0489,4.0489,4.0489,4.0489,4.0489,4.0489,4.0558,4.0593,4.0593,4.078,4.0901,4.0969,4.1156,4.1323,4.139,4.1522,4.1588,4.1588,4.172,4.1916,4.2238,4.2397,4.2601,4.2943,4.2943,4.2943,4.2943,4.3174,4.3953,4.5417,4.5704,4.6493,4.7968,4.8001,4.8001,4.8001,4.8001,4.8033,4.8049,4.8049,4.8147,3.4668,0.0,0.0,0.0,0.0,0.0,0.0,0.0,0.0,0.0,0.0,0.0,0.0,0.0,0.0,0.0,0.0,0.0,0.0,0.0,0.0,0.0,0.0,0.0,0.0,0.0,0.0,0.0,0.0,0.0,3.8202,3.8202,3.8202,3.8202,3.8202,3.8202,3.8202,3.8202,3.8202,3.8202,3.8202,3.8202,3.8202,3.8202,3.8202,3.8202,3.8202,3.8389,3.8723,3.8833,3.8995,3.9104,3.9265,3.9337,3.9433,3.9903,4.0621,4.1482,4.1916,4.2596,4.329,4.329,4.329,4.3245,4.2902,4.2291,4.1656,4.1406,4.0815,4.0312,4.0401,4.047,4.042,4.0146,4.0301,4.042,4.0146,4.0301,4.0489,4.0489,4.0593,4.073,4.0799,4.0987,4.1156,4.129,4.1423,4.1522,4.1588,4.1588,4.172,4.2077,4.2109,4.2222,4.2554,4.2601,4.2601,4.2617,4.282,4.3596,4.5081,4.5355,4.619,4.7787,4.7787,4.7853,4.8001,4.8001,4.8001,4.8001,4.8001,4.8066,0.0,0.0,0.0,0.0,0.0,0.0,0.0,0.0,0.0,0.0,0.0,0.0,0.0,0.0,0.0,0.0,0.0,0.0,0.0,0.0,0.0,0.0,0.0,0.0,0.0,0.0,0.0,0.0,0.0,3.8202,3.8202,3.8202,3.8202,3.8202,3.8202,3.8202,3.8202,3.8202,3.8202,3.8202,3.8202,3.8202,3.8202,3.8202,3.8202,3.8202,3.8202,3.8315,3.8478,3.8478,3.8738,3.9104,3.9104,3.9228,3.9388,3.9388,4.0247,4.1422,4.1422,4.2237,4.329,4.329,4.329,4.3036,4.1529,4.1385,4.1363,3.985,3.9807,4.0277,4.0312,4.0401,4.0301,3.9499,3.992,4.0301,3.9499,3.9955,4.0489,4.0489,4.0489,4.0558,4.0765,4.0799,4.0919,4.1256,4.129,4.139,4.1588,4.1588,4.172,4.2045,4.2077,4.2238,4.2554,4.2586,4.2586,4.2554,4.2585,4.3249,4.4723,4.4787,4.5618,4.7354,4.7404,4.7588,4.7968,4.8001,4.8001,4.8001,4.8001,4.8001,3.5103,0.0,0.0,0.0,0.0,0.0,0.0,0.0,0.0,0.0,0.0,0.0,0.0,0.0,0.0,0.0,0.0,0.0,0.0,0.0,0.0,0.0,0.0,0.0,0.0,0.0,0.0,0.0,0.0,3.8202,3.8202,3.8202,3.8202,3.8202,3.8202,3.8202,3.8202,3.8202,3.8202,3.8202,3.8202,3.8202,3.8202,3.8202,3.8202,3.8202,3.8202,3.824,3.8277,3.8441,3.8664,3.8907,3.9031,3.9228,3.9388,3.9388,4.0247,4.1422,4.1422,4.2237,4.329,4.329,4.329,4.3036,4.1529,4.1268,4.1197,3.9797,3.9624,3.9945,4.0226,4.0347,4.0331,4.0196,4.0351,4.0455,4.0231,4.0335,4.0489,4.0489,4.0489,4.0524,4.0558,4.0696,4.0867,4.112,4.1239,4.139,4.1588,4.1588,4.1621,4.172,4.1753,4.1785,4.1867,4.1883,4.1883,4.1867,4.2093,4.2912,4.4391,4.4655,4.5518,4.7015,4.7286,4.7438,4.7555,4.7853,4.8001,4.8001,4.8001,4.8001,0.0,0.0,0.0,0.0,0.0,0.0,0.0,3.5317,0.0,0.0,0.0,0.0,0.0,0.0,0.0,0.0,0.0,0.0,0.0,0.0,0.0,0.0,0.0,0.0,0.0,0.0,0.0,0.0,3.8057,3.8202,3.8202,3.8202,3.8202,3.8202,3.8202,3.8202,3.8202,3.8202,3.8202,3.8202,3.8202,3.8202,3.8202,3.8202,3.8202,3.8202,3.8202,3.8202,3.8202,3.8329,3.8538,3.8819,3.9017,3.9228,3.9388,3.9388,4.0247,4.1422,4.1422,4.2237,4.329,4.329,4.329,4.2991,4.1207,4.0759,4.056,3.9276,3.9372,3.991,4.0242,4.0312,4.0242,3.9965,4.0176,4.0246,3.9621,4.0041,4.0489,4.0489,4.0489,4.0489,4.0489,4.0593,4.073,4.095,4.1037,4.1189,4.1456,4.1489,4.1522,4.1588,4.1588,4.1588,4.1588,4.1588,4.1588,4.1588,4.1785,4.252,4.3986,4.4253,4.508,4.6636,4.686,4.7032,4.7168,4.7754,4.8001,4.8001,4.8001,4.8001,0.0,0.0,0.0,0.0,0.0,0.0,3.6117,3.5672,3.5201,0.0,0.0,0.0,0.0,0.0,0.0,0.0,0.0,0.0,0.0,0.0,0.0,0.0,0.0,0.0,0.0,0.0,0.0,3.7259,3.7868,3.8202,3.8202,3.8202,3.8202,3.8202,3.8202,3.8202,3.8202,3.8202,3.8202,3.8202,3.8202,3.8202,3.8202,3.8202,3.8202,3.8202,3.8202,3.8202,3.8202,3.8202,3.8464,3.8797,3.898,3.9177,3.9388,3.9463,4.0307,4.1384,4.1512,4.2297,4.329,4.329,4.3245,4.2812,4.0739,4.0041,3.9736,3.8536,3.9031,3.9996,4.0207,4.0277,4.0051,3.9271,3.9631,3.9829,3.8487,3.9341,4.0385,4.0489,4.0489,4.0489,4.0489,4.0489,4.0558,4.0765,4.0799,4.0935,4.1223,4.129,4.1357,4.1555,4.1588,4.1588,4.1588,4.1588,4.1588,4.1588,4.1667,4.2315,4.364,4.3766,4.4573,4.6198,4.6285,4.6512,4.6876,4.7621,4.7935,4.7935,4.7968,4.8001,0.0,0.0,0.0,0.0,0.0,0.0,3.6677,3.6461,3.6274,0.0,0.0,0.0,0.0,0.0,0.0,0.0,0.0,0.0,0.0,0.0,0.0,0.0,0.0,0.0,0.0,0.0,3.6591,3.7259,3.7868,3.8202,3.8202,3.8202,3.8202,3.8202,3.8202,3.8202,3.8202,3.8202,3.8202,3.8202,3.8202,3.8202,3.8202,3.8202,3.8202,3.8202,3.8202,3.8202,3.8202,3.8366,3.8478,3.859,3.8797,3.898,3.9237,3.9934,4.0711,4.1497,4.2021,4.2686,4.329,4.329,4.297,4.227,4.0607,3.9722,3.9131,3.8405,3.8848,3.9604,3.996,4.0066,3.9874,3.9175,3.9247,3.9356,3.8928,3.9196,3.9728,4.037,4.0489,4.0489,4.0489,4.0489,4.0558,4.0765,4.0799,4.0867,4.1102,4.1239,4.1323,4.1357,4.1489,4.1588,4.1588,4.1588,4.1588,4.1588,4.2157,4.2853,4.3655,4.4243,4.4958,4.5884,4.6175,4.6512,4.6876,4.732,4.7521,4.7521,4.7853,4.8001,0.0,0.0,0.0,3.6616,0.0,0.0,0.0,3.6693,0.0,0.0,0.0,0.0,0.0,0.0,0.0,0.0,0.0,0.0,0.0,0.0,0.0,0.0,0.0,0.0,0.0,0.0,3.6707,3.768,3.8028,3.8202,3.8202,3.8202,3.8202,3.8202,3.8202,3.8202,3.8202,3.8202,3.8202,3.8202,3.8202,3.8202,3.8202,3.8202,3.8202,3.8202,3.8202,3.8202,3.8202,3.8315,3.8366,3.8389,3.8671,3.8907,3.9179,3.9958,4.0741,4.1512,4.2171,4.2791,4.329,4.329,4.2895,4.2106,4.0578,3.9431,3.858,3.8358,3.8892,3.9517,3.9256,3.9292,3.9184,3.8302,3.8576,3.8921,3.8509,3.8833,3.9241,3.9284,3.9621,4.0041,4.042,4.0489,4.0524,4.0627,4.0662,4.073,4.0916,4.1003,4.1122,4.129,4.139,4.1489,4.1588,4.1588,4.1588,4.1588,4.2284,4.2995,4.3674,4.4354,4.5065,4.5807,4.5956,4.6156,4.6349,4.6703,4.7015,4.7404,4.7588,4.782,0.0,0.0,0.0,0.0,0.0,3.7617,0.0,0.0,0.0,0.0,0.0,0.0,0.0,0.0,0.0,0.0,0.0,0.0,0.0,0.0,0.0,0.0,0.0,0.0,0.0,0.0,3.6838,3.8101,3.8202,3.8202,3.8202,3.8202,3.8202,3.8202,3.8202,3.8202,3.8202,3.8202,3.8202,3.8202,3.8202,3.8202,3.8202,3.8202,3.8202,3.8202,3.8202,3.8202,3.8202,3.824,3.824,3.8277,3.8649,3.8907,3.9157,4.0018,4.0808,4.1527,4.2321,4.2895,4.329,4.329,4.2673,4.1596,3.9797,3.8625,3.7985,3.8078,3.8752,3.9307,3.8774,3.8679,3.8494,3.7715,3.7956,3.8308,3.8026,3.8479,3.8841,3.8561,3.9052,3.9692,4.0181,4.042,4.0489,4.0489,4.0489,4.0558,4.073,4.0765,4.0885,4.1156,4.1223,4.1323,4.1522,4.1555,4.1619,4.1794,4.2473,4.3169,4.3848,4.4543,4.5207,4.5807,4.5807,4.5807,4.5807,4.6084,4.6547,4.7202,4.7337,4.7603,0.0,0.0,0.0,0.0,3.8165,0.0,0.0,0.0,0.0,0.0,0.0,0.0,0.0,0.0,0.0,0.0,0.0,0.0,0.0,0.0,0.0,0.0,0.0,0.0,0.0,0.0,0.0,3.8101,3.8202,3.8202,3.8202,3.8202,3.8202,3.8202,3.8202,3.8202,3.8202,3.8202,3.8202,3.8202,3.8202,3.8202,3.8202,3.8202,3.8202,3.8202,3.8202,3.8202,3.8202,3.8404,3.8478,3.8478,3.8708,3.8819,3.9018,4.0651,4.1309,4.1549,4.2791,4.323,4.329,4.329,4.1977,3.9851,3.7033,3.6589,3.7049,3.7074,3.7691,3.8538,3.9343,3.9009,3.8465,3.8502,3.7677,3.7179,3.8339,3.8413,3.8561,3.9809,4.0211,4.0181,3.9535,4.0041,4.0489,4.0489,4.0489,4.0489,4.0524,4.0696,4.0799,4.0867,4.1018,4.1187,4.1323,4.1307,4.1706,4.2521,4.32,4.388,4.4575,4.5302,4.5728,4.5807,4.5807,4.5807,4.5807,4.5844,4.6048,4.6426,4.71,4.7579,0.0,0.0,0.0,0.0,0.0,0.0,0.0,0.0,3.8428,0.0,0.0,0.0,0.0,0.0,0.0,0.0,0.0,0.0,0.0,0.0,0.0,0.0,0.0,0.0,0.0,0.0,0.0,0.0,0.0,3.8202,3.8202,3.8202,3.8202,3.8202,3.8202,3.8202,3.8202,3.8202,3.8202,3.8202,3.8202,3.8202,3.8202,3.8202,3.8202,3.8202,3.8202,3.8202,3.8202,3.8277,3.8329,3.8366,3.8686,3.9092,3.9699,4.0814,4.1562,4.2126,4.3015,4.329,4.317,4.2447,4.0982,3.9334,3.8207,3.7782,3.7744,3.8234,3.8598,3.8885,3.8833,3.8634,3.8308,3.7776,3.7281,3.7242,3.8302,3.7648,3.7434,3.9256,3.9226,3.9,3.9269,3.997,4.0489,4.0489,4.0489,4.0489,4.0489,4.0558,4.0662,4.0799,4.0882,4.0984,4.1153,4.1272,4.1671,4.2462,4.3621,4.4591,4.5317,4.5649,4.5807,4.5807,4.5807,4.5807,4.5807,4.5807,4.607,4.66,4.7139,4.7599,3.666,0.0,0.0,0.0,0.0,0.0,0.0,0.0,0.0,0.0,0.0,0.0,0.0,0.0,0.0,0.0,0.0,0.0,0.0,0.0,0.0,0.0,0.0,0.0,0.0,0.0,0.0,0.0,3.8149,0.0,3.8188,3.8202,3.8202,3.8202,3.8202,3.8202,3.8202,3.8202,3.8202,3.8202,3.8202,3.8202,3.8202,3.8202,3.8202,3.8202,3.8202,3.8202,3.8202,3.824,3.8277,3.8344,3.8914,3.9661,4.0449,4.0992,4.1688,4.25,4.3105,4.3051,4.2495,4.1406,4.0026,3.8741,3.8751,3.8136,3.772,3.8775,3.8907,3.8671,3.8575,3.8464,3.8225,3.7472,3.7074,3.7088,3.7875,3.7049,3.6649,3.836,3.8242,3.8123,3.8855,3.9814,4.0489,4.0489,4.0489,4.0489,4.0489,4.0489,4.0558,4.0696,4.073,4.0799,4.1,4.1276,4.1862,4.2874,4.4177,4.5182,4.5792,4.5807,4.5807,4.5807,4.5807,4.5807,4.5807,4.5807,4.6155,4.6803,4.7207,4.767,0.0,0.0,0.0,3.8561,0.0,0.0,0.0,0.0,3.9281,0.0,0.0,0.0,0.0,0.0,0.0,3.6535,0.0,0.0,0.0,0.0,0.0,0.0,0.0,0.0,0.0,0.0,0.0,0.0,3.8003,0.0,3.8211,3.8202,3.8202,3.8202,3.8202,3.8202,3.8202,3.8202,3.8202,3.8202,3.8202,3.8202,3.8202,3.8202,3.8202,3.8202,3.8202,3.8202,3.8202,3.8404,3.8478,3.8574,3.9654,4.0456,4.1103,4.1308,4.1841,4.25,4.3105,4.2366,4.1051,4.0382,3.914,3.7802,3.7155,3.6439,3.6096,3.7758,3.7615,3.7357,3.8943,3.8775,3.8225,3.8316,3.7165,3.6255,3.7049,3.6908,3.6766,3.7396,3.7838,3.8101,3.8138,3.9463,4.0489,4.0489,4.0489,4.0489,4.0489,4.0489,4.0489,4.0489,4.0489,4.0593,4.0799,4.1403,4.2525,4.4239,4.506,4.5557,4.5771,4.5807,4.5807,4.5807,4.5807,4.5807,4.5807,4.5807,4.6155,4.6803,4.7207,4.7941,0.0,0.0,3.716,3.8229,0.0,0.0,0.0,0.0,0.0,0.0,0.0,0.0,0.0,0.0,3.7431,3.7164,3.7322,0.0,0.0,0.0,0.0,0.0,0.0,0.0,0.0,0.0,0.0,3.7934,3.8083,3.8141,0.0,3.8202,3.8202,3.8202,3.8202,3.8202,3.8202,3.8202,3.8202,3.8202,3.8202,3.8202,3.8202,3.8202,3.8202,3.8202,3.8202,3.8202,3.8202,3.8277,3.8277,3.8387,3.9331,4.0182,4.0985,4.1748,4.2447,4.297,4.2761,4.2082,4.1104,3.9833,3.8808,3.7954,3.7159,3.7102,3.7491,3.8037,3.8375,3.8708,3.9265,3.9192,3.8885,3.836,3.741,3.666,3.6919,3.6175,3.5763,3.7049,3.7204,3.7281,3.7785,3.8347,3.8928,3.9621,4.0091,4.0401,4.0489,4.0489,4.0489,4.0489,4.0489,4.0724,4.1291,4.2478,4.3495,4.4169,4.4888,4.5405,4.5589,4.5589,4.5662,4.5807,4.5807,4.5807,4.5807,4.5807,4.6408,4.753,4.768,4.8171,3.5836,3.628,0.0,0.0,3.8326,0.0,3.9424,0.0,0.0,0.0,0.0,0.0,0.0,0.0,0.0,3.7225,3.7391,0.0,0.0,0.0,0.0,0.0,0.0,0.0,0.0,0.0,3.7316,3.7955,3.795,3.7967,0.0,0.0,3.8202,3.8202,3.8202,3.8202,3.8202,3.8202,3.8202,3.8202,3.8202,3.8202,3.8202,3.8202,3.8202,3.8202,3.8202,3.8202,3.8202,3.8202,3.837,3.876,3.9607,4.0498,4.1364,4.1998,4.2682,4.32,4.262,4.1754,4.0778,3.9871,3.8923,3.815,3.7881,3.7971,3.8335,3.8816,3.8988,3.9091,3.9636,3.9589,3.9192,3.8389,3.7539,3.6802,3.6543,3.583,3.5453,3.6215,3.6413,3.657,3.6816,3.7035,3.752,3.8583,3.937,3.9864,3.9955,4.0266,4.0489,4.0489,4.072,4.1137,4.1803,4.2768,4.3514,4.3901,4.4348,4.4852,4.5368,4.5405,4.5478,4.5698,4.5698,4.5735,4.5807,4.5807,4.6534,4.7893,4.7893,4.8383]}]]